[[{"header":{"parameterUnit":"m.s-1","parameterCategory":1,"la1":31.0,"la2":29.5877,"lo1":-88.7671,"lo2":-86.6584,"dy":0.0162,"dx":0.0185,"nx":115,"ny":88,"refTime":"2026-02-23T12:00:00:Z","depth":0,"parameterNumber":2,"parameterNumberName":"U-component_of_WINDS"},"data":[0.0,0.0,0.0,0.0,0.0,0.0,0.0,0.0,0.0,0.0,0.0,0.0,0.0,0.0,0.0,0.0,0.0,0.0,0.0,0.0,0.0,0.0,0.0,0.0,0.0,0.0,0.0,0.0,0.0,0.0,0.0,0.0,0.0,0.0,0.0,0.0,0.0,0.0,0.0,0.0,0.0,0.0,0.0,0.0,0.0,0.0,0.0,0.0,0.0,0.0,0.0,0.0,0.0,0.0,0.0,0.0,0.0,0.0,0.0,0.0,0.0,0.0,0.0,0.0,0.0,0.0,0.0,0.0,0.0,0.0,0.0,0.0,0.0,0.0,0.0,0.0,0.0,0.0,0.0,0.0,0.0,0.0,0.0,0.0,0.0,0.0,0.0,0.0,0.0,0.0,0.0,0.0,0.0,0.0,0.0,0.0,0.0,0.0,0.0,0.0,0.0,0.0,0.0,0.0,0.0,0.0,0.0,0.0,0.0,0.0,0.0,0.0,0.0,0.0,0.0,0.0,0.0,0.0,0.0,0.0,0.0,0.0,0.0,0.0,0.0,0.0,0.0,0.0,0.0,0.0,0.0,0.0,0.0,0.0,0.0,0.0,0.0,0.0,0.0,0.0,0.0,0.0,0.0,0.0,0.0,0.0,0.0,0.0,0.0,0.0,0.0,0.0,0.0,0.0,0.0,0.0,0.0,0.0,0.0,0.0,0.0,0.0,0.0,0.0,0.0,0.0,0.0,0.0,0.0,0.0,0.0,0.0,0.0,0.0,0.0,0.0,0.0,0.0,0.0,0.0,0.0,0.0,0.0,0.0,0.0,0.0,0.0,0.0,0.0,0.0,0.0,0.0,0.0,0.0,0.0,0.0,0.0,0.0,0.0,0.0,0.0,0.0,0.0,0.0,0.0,0.0,0.0,0.0,0.0,0.0,0.0,0.0,0.0,0.0,0.0,0.0,0.0,0.0,0.0,0.0,0.0,0.0,0.0,0.0,0.0,0.0,0.0,0.0,0.0,0.0,0.0,0.0,0.0,0.0,0.0,0.0,0.0,0.0,0.0,0.0,0.0,0.0,0.0,0.0,0.0,0.0,0.0,0.0,0.0,0.0,0.0,0.0,0.0,0.0,0.0,0.0,0.0,0.0,0.0,0.0,0.0,0.0,0.0,0.0,0.0,0.0,0.0,0.0,0.0,0.0,0.0,0.0,0.0,0.0,0.0,0.0,0.0,0.0,0.0,0.0,0.0,0.0,0.0,0.0,0.0,0.0,0.0,0.0,0.0,0.0,0.0,0.0,0.0,0.0,0.0,0.0,0.0,0.0,0.0,0.0,0.0,0.0,0.0,0.0,0.0,0.0,0.0,0.0,0.0,0.0,0.0,0.0,0.0,0.0,0.0,0.0,0.0,0.0,0.0,0.0,0.0,0.0,0.0,0.0,0.0,0.0,0.0,0.0,0.0,0.0,0.0,0.0,0.0,0.0,0.0,0.0,0.0,0.0,0.0,0.0,0.0,0.0,0.0,0.0,0.0,0.0,0.0,0.0,0.0,0.0,0.0,0.0,0.0,0.0,0.0,0.0,0.0,0.0,0.0,0.0,0.0,0.0,0.0,0.0,0.0,0.0,0.0,0.0,0.0,0.0,0.0,0.0,0.0,0.0,0.0,0.0,0.0,0.0,0.0,0.0,0.0,0.0,0.0,0.0,0.0,0.0,0.0,0.0,0.0,0.0,0.0,0.0,0.0,0.0,0.0,0.0,0.0,0.0,0.0,0.0,0.0,0.0,0.0,0.0,0.0,0.0,0.0,0.0,0.0,0.0,0.0,0.0,0.0,0.0,0.0,0.0,0.0,0.0,0.0,0.0,0.0,0.0,0.0,0.0,0.0,0.0,0.0,0.0,0.0,0.0,0.0,0.0,0.0,0.0,0.0,0.0,0.0,0.0,0.0,0.0,0.0,0.0,0.0,0.0,0.0,0.0,0.0,0.0,0.0,0.0,0.0,0.0,0.0,0.0,0.0,0.0,0.0,0.0,0.0,0.0,0.0,0.0,0.0,0.0,0.0,0.0,0.0,0.0,0.0,0.0,0.0,0.0,0.0,0.0,0.0,0.0,0.0,0.0,0.0,0.0,0.0,0.0,0.0,0.0,0.0,0.0,0.0,0.0,0.0,0.0,0.0,0.0,0.0,0.0,0.0,0.0,0.0,0.0,0.0,0.0,0.0,0.0,0.0,0.0,0.0,0.0,0.0,0.0,0.0,0.0,0.0,0.0,0.0,0.0,0.0,0.0,0.0,0.0,0.0,0.0,0.0,0.0,0.0,0.0,0.0,0.0,0.0,0.0,0.0,0.0,0.0,0.0,0.0,0.0,0.0,0.0,0.0,0.0,0.0,0.0,0.0,0.0,0.0,0.0,0.0,0.0,0.0,0.0,0.0,0.0,0.0,0.0,0.0,0.0,0.0,0.0,0.0,0.0,0.0,0.0,0.0,0.0,0.0,0.0,0.0,0.0,0.0,0.0,0.0,0.0,0.0,0.0,0.0,0.0,0.0,0.0,0.0,0.0,0.0,0.0,0.0,0.0,0.0,0.0,0.0,0.0,0.0,0.0,0.0,0.0,0.0,0.0,0.0,0.0,0.0,0.0,0.0,0.0,0.0,0.0,0.0,0.0,0.0,0.0,0.0,0.0,0.0,0.0,0.0,0.0,0.0,0.0,0.0,0.0,0.0,0.0,0.0,0.0,0.0,0.0,0.0,0.0,0.0,0.0,0.0,0.0,0.0,0.0,0.0,0.0,0.0,0.0,0.0,0.0,0.0,0.0,0.0,0.0,0.0,0.0,0.0,0.0,0.0,0.0,0.0,0.0,0.0,0.0,0.0,0.0,0.0,0.0,0.0,0.0,0.0,0.0,0.0,0.0,0.0,0.0,0.0,0.0,0.0,0.0,0.0,0.0,0.0,0.0,0.0,0.0,0.0,0.0,0.0,0.0,0.0,0.0,0.0,0.0,0.0,0.0,0.0,0.0,0.0,0.0,0.0,0.0,0.0,0.0,0.0,0.0,0.0,0.0,0.0,0.0,0.0,0.0,0.0,0.0,0.0,0.0,0.0,0.0,0.0,0.0,0.0,0.0,0.0,0.0,0.0,0.0,0.0,0.0,0.0,0.0,0.0,0.0,0.0,0.0,0.0,0.0,0.0,0.0,0.0,0.0,0.0,0.0,0.0,0.0,0.0,0.0,0.0,0.0,0.0,0.0,0.0,0.0,0.0,0.0,0.0,0.0,0.0,0.0,0.0,0.0,0.0,0.0,0.0,0.0,0.0,0.0,0.0,0.0,0.0,0.0,0.0,0.0,0.0,0.0,0.0,0.0,0.0,0.0,0.0,0.0,0.0,0.0,0.0,0.0,0.0,0.0,0.0,0.0,0.0,0.0,0.0,0.0,0.0,0.0,0.0,0.0,0.0,0.0,0.0,0.0,0.0,0.0,0.0,0.0,0.0,0.0,0.0,0.0,0.0,0.0,0.0,0.0,0.0,0.0,0.0,0.0,0.0,0.0,0.0,0.0,0.0,0.0,0.0,0.0,0.0,0.0,0.0,0.0,0.0,0.0,0.0,0.0,0.0,0.0,0.0,0.0,0.0,0.0,0.0,0.0,0.0,0.0,0.0,0.0,0.0,0.0,0.0,0.0,0.0,0.0,0.0,0.0,0.0,0.0,0.0,0.0,0.0,0.0,0.0,0.0,0.0,0.0,0.0,0.0,0.0,0.0,0.0,0.0,0.0,0.0,0.0,0.0,0.0,0.0,0.0,0.0,0.0,0.0,0.0,0.0,0.0,0.0,0.0,0.0,0.0,0.0,0.0,0.0,0.0,0.0,0.0,0.0,0.0,0.0,0.0,0.0,0.0,0.0,0.0,0.0,0.0,0.0,0.0,0.0,0.0,0.0,0.0,0.0,0.0,0.0,0.0,0.0,0.0,0.0,0.0,0.0,0.0,0.0,0.0,0.0,0.0,0.0,0.0,0.0,0.0,0.0,0.0,0.0,0.0,0.0,0.0,0.0,0.0,0.0,0.0,0.0,0.0,0.0,0.0,0.0,0.0,0.0,0.0,0.0,0.0,0.0,0.0,0.0,0.0,0.0,0.0,0.0,0.0,0.0,0.0,0.0,0.0,0.0,0.0,0.0,0.0,0.0,0.0,0.0,0.0,0.0,0.0,0.0,0.0,0.0,0.0,0.0,0.0,0.0,0.0,0.0,0.0,0.0,0.0,0.0,0.0,0.0,1.9336,0.0,0.0,0.0,0.0,0.0,0.0,0.0,0.0,0.0,0.0,0.0,0.0,0.0,0.0,0.0,0.0,0.0,0.0,0.0,0.0,0.0,0.0,0.0,0.0,0.0,0.0,0.0,0.0,0.0,0.0,0.0,0.0,0.0,0.0,0.0,0.0,0.0,0.0,0.0,0.0,0.0,0.0,0.0,0.0,0.0,0.0,0.0,0.0,0.0,0.0,0.0,0.0,0.0,0.0,0.0,0.0,0.0,0.0,0.0,0.0,0.0,0.0,0.0,0.0,0.0,0.0,0.0,0.0,0.0,0.0,0.0,0.0,0.0,0.0,0.0,0.0,0.0,0.0,0.0,0.0,0.0,0.0,0.0,0.0,0.0,0.0,0.0,0.0,0.0,0.0,0.0,0.0,0.0,0.0,0.0,0.0,0.0,0.0,0.0,0.0,0.0,0.0,0.0,0.0,0.0,0.0,0.0,0.0,0.0,0.0,2.0586,2.0586,2.0586,2.0391,2.0039,0.0,0.0,0.0,0.0,0.0,0.0,0.0,0.0,0.0,0.0,0.0,0.0,0.0,0.0,0.0,0.0,0.0,0.0,0.0,0.0,0.0,0.0,0.0,0.0,0.0,0.0,0.0,0.0,0.0,0.0,0.0,0.0,0.0,0.0,0.0,0.0,0.0,0.0,0.0,0.0,0.0,0.0,0.0,0.0,0.0,0.0,0.0,0.0,0.0,0.0,0.0,0.0,0.0,0.0,0.0,0.0,0.0,0.0,0.0,0.0,0.0,0.0,0.0,0.0,0.0,0.0,0.0,0.0,0.0,0.0,0.0,0.0,0.0,0.0,0.0,0.0,0.0,0.0,0.0,0.0,0.0,0.0,0.0,0.0,0.0,0.0,0.0,0.0,0.0,0.0,0.0,0.0,0.0,0.0,0.0,0.0,0.0,0.0,0.0,0.0,0.0,0.0,0.0,0.0,0.0,0.0,0.0,0.0,0.0,0.0,0.0,0.0,2.1211,2.1094,2.0898,0.0,0.0,0.0,0.0,0.0,0.0,0.0,0.0,0.0,0.0,0.0,0.0,0.0,0.0,0.0,0.0,0.0,0.0,0.0,0.0,0.0,0.0,0.0,0.0,0.0,0.0,0.0,0.0,0.0,0.0,0.0,0.0,0.0,0.0,0.0,0.0,0.0,0.0,0.0,0.0,0.0,0.0,0.0,0.0,0.0,0.0,0.0,0.0,0.0,0.0,0.0,0.0,0.0,0.0,0.0,0.0,0.0,0.0,0.0,0.0,0.0,0.0,0.0,0.0,0.0,0.0,0.0,0.0,0.0,0.0,0.0,0.0,0.0,0.0,0.0,0.0,0.0,0.0,0.0,0.0,0.0,0.0,0.0,0.0,0.0,0.0,0.0,0.0,0.0,0.0,0.0,0.0,0.0,0.0,0.0,0.0,0.0,0.0,0.0,0.0,0.0,0.0,0.0,0.0,0.0,0.0,0.0,0.0,0.0,0.0,2.2148,2.293,2.2969,0.0,2.1867,0.0,0.0,0.0,0.0,0.0,0.0,0.0,0.0,0.0,0.0,0.0,0.0,0.0,0.0,0.0,0.0,0.0,0.0,0.0,0.0,0.0,0.0,0.0,0.0,0.0,0.0,0.0,0.0,0.0,0.0,0.0,0.0,0.0,0.0,0.0,0.0,0.0,0.0,0.0,0.0,0.0,0.0,0.0,0.0,0.0,0.0,0.0,0.0,0.0,0.0,0.0,0.0,0.0,0.0,0.0,0.0,0.0,0.0,0.0,0.0,0.0,0.0,0.0,0.0,0.0,0.0,0.0,0.0,0.0,0.0,0.0,0.0,0.0,0.0,0.0,0.0,0.0,0.0,0.0,0.0,0.0,0.0,0.0,0.0,0.0,0.0,0.0,0.0,0.0,0.0,0.0,0.0,0.0,0.0,0.0,0.0,0.0,0.0,0.0,0.0,0.0,0.0,0.0,0.0,0.0,0.0,0.0,0.0,0.0,0.0,0.0,2.3901,2.3901,2.3276,0.0,0.0,0.0,0.0,0.0,0.0,0.0,0.0,0.0,0.0,0.0,0.0,0.0,0.0,0.0,0.0,0.0,0.0,0.0,0.0,0.0,0.0,0.0,0.0,0.0,0.0,0.0,0.0,0.0,0.0,0.0,0.0,0.0,0.0,0.0,0.0,0.0,0.0,0.0,0.0,0.0,0.0,0.0,0.0,0.0,0.0,0.0,0.0,0.0,0.0,0.0,0.0,0.0,0.0,0.0,0.0,0.0,0.0,0.0,0.0,0.0,0.0,0.0,0.0,0.0,0.0,0.0,0.0,0.0,0.0,0.0,0.0,0.0,0.0,0.0,0.0,0.0,0.0,0.0,0.0,0.0,0.0,0.0,0.0,0.0,0.0,0.0,0.0,0.0,0.0,0.0,0.0,0.0,0.0,0.0,0.0,0.0,0.0,0.0,0.0,0.0,0.0,0.0,0.0,0.0,0.0,0.0,0.0,0.0,0.0,2.3201,0.0,2.5027,2.4868,2.3971,2.2298,0.0,0.0,0.0,0.0,0.0,0.0,0.0,0.0,0.0,0.0,0.0,0.0,0.0,0.0,0.0,0.0,0.0,0.0,0.0,0.0,0.0,0.0,0.0,0.0,0.0,0.0,0.0,0.0,0.0,0.0,0.0,0.0,0.0,0.0,0.0,0.0,0.0,0.0,0.0,0.0,0.0,0.0,0.0,0.0,0.0,0.0,0.0,0.0,0.0,0.0,0.0,0.0,0.0,0.0,0.0,0.0,0.0,0.0,0.0,0.0,0.0,0.0,0.0,0.0,0.0,0.0,0.0,0.0,0.0,0.0,0.0,0.0,0.0,0.0,0.0,0.0,0.0,0.0,0.0,0.0,0.0,0.0,0.0,0.0,0.0,0.0,0.0,0.0,0.0,0.0,0.0,0.0,0.0,0.0,0.0,0.0,0.0,0.0,0.0,0.0,0.0,0.0,0.0,0.0,0.0,0.0,0.0,0.0,0.0,2.4313,2.518,2.6793,2.6083,2.4829,0.0,0.0,0.0,0.0,0.0,0.0,0.0,0.0,0.0,0.0,0.0,0.0,0.0,0.0,0.0,0.0,0.0,0.0,0.0,0.0,0.0,0.0,0.0,0.0,0.0,0.0,0.0,0.0,0.0,0.0,0.0,0.0,0.0,0.0,0.0,0.0,0.0,0.0,0.0,0.0,0.0,0.0,0.0,0.0,0.0,0.0,0.0,0.0,0.0,0.0,0.0,0.0,0.0,0.0,0.0,0.0,0.0,0.0,0.0,0.0,0.0,0.0,0.0,0.0,0.0,0.0,0.0,0.0,0.0,0.0,0.0,0.0,0.0,0.0,0.0,0.0,0.0,0.0,0.0,0.0,0.0,0.0,0.0,0.0,0.0,0.0,0.0,0.0,0.0,0.0,0.0,0.0,0.0,0.0,0.0,0.0,0.0,0.0,0.0,0.0,0.0,0.0,0.0,0.0,0.0,0.0,0.0,0.0,0.0,2.3573,2.5176,2.662,2.7717,2.6464,2.5171,0.0,0.0,0.0,0.0,0.0,0.0,0.0,0.0,0.0,0.0,0.0,0.0,0.0,0.0,0.0,0.0,0.0,0.0,0.0,0.0,0.0,0.0,0.0,0.0,0.0,0.0,0.0,0.0,0.0,0.0,0.0,0.0,0.0,0.0,0.0,0.0,0.0,0.0,0.0,0.0,0.0,0.0,0.0,0.0,0.0,0.0,0.0,0.0,0.0,0.0,0.0,0.0,0.0,0.0,0.0,0.0,0.0,0.0,0.0,0.0,0.0,0.0,0.0,0.0,0.0,0.0,0.0,0.0,0.0,0.0,0.0,0.0,0.0,0.0,0.0,0.0,0.0,0.0,0.0,0.0,0.0,0.0,0.0,0.0,0.0,0.0,0.0,0.0,0.0,0.0,0.0,0.0,0.0,0.0,0.0,0.0,0.0,0.0,0.0,0.0,0.0,0.0,0.0,0.0,0.0,0.0,0.0,0.0,0.0,2.4352,0.0,2.7972,0.0,2.6565,2.5113,0.0,0.0,0.0,0.0,0.0,0.0,0.0,0.0,0.0,0.0,0.0,0.0,0.0,0.0,0.0,0.0,0.0,0.0,0.0,0.0,0.0,0.0,0.0,0.0,0.0,0.0,0.0,0.0,0.0,0.0,0.0,0.0,0.0,0.0,0.0,0.0,0.0,0.0,0.0,0.0,0.0,0.0,0.0,0.0,0.0,0.0,0.0,0.0,0.0,0.0,0.0,0.0,0.0,0.0,0.0,0.0,0.0,0.0,0.0,0.0,0.0,0.0,0.0,0.0,0.0,0.0,0.0,0.0,0.0,0.0,0.0,0.0,0.0,0.0,0.0,0.0,0.0,0.0,0.0,0.0,0.0,0.0,0.0,0.0,0.0,0.0,0.0,0.0,0.0,0.0,0.0,0.0,0.0,0.0,0.0,0.0,0.0,0.0,0.0,0.0,0.0,0.0,0.0,0.0,0.0,0.0,0.0,0.0,0.0,2.6877,2.8571,2.9035,2.8228,2.6572,2.4845,0.0,0.0,0.0,0.0,0.0,0.0,0.0,0.0,0.0,0.0,0.0,0.0,0.0,0.0,0.0,0.0,0.0,0.0,0.0,0.0,0.0,0.0,0.0,0.0,0.0,0.0,0.0,0.0,0.0,0.0,0.0,0.0,0.0,0.0,0.0,0.0,0.0,0.0,0.0,0.0,0.0,0.0,0.0,0.0,0.0,0.0,0.0,0.0,0.0,0.0,0.0,0.0,0.0,0.0,0.0,0.0,0.0,0.0,0.0,0.0,0.0,0.0,0.0,0.0,0.0,0.0,0.0,0.0,0.0,0.0,0.0,0.0,0.0,0.0,0.0,0.0,0.0,0.0,0.0,0.0,0.0,0.0,0.0,0.0,0.0,0.0,0.0,0.0,0.0,0.0,0.0,0.0,0.0,0.0,0.0,0.0,0.0,0.0,0.0,0.0,0.0,0.0,0.0,0.0,0.0,0.0,0.0,0.0,0.0,2.7784,2.889,2.9563,2.9771,2.7608,2.5835,0.0,0.0,0.0,0.0,0.0,0.0,0.0,0.0,0.0,0.0,0.0,0.0,0.0,0.0,0.0,0.0,0.0,0.0,0.0,0.0,0.0,0.0,0.0,0.0,0.0,0.0,0.0,0.0,0.0,0.0,0.0,0.0,0.0,0.0,0.0,0.0,0.0,0.0,0.0,0.0,0.0,0.0,0.0,0.0,0.0,0.0,0.0,0.0,0.0,0.0,0.0,0.0,0.0,0.0,0.0,0.0,0.0,0.0,0.0,0.0,0.0,0.0,0.0,0.0,0.0,0.0,0.0,0.0,0.0,0.0,0.0,0.0,0.0,0.0,0.0,0.0,0.0,0.0,0.0,0.0,0.0,0.0,0.0,0.0,0.0,0.0,0.0,0.0,0.0,0.0,0.0,0.0,0.0,0.0,0.0,0.0,0.0,0.0,0.0,0.0,0.0,0.0,0.0,0.0,0.0,0.0,0.0,0.0,0.0,3.0877,3.1445,3.1762,3.1942,2.9428,2.7391,2.5829,0.0,0.0,0.0,0.0,0.0,0.0,0.0,0.0,0.0,0.0,0.0,0.0,0.0,0.0,0.0,0.0,0.0,0.0,0.0,0.0,0.0,0.0,0.0,0.0,0.0,0.0,0.0,0.0,0.0,0.0,0.0,0.0,0.0,0.0,0.0,0.0,0.0,0.0,0.0,0.0,0.0,0.0,0.0,0.0,0.0,0.0,0.0,0.0,0.0,0.0,0.0,0.0,0.0,0.0,0.0,0.0,0.0,0.0,0.0,0.0,0.0,0.0,0.0,0.0,0.0,0.0,0.0,0.0,0.0,0.0,0.0,0.0,0.0,0.0,0.0,0.0,0.0,0.0,0.0,0.0,0.0,0.0,0.0,0.0,0.0,0.0,0.0,0.0,0.0,0.0,0.0,0.0,0.0,0.0,0.0,0.0,0.0,0.0,0.0,0.0,0.0,0.0,0.0,0.0,0.0,0.0,0.0,0.0,3.5941,3.6107,3.562,3.4506,3.2069,2.9467,0.0,0.0,0.0,0.0,0.0,0.0,0.0,0.0,0.0,0.0,0.0,0.0,0.0,0.0,0.0,0.0,0.0,0.0,0.0,0.0,0.0,0.0,0.0,0.0,0.0,0.0,0.0,0.0,0.0,0.0,0.0,0.0,0.0,0.0,0.0,0.0,0.0,0.0,0.0,0.0,0.0,0.0,0.0,0.0,0.0,0.0,0.0,0.0,0.0,0.0,0.0,0.0,0.0,0.0,0.0,0.0,0.0,0.0,0.0,0.0,0.0,0.0,0.0,0.0,0.0,0.0,0.0,0.0,0.0,0.0,0.0,0.0,0.0,0.0,0.0,0.0,0.0,0.0,0.0,0.0,0.0,0.0,0.0,0.0,0.0,0.0,0.0,0.0,0.0,0.0,0.0,0.0,0.0,0.0,0.0,0.0,0.0,0.0,0.0,0.0,0.0,0.0,0.0,0.0,0.0,0.0,0.0,0.0,0.0,4.0882,4.2239,4.1251,3.7932,3.5944,3.2847,0.0,0.0,0.0,0.0,0.0,0.0,0.0,0.0,0.0,0.0,0.0,0.0,0.0,0.0,0.0,0.0,0.0,0.0,0.0,0.0,0.0,0.0,0.0,0.0,0.0,0.0,0.0,0.0,0.0,0.0,0.0,0.0,0.0,0.0,0.0,0.0,0.0,0.0,0.0,0.0,0.0,0.0,0.0,0.0,0.0,0.0,0.0,0.0,0.0,0.0,0.0,0.0,0.0,0.0,0.0,0.0,0.0,0.0,0.0,0.0,0.0,0.0,0.0,0.0,0.0,0.0,0.0,0.0,0.0,0.0,0.0,0.0,0.0,0.0,0.0,0.0,0.0,0.0,0.0,0.0,0.0,0.0,0.0,0.0,0.0,0.0,0.0,0.0,0.0,0.0,0.0,0.0,0.0,0.0,0.0,0.0,0.0,0.0,0.0,0.0,0.0,0.0,0.0,0.0,0.0,0.0,0.0,0.0,3.8595,4.4487,4.7547,4.7559,4.4421,4.0633,3.6217,0.0,0.0,0.0,0.0,0.0,0.0,0.0,0.0,0.0,0.0,0.0,0.0,0.0,0.0,0.0,0.0,0.0,0.0,0.0,0.0,0.0,0.0,0.0,0.0,0.0,0.0,0.0,0.0,0.0,0.0,0.0,0.0,0.0,0.0,0.0,0.0,0.0,0.0,0.0,0.0,0.0,0.0,0.0,0.0,0.0,0.0,0.0,0.0,0.0,0.0,0.0,0.0,0.0,0.0,0.0,0.0,0.0,0.0,0.0,0.0,0.0,0.0,0.0,0.0,0.0,0.0,0.0,0.0,0.0,0.0,0.0,0.0,0.0,0.0,0.0,0.0,0.0,0.0,0.0,0.0,0.0,0.0,0.0,0.0,0.0,0.0,0.0,0.0,0.0,0.0,0.0,0.0,0.0,0.0,0.0,0.0,0.0,0.0,0.0,0.0,0.0,0.0,0.0,0.0,0.0,0.0,0.0,0.0,4.2148,4.7146,5.1829,5.3569,5.204,4.566,3.9699,0.0,0.0,0.0,0.0,0.0,0.0,0.0,0.0,0.0,0.0,0.0,0.0,0.0,0.0,0.0,0.0,0.0,0.0,0.0,0.0,0.0,0.0,0.0,0.0,0.0,0.0,0.0,0.0,0.0,0.0,0.0,0.0,0.0,0.0,0.0,0.0,0.0,0.0,0.0,0.0,0.0,0.0,0.0,0.0,0.0,0.0,0.0,0.0,0.0,0.0,0.0,0.0,0.0,0.0,0.0,0.0,0.0,0.0,0.0,0.0,0.0,0.0,0.0,0.0,0.0,0.0,0.0,0.0,0.0,0.0,0.0,0.0,0.0,0.0,0.0,0.0,0.0,0.0,0.0,0.0,0.0,0.0,0.0,0.0,0.0,0.0,0.0,0.0,0.0,0.0,0.0,0.0,0.0,0.0,0.0,0.0,0.0,0.0,0.0,0.0,0.0,0.0,0.0,0.0,0.0,0.0,0.0,0.0,4.4932,5.0483,5.3566,5.525,5.5517,4.9633,4.3443,0.0,0.0,0.0,0.0,0.0,0.0,0.0,0.0,0.0,0.0,0.0,0.0,0.0,0.0,0.0,0.0,0.0,0.0,0.0,0.0,0.0,0.0,0.0,0.0,0.0,0.0,0.0,0.0,0.0,0.0,0.0,0.0,0.0,0.0,0.0,0.0,0.0,0.0,0.0,0.0,0.0,0.0,0.0,0.0,0.0,0.0,0.0,0.0,2.3579,0.0,0.0,0.0,0.0,0.0,0.0,0.0,0.0,0.0,0.0,0.0,0.0,0.0,0.0,0.0,0.0,0.0,0.0,0.0,0.0,0.0,0.0,0.0,0.0,0.0,0.0,0.0,0.0,0.0,0.0,0.0,0.0,0.0,0.0,0.0,0.0,0.0,0.0,0.0,0.0,0.0,0.0,0.0,0.0,0.0,0.0,0.0,0.0,0.0,0.0,0.0,0.0,0.0,0.0,0.0,0.0,0.0,0.0,0.0,4.7645,5.3253,5.5874,5.7351,5.7619,5.3607,4.7646,0.0,0.0,0.0,0.0,0.0,0.0,0.0,0.0,0.0,0.0,0.0,0.0,0.0,0.0,0.0,0.0,0.0,0.0,0.0,0.0,0.0,0.0,0.0,0.0,0.0,0.0,0.0,0.0,0.0,0.0,0.0,0.0,0.0,0.0,0.0,0.0,0.0,0.0,0.0,0.0,0.0,0.0,0.0,0.0,0.0,0.0,0.0,0.0,0.0,0.0,0.0,0.0,0.0,0.0,0.0,0.0,0.0,0.0,0.0,0.0,0.0,0.0,0.0,0.0,0.0,0.0,0.0,0.0,0.0,0.0,0.0,0.0,0.0,0.0,0.0,0.0,0.0,0.0,0.0,0.0,0.0,0.0,0.0,0.0,0.0,0.0,0.0,0.0,0.0,0.0,0.0,0.0,0.0,0.0,0.0,0.0,0.0,0.0,0.0,0.0,0.0,0.0,0.0,0.0,0.0,0.0,0.0,4.4415,5.0028,5.5593,5.8104,5.9262,5.9071,5.6587,5.1085,0.0,0.0,0.0,0.0,0.0,0.0,0.0,0.0,0.0,0.0,0.0,0.0,0.0,0.0,0.0,0.0,0.0,0.0,0.0,0.0,0.0,0.0,0.0,0.0,0.0,0.0,0.0,0.0,0.0,0.0,0.0,0.0,0.0,0.0,0.0,0.0,0.0,0.0,0.0,2.2648,2.587,0.0,0.0,0.0,0.0,0.0,0.0,0.0,0.0,2.7562,0.0,0.0,0.0,0.0,0.0,0.0,0.0,0.0,0.0,0.0,0.0,0.0,0.0,0.0,0.0,0.0,0.0,0.0,0.0,0.0,0.0,0.0,0.0,0.0,0.0,0.0,0.0,0.0,0.0,0.0,0.0,0.0,0.0,0.0,0.0,0.0,0.0,0.0,0.0,0.0,0.0,0.0,0.0,0.0,0.0,0.0,0.0,0.0,0.0,0.0,0.0,0.0,0.0,0.0,0.0,0.0,4.2198,4.6639,5.1694,5.734,5.9224,5.9835,5.9071,5.6014,5.1276,4.4934,0.0,0.0,0.0,0.0,0.0,0.0,0.0,0.0,0.0,0.0,0.0,0.0,0.0,0.0,0.0,0.0,0.0,0.0,0.0,0.0,0.0,0.0,0.0,0.0,0.0,0.0,0.0,0.0,0.0,0.0,0.0,0.0,0.0,0.0,0.0,0.0,0.0,0.0,0.0,3.096,3.2383,0.0,0.0,0.0,0.0,0.0,0.0,0.0,0.0,2.9491,0.0,0.0,0.0,0.0,0.0,0.0,0.0,0.0,0.0,0.0,0.0,0.0,0.0,0.0,0.0,0.0,0.0,0.0,0.0,0.0,0.0,0.0,0.0,0.0,0.0,0.0,0.0,0.0,0.0,0.0,0.0,0.0,0.0,0.0,0.0,0.0,0.0,0.0,0.0,0.0,0.0,0.0,0.0,0.0,0.0,0.0,0.0,0.0,0.0,0.0,0.0,0.0,0.0,0.0,0.0,4.2965,4.9298,5.4695,5.9033,6.0408,6.0828,6.0332,5.632,5.1544,0.0,0.0,0.0,0.0,0.0,0.0,0.0,0.0,0.0,0.0,0.0,0.0,0.0,0.0,0.0,0.0,0.0,0.0,0.0,0.0,0.0,0.0,0.0,0.0,0.0,0.0,0.0,0.0,0.0,0.0,0.0,0.0,0.0,0.0,0.0,0.0,0.0,0.0,0.0,0.0,3.3316,3.5023,3.5973,0.0,0.0,0.0,0.0,0.0,0.0,3.3665,3.2689,0.0,0.0,0.0,0.0,0.0,0.0,0.0,0.0,0.0,0.0,0.0,0.0,0.0,0.0,0.0,0.0,0.0,0.0,0.0,0.0,0.0,0.0,0.0,0.0,0.0,0.0,0.0,0.0,0.0,0.0,0.0,0.0,0.0,0.0,0.0,0.0,0.0,0.0,0.0,0.0,0.0,0.0,0.0,0.0,0.0,0.0,0.0,0.0,0.0,0.0,0.0,0.0,0.0,0.0,0.0,4.3821,5.1547,5.7186,6.0512,6.144,6.1784,6.1516,5.6702,5.162,0.0,0.0,0.0,0.0,0.0,0.0,0.0,0.0,0.0,0.0,0.0,0.0,0.0,0.0,0.0,0.0,0.0,0.0,0.0,0.0,0.0,0.0,0.0,0.0,0.0,0.0,0.0,0.0,0.0,0.0,0.0,0.0,0.0,0.0,0.0,0.0,0.0,0.0,0.0,0.0,0.0,3.7776,3.9149,3.8,0.0,0.0,0.0,0.0,3.7458,3.7851,0.0,0.0,0.0,0.0,0.0,0.0,0.0,0.0,0.0,0.0,0.0,0.0,0.0,0.0,0.0,0.0,0.0,0.0,0.0,0.0,0.0,0.0,0.0,0.0,0.0,0.0,0.0,0.0,0.0,0.0,0.0,0.0,0.0,0.0,0.0,0.0,0.0,0.0,0.0,0.0,0.0,0.0,0.0,0.0,0.0,0.0,0.0,0.0,0.0,0.0,0.0,0.0,0.0,0.0,0.0,0.0,4.6397,5.255,5.7589,6.1277,6.228,6.2395,6.1593,5.674,5.1353,0.0,0.0,0.0,0.0,0.0,0.0,0.0,0.0,0.0,0.0,0.0,0.0,0.0,0.0,0.0,0.0,0.0,0.0,0.0,0.0,0.0,0.0,0.0,0.0,0.0,0.0,0.0,0.0,0.0,0.0,0.0,0.0,0.0,0.0,0.0,0.0,0.0,0.0,0.0,0.0,0.0,4.1722,4.1956,4.1114,4.0147,0.0,0.0,0.0,4.2451,4.4089,0.0,0.0,0.0,0.0,0.0,0.0,0.0,0.0,0.0,0.0,0.0,0.0,0.0,0.0,0.0,0.0,0.0,0.0,0.0,0.0,0.0,0.0,0.0,0.0,0.0,0.0,0.0,0.0,0.0,0.0,0.0,0.0,0.0,0.0,0.0,0.0,0.0,0.0,0.0,0.0,0.0,0.0,0.0,0.0,0.0,0.0,0.0,0.0,0.0,0.0,0.0,0.0,0.0,0.0,0.0,0.0,4.6954,5.4531,5.9728,6.2242,6.307,6.3047,6.2201,5.6376,5.071,0.0,0.0,0.0,0.0,0.0,0.0,0.0,0.0,0.0,0.0,0.0,0.0,0.0,0.0,0.0,0.0,0.0,0.0,0.0,0.0,0.0,0.0,0.0,0.0,0.0,0.0,0.0,0.0,0.0,0.0,0.0,0.0,0.0,0.0,0.0,0.0,0.0,0.0,0.0,0.0,0.0,0.0,4.5234,4.6261,0.0,0.0,0.0,4.588,4.651,0.0,0.0,0.0,0.0,0.0,0.0,0.0,0.0,0.0,0.0,0.0,0.0,0.0,0.0,0.0,0.0,0.0,0.0,0.0,0.0,0.0,0.0,0.0,0.0,0.0,0.0,0.0,0.0,0.0,0.0,0.0,0.0,0.0,0.0,0.0,0.0,0.0,0.0,0.0,0.0,0.0,0.0,0.0,0.0,0.0,0.0,0.0,0.0,0.0,0.0,0.0,0.0,0.0,0.0,0.0,0.0,0.0,4.7603,5.6186,6.1377,6.2853,6.374,6.3632,6.2292,5.6635,0.0,0.0,0.0,0.0,0.0,0.0,0.0,0.0,0.0,0.0,0.0,0.0,0.0,0.0,0.0,0.0,0.0,0.0,0.0,0.0,0.0,0.0,0.0,0.0,0.0,0.0,0.0,0.0,0.0,0.0,0.0,0.0,0.0,0.0,0.0,0.0,0.0,0.0,0.0,0.0,0.0,0.0,4.637,4.8279,5.0746,5.1691,0.0,0.0,5.1418,5.0568,5.189,5.0711,0.0,0.0,0.0,0.0,0.0,0.0,0.0,0.0,0.0,0.0,0.0,0.0,0.0,0.0,0.0,0.0,0.0,0.0,0.0,0.0,0.0,0.0,0.0,0.0,0.0,0.0,0.0,0.0,0.0,0.0,0.0,0.0,0.0,0.0,0.0,0.0,0.0,0.0,0.0,0.0,0.0,0.0,0.0,0.0,0.0,0.0,0.0,0.0,0.0,0.0,0.0,0.0,0.0,0.0,0.0,4.928,5.6849,6.1464,6.2892,6.4305,6.393,6.1678,5.8025,5.3008,0.0,0.0,0.0,0.0,0.0,0.0,0.0,0.0,0.0,0.0,0.0,0.0,0.0,0.0,0.0,0.0,0.0,0.0,0.0,0.0,0.0,0.0,0.0,0.0,0.0,0.0,0.0,0.0,0.0,0.0,0.0,0.0,0.0,0.0,0.0,0.0,0.0,0.0,0.0,0.0,0.0,4.8322,5.0816,5.3362,5.4966,0.0,0.0,5.5864,5.5005,5.8246,5.727,4.6573,0.0,0.0,0.0,0.0,0.0,0.0,0.0,0.0,0.0,0.0,0.0,0.0,0.0,0.0,0.0,0.0,0.0,0.0,0.0,0.0,0.0,0.0,0.0,0.0,0.0,0.0,0.0,0.0,0.0,0.0,0.0,0.0,0.0,0.0,0.0,0.0,0.0,0.0,0.0,0.0,0.0,0.0,0.0,0.0,0.0,0.0,0.0,0.0,0.0,0.0,0.0,0.0,0.0,4.4821,4.9412,5.6985,6.144,6.2658,6.3193,6.2981,6.1928,5.768,5.2741,0.0,0.0,0.0,0.0,0.0,0.0,0.0,0.0,0.0,0.0,0.0,0.0,0.0,0.0,0.0,0.0,0.0,0.0,0.0,0.0,0.0,0.0,0.0,0.0,0.0,0.0,0.0,0.0,2.4007,2.4241,2.3536,0.0,0.0,0.0,0.0,0.0,0.0,0.0,0.0,0.0,0.0,5.1815,5.4914,5.846,0.0,0.0,5.9651,5.9881,5.7952,5.9017,5.7382,4.944,4.5941,0.0,0.0,0.0,0.0,0.0,0.0,0.0,0.0,0.0,0.0,0.0,0.0,0.0,0.0,0.0,0.0,0.0,0.0,0.0,0.0,0.0,0.0,0.0,0.0,0.0,0.0,0.0,0.0,0.0,0.0,0.0,0.0,0.0,0.0,0.0,0.0,0.0,0.0,0.0,0.0,0.0,0.0,0.0,0.0,0.0,0.0,0.0,0.0,0.0,0.0,0.0,0.0,4.4986,4.9389,5.6734,6.1094,6.2223,6.2563,6.2318,6.1382,5.7856,5.3602,0.0,0.0,0.0,0.0,0.0,0.0,0.0,0.0,0.0,0.0,0.0,0.0,0.0,0.0,0.0,0.0,0.0,0.0,0.0,0.0,0.0,0.0,0.0,0.0,0.0,0.0,0.0,0.0,2.6854,2.662,2.4631,0.0,0.0,0.0,0.0,0.0,0.0,0.0,0.0,0.0,0.0,5.4515,5.7733,6.14,6.3006,6.0739,6.1871,6.1978,5.9156,5.9123,5.7333,5.1113,0.0,0.0,0.0,0.0,0.0,0.0,0.0,0.0,0.0,0.0,0.0,0.0,0.0,0.0,0.0,0.0,0.0,0.0,0.0,0.0,0.0,0.0,0.0,0.0,0.0,0.0,0.0,0.0,0.0,0.0,0.0,0.0,0.0,0.0,0.0,0.0,0.0,0.0,0.0,0.0,0.0,0.0,0.0,0.0,0.0,0.0,0.0,0.0,0.0,0.0,0.0,0.0,0.0,0.0,4.9389,5.6194,6.0248,6.1424,6.2829,6.2387,6.0113,5.9019,5.6201,5.1254,0.0,0.0,0.0,0.0,0.0,0.0,0.0,0.0,0.0,0.0,0.0,0.0,0.0,0.0,0.0,0.0,0.0,0.0,0.0,0.0,0.0,0.0,0.0,0.0,0.0,0.0,2.6856,2.7754,2.7249,0.0,0.0,0.0,0.0,0.0,0.0,0.0,0.0,0.0,0.0,5.0816,5.6082,5.8647,6.1236,6.2382,6.07,6.1849,6.1765,5.8431,5.9195,5.7974,0.0,0.0,0.0,0.0,0.0,0.0,0.0,0.0,0.0,0.0,0.0,0.0,0.0,0.0,0.0,0.0,0.0,0.0,0.0,0.0,0.0,0.0,0.0,0.0,0.0,0.0,0.0,0.0,2.7148,0.0,0.0,0.0,0.0,0.0,0.0,0.0,0.0,0.0,0.0,0.0,3.87,3.9567,0.0,0.0,0.0,0.0,0.0,0.0,0.0,0.0,0.0,0.0,0.0,0.0,4.5763,5.0294,5.6425,6.0392,6.1988,6.1966,6.1681,6.1166,5.9917,5.6229,4.9822,0.0,0.0,0.0,0.0,0.0,0.0,0.0,0.0,0.0,0.0,0.0,0.0,0.0,0.0,0.0,0.0,0.0,0.0,0.0,0.0,0.0,0.0,0.0,0.0,0.0,2.7674,0.0,0.0,0.0,0.0,0.0,0.0,0.0,0.0,0.0,0.0,0.0,4.2993,4.9207,5.3982,5.78,6.037,6.2426,6.3514,0.0,0.0,0.0,0.0,0.0,0.0,0.0,0.0,0.0,0.0,0.0,0.0,0.0,0.0,4.6583,3.9445,3.7456,3.6481,0.0,0.0,0.0,0.0,0.0,0.0,0.0,0.0,0.0,0.0,0.0,0.0,0.0,0.0,0.0,0.0,0.0,3.1469,0.0,0.0,0.0,0.0,0.0,0.0,0.0,0.0,4.0394,4.2851,4.4691,4.5553,4.5974,0.0,4.425,4.0888,0.0,0.0,0.0,0.0,0.0,0.0,0.0,0.0,4.6773,5.0774,5.6599,6.0367,6.1852,6.1667,6.1495,6.1394,5.996,5.6381,5.0316,4.6336,4.2106,0.0,0.0,0.0,0.0,0.0,0.0,0.0,0.0,0.0,0.0,0.0,0.0,0.0,0.0,0.0,0.0,0.0,0.0,0.0,0.0,0.0,0.0,0.0,3.0716,0.0,0.0,0.0,0.0,0.0,0.0,0.0,0.0,0.0,3.8567,4.2396,4.7396,5.3572,5.7057,5.9643,6.134,0.0,0.0,0.0,0.0,0.0,0.0,0.0,5.8919,5.6057,5.5147,5.4534,5.3688,5.4797,5.5942,5.6528,0.0,0.0,4.5841,4.3891,4.3034,4.1553,4.405,4.651,4.6786,4.8465,5.0183,0.0,0.0,0.0,0.0,0.0,0.0,0.0,0.0,3.7199,3.6635,0.0,3.5605,0.0,0.0,0.0,0.0,0.0,0.0,0.0,0.0,4.8876,5.1238,5.055,5.1391,5.1811,0.0,5.0099,4.8443,4.657,4.0454,0.0,0.0,0.0,0.0,0.0,0.0,4.689,5.0983,5.6676,6.0098,6.1169,6.186,6.1725,6.0755,5.9383,5.6846,5.3117,5.2094,4.864,4.2106,0.0,0.0,0.0,0.0,0.0,0.0,0.0,0.0,0.0,0.0,0.0,0.0,0.0,0.0,0.0,0.0,0.0,0.0,0.0,0.0,0.0,3.3688,0.0,0.0,0.0,0.0,0.0,0.0,0.0,0.0,0.0,0.0,4.4263,4.7783,5.2124,5.7083,0.0,0.0,0.0,0.0,6.4414,6.2055,6.2997,6.3208,6.0877,6.1117,6.1017,5.9387,0.0,0.0,5.8236,5.8866,5.9529,5.9451,5.9568,5.805,5.3951,5.2784,5.1808,4.9579,5.1648,5.3756,5.3444,5.5049,5.6801,4.4962,0.0,0.0,0.0,0.0,4.1067,4.3406,4.6512,4.6205,4.5255,4.389,4.2579,0.0,0.0,0.0,0.0,0.0,0.0,4.6051,4.9188,5.2064,5.3874,5.483,5.6282,5.6664,5.6052,5.497,5.3924,5.2847,5.0462,4.4893,3.6566,0.0,0.0,0.0,0.0,4.9509,5.3409,5.7426,6.0265,6.1932,6.1492,6.1617,6.2332,6.0478,5.9203,5.8666,5.6425,5.3187,4.8907,4.5468,0.0,0.0,0.0,0.0,0.0,0.0,0.0,0.0,0.0,0.0,0.0,0.0,0.0,0.0,0.0,0.0,0.0,0.0,0.0,3.3462,3.4381,3.4491,0.0,0.0,0.0,0.0,0.0,0.0,0.0,0.0,0.0,5.4142,5.4663,5.5893,0.0,0.0,6.2157,6.1576,6.369,6.5012,6.4337,0.0,0.0,0.0,6.3909,6.3118,6.264,6.3609,6.453,6.4948,6.5714,6.6315,6.6323,6.5861,6.4815,6.3003,5.9183,5.6333,5.5552,5.7035,5.9104,6.0627,6.1642,6.2618,5.2944,4.8418,4.5242,4.4614,4.5799,4.6816,4.912,5.2131,5.1516,5.0875,5.0193,4.8796,4.6289,4.3065,4.2408,0.0,0.0,0.0,5.0428,5.4167,5.5479,5.6969,5.8574,5.9606,5.9835,5.93,5.8154,5.734,5.6894,5.5844,5.1757,0.0,0.0,0.0,4.4589,4.8253,5.1903,5.547,5.8341,6.0589,6.2277,6.1917,6.1996,6.2519,6.1725,6.1098,6.061,5.9663,5.7237,5.3301,5.0474,4.5851,0.0,0.0,0.0,0.0,0.0,0.0,0.0,0.0,0.0,0.0,0.0,2.754,0.0,0.0,0.0,0.0,3.2154,3.4359,3.6857,3.7698,0.0,0.0,0.0,0.0,0.0,0.0,0.0,4.6417,5.0711,5.5274,5.9943,6.0566,6.1227,6.3097,6.356,6.3673,6.3508,0.0,6.6684,6.6334,6.6606,6.698,6.7441,6.6703,6.6042,6.6042,6.6917,6.7762,6.8288,6.8872,6.9184,6.9197,6.8873,6.839,6.7865,6.4755,6.1993,6.1174,6.254,6.4375,6.5624,6.6092,6.6795,5.9178,5.8087,5.2983,5.0795,5.0798,5.2243,5.3718,5.4981,5.4224,5.4138,5.4623,5.393,5.2296,5.0147,4.9657,0.0,0.0,5.2968,5.5109,5.823,5.9033,6.0217,6.1669,6.1784,6.1784,6.1631,6.0064,5.9327,5.9305,5.7824,5.6345,5.4814,5.1857,5.0313,5.0273,5.1865,5.4245,5.735,5.9427,6.1065,6.2213,6.2862,6.2782,6.1956,6.2932,6.2425,6.0302,6.1759,6.0561,5.6052,5.4065,5.0474,4.4781,0.0,0.0,0.0,0.0,0.0,0.0,0.0,0.0,0.0,0.0,0.0,0.0,0.0,0.0,0.0,3.8249,0.0,4.1349,4.2619,0.0,0.0,0.0,4.205,4.2899,4.622,0.0,5.1726,0.0,0.0,0.0,0.0,6.7197,6.8253,6.6825,6.5895,6.6532,6.8163,6.9072,6.8296,6.8995,6.9616,6.9694,6.9578,6.95,6.9578,6.9616,6.9716,6.9733,6.9745,6.9678,6.9835,6.9704,6.9779,6.974,6.9621,6.9093,6.6717,6.781,6.902,6.8435,6.8864,6.9528,6.2069,6.1731,5.9814,5.8027,5.6436,5.6026,5.6894,5.8457,5.7435,5.6732,5.6284,5.5457,5.4468,5.3497,5.4124,5.5057,5.6196,5.721,5.8727,6.0714,6.1593,6.2204,6.2624,6.3274,6.3236,6.2548,6.1516,6.1019,6.0971,5.9408,5.8809,5.8949,5.7174,5.5376,5.3746,5.5288,5.7395,5.9978,6.075,6.1413,6.1958,6.3272,6.3608,6.282,6.2669,6.2652,6.2652,6.1568,6.0446,5.9224,5.6969,5.3569,4.9022,4.3214,0.0,0.0,0.0,0.0,0.0,0.0,0.0,0.0,0.0,3.3751,3.2421,0.0,3.6281,0.0,4.001,4.2752,0.0,4.523,0.0,0.0,0.0,4.8943,4.9897,5.3195,5.5855,5.7113,6.0315,6.331,6.5535,6.6897,6.8717,7.1329,7.0222,6.8723,6.779,7.0121,7.1675,7.1054,7.2452,7.3695,7.2996,7.2996,7.2918,7.3013,7.2974,7.3029,7.2983,7.3029,7.3029,7.308,7.312,7.313,7.3124,7.3267,7.3048,7.2333,7.0855,6.9567,6.9996,7.0777,7.1558,6.3646,6.3571,6.2745,6.2071,6.1466,5.9815,5.9927,6.1164,6.0191,5.9703,5.9591,5.8727,5.8196,5.7993,5.8608,5.9222,5.987,6.0475,6.1516,6.2777,6.3236,6.3656,6.4,6.4114,6.3962,6.3465,6.2586,6.2204,6.2128,6.1333,6.113,6.159,6.0873,5.9917,5.872,5.8392,5.9436,6.1834,6.2109,6.2291,6.2446,6.3687,6.3839,6.2557,6.2438,6.2264,6.1932,6.0235,5.9109,5.8689,5.6625,5.3913,5.0436,4.5774,4.1304,0.0,0.0,0.0,0.0,0.0,0.0,0.0,0.0,0.0,0.0,0.0,4.0946,0.0,0.0,0.0,4.8905,4.9976,5.0808,5.1392,5.3437,5.5188,5.62,5.8831,6.1095,6.2379,6.457,6.6739,6.8709,6.9723,7.1042,7.326,7.3006,7.2142,7.1054,7.2375,7.3307,7.2918,7.4006,7.4783,7.4239,7.42,7.42,7.42,7.4178,7.4178,7.42,7.42,7.42,7.4266,7.4257,7.4353,7.4388,7.447,7.4507,7.425,7.3029,7.2026,7.23,7.2768,7.3315,6.4622,6.4547,6.3871,6.4397,6.5486,6.3345,6.282,6.3345,6.2369,6.2332,6.2895,6.2106,6.1921,6.2106,6.2318,6.2487,6.2611,6.2803,6.335,6.4191,6.4191,6.4611,6.5375,6.4688,6.4344,6.4305,6.3465,6.3045,6.3083,6.2873,6.2891,6.2968,6.3015,6.3253,6.3531,6.1219,6.1069,6.3131,6.3383,6.3421,6.327,6.403,6.3615,6.2108,6.2129,6.1419,5.9728,5.8406,5.7286,5.6434,5.4944,5.3148,5.1009,4.7685,4.4131,0.0,3.7879,0.0,0.0,0.0,0.0,0.0,0.0,0.0,0.0,4.4471,4.6229,4.7713,5.0748,5.2636,5.2717,5.5552,5.7105,5.6492,5.8896,6.0971,6.1795,6.3585,6.5416,6.6946,6.8,6.9458,7.136,7.2624,7.351,7.425,7.4878,7.4939,7.4589,7.4356,7.4356,7.4356,7.4472,7.4822,7.4706,7.4589,7.4628,7.4572,7.4649,7.4511,7.4628,7.4611,7.4572,7.4589,7.4709,7.4714,7.4651,7.4778,7.4879,7.4927,7.4811,7.4603,7.4369,7.4447,7.4642,6.6312,6.6312,6.6162,6.6274,6.65,6.6049,6.5523,6.4923,6.3496,6.2557,6.2031,6.1881,6.1921,6.2106,6.2318,6.2449,6.2611,6.2833,6.3388,6.4191,6.4191,6.4611,6.5375,6.5261,6.5184,6.5146,6.4344,6.3962,6.3923,6.2577,6.2233,6.2882,6.2261,6.2746,0.0,0.0,0.0,0.0,6.4247,6.4445,6.4099,6.361,6.3275,6.2975,0.0,0.0,5.8981,5.7511,5.6366,5.567,5.4639,0.0,0.0,0.0,0.0,0.0,0.0,0.0,0.0,0.0,0.0,0.0,5.0067,4.9239,4.6313,4.87,5.1145,5.27,5.471,5.6391,5.7594,5.9484,6.0659,6.0691,6.4152,6.6266,6.5502,6.7528,6.9089,6.8931,7.0245,7.1291,7.1817,7.3094,7.435,7.5089,7.5366,7.5716,7.6143,7.5638,7.5249,7.5288,7.5716,7.6182,7.6221,7.6143,7.6065,7.6221,7.6221,7.6182,7.6143,7.6182,7.6182,7.6143,7.6288,7.6285,7.6339,7.6448,7.6427,7.6575,7.6588,7.6164,7.4837,7.5071,7.554,6.68,0.0,6.68,0.0,0.0,0.0,6.7363,6.7251,6.6049,6.5261,6.4847,6.4434,6.4326,6.4444,6.4705,6.4882,6.4913,6.5213,6.5605,6.6025,6.6025,6.6216,6.6636,6.6636,6.6636,6.6598,6.6216,6.6025,6.5948,6.4726,6.4344,6.4764,6.4001,6.4411,6.5897,6.6089,6.5528,6.4244,6.4554,6.4596,6.4324,6.399,6.3465,6.271,0.0,0.0,0.0,0.0,0.0,0.0,0.0,0.0,0.0,0.0,0.0,5.091,4.9694,4.9939,5.1988,5.2585,5.391,5.6422,5.7826,5.6635,5.2099,5.4012,5.6113,5.7736,5.9077,6.048,6.2051,6.3713,6.4566,6.4356,6.7036,6.8737,6.8411,6.9784,7.1058,7.1423,7.2424,7.3163,7.3103,7.4133,7.5035,7.5478,7.5871,7.6259,7.657,7.6376,7.6104,7.6104,7.6415,7.6687,7.6687,7.6687,7.6726,7.6687,7.6687,7.6687,7.6687,7.6687,7.6687,7.6687,7.6721,7.6786,7.6819,7.6905,7.6965,7.7098,7.7433,7.7492,7.6555,7.6438,7.6438,6.7363,6.7213,6.7363,6.7739,6.8227,6.8377,6.9015,6.9804,0.0,0.0,0.0,6.7063,6.6804,6.6927,6.7165,6.7351,6.7423,6.773,6.7897,6.7897,6.7897,6.7897,6.7897,6.7897,6.7897,6.7897,6.7897,6.7897,6.7859,6.7095,6.6713,6.6667,6.6183,6.641,6.7306,6.7924,6.7246,6.5345,6.5124,6.4896,6.4775,6.4783,6.4106,6.2559,6.189,6.0791,5.9147,5.694,5.5805,5.5797,5.4383,5.367,5.3913,5.3913,5.4039,5.4355,5.5033,5.6549,5.906,5.9835,6.1249,6.3618,6.442,6.2949,5.8437,5.9587,6.1103,6.248,6.3322,6.4403,6.5941,6.7429,6.8157,6.7649,6.9359,7.0641,7.0699,7.1665,7.2716,7.3445,7.4125,7.4675,7.4611,7.5287,7.5876,7.6022,7.657,7.7036,7.7075,7.6881,7.6609,7.6648,7.6842,7.6998,7.6959,7.7192,7.7153,7.7308,7.727,7.7153,7.7153,7.7153,7.7153,7.7308,7.7153,7.7299,7.7297,7.7479,7.7414,7.7463,7.8089,7.8624,7.8546,7.8077,7.7609,6.9504,6.894,6.9654,6.9616,6.9128,6.9842,7.1006,7.2094,6.9278,6.7626,6.695,6.6838,6.6967,6.724,6.7277,0.0,6.7833,6.7897,6.7897,0.0,6.7897,6.7897,6.7897,6.7897,6.7897,6.7897,6.7897,6.7897,6.7821,6.7095,6.6713,6.6743,6.6758,6.7149,6.7793,6.8087,6.7722,6.6749,6.6671,6.6591,6.6466,6.5875,6.5162,6.4181,6.2924,6.1533,5.9992,5.8957,5.813,5.7581,5.7286,5.7477,5.8192,5.823,5.8857,6.02,6.0502,6.1678,6.41,6.4466,6.5299,6.698,6.7324,6.617,6.3494,6.4679,6.5757,6.5987,6.6667,6.7584,6.861,6.9482,7.0286,7.0916,7.2688,7.3724,7.32,7.4087,7.4622,7.4351,7.4977,7.548,7.5547,7.6124,7.6821,7.7442,7.7697,7.8046,7.8396,7.7619,7.6803,7.6803,7.7347,7.7775,7.7891,7.8474,7.8707,7.8958,7.8841,7.8707,7.8707,7.8707,7.8707,7.8862,7.8759,7.8878,7.8988,7.9177,7.9071,7.9096,7.9353,7.9515,7.9522,7.9405,7.9326,7.0255,6.9954,7.033,6.9992,6.9278,7.0142,7.0893,7.1456,7.0029,6.9391,6.9353,6.8527,6.8244,6.8489,6.8603,6.8787,6.9103,6.9202,6.9273,6.9234,6.9273,6.9234,6.9273,6.9234,6.9234,6.9273,6.9273,6.9273,6.9158,6.7973,6.7362,6.7393,6.7664,6.8219,6.891,6.925,6.9113,6.8489,6.7503,6.693,6.6842,6.663,6.6144,6.5388,6.4807,6.4063,6.304,6.2102,6.1522,6.1325,6.1229,6.1582,6.2471,6.2968,6.3561,6.4336,6.4785,6.5536,6.6695,6.8056,6.9158,6.9922,7.1259,7.1183,6.912,6.7935,6.7744,6.8623,6.9037,6.9795,7.1089,7.1598,7.1952,7.2376,7.3455,7.4022,7.3995,7.487,7.5445,7.5278,7.5824,7.6481,7.6897,7.7237,7.7736,7.853,7.8707,7.8883,7.9251,7.8668,7.8124,7.8163,7.8474,7.8668,7.8707,7.9018,7.9251,7.929,7.929,7.929,7.929,7.9328,7.9328,7.929,7.9364,7.9376,7.9453,7.9455,7.9517,7.9674,8.0072,8.0275,8.0413,8.0732,8.0927,7.093,7.078,7.0968,7.063,7.0104,7.0743,7.1156,7.1306,7.1156,7.1313,7.1507,7.0003,6.9378,6.9582,6.9778,7.0001,7.0179,7.0315,7.0419,7.0419,7.0419,7.0419,7.0419,7.0419,7.0419,7.0419,7.0419,7.0419,7.0228,6.8699,6.7959,6.8071,6.836,6.9022,6.9976,7.0277,7.0157,6.9664,6.8258,6.7454,6.7368,6.7575,6.7392,6.6672,6.6882,6.6668,6.5925,6.5175,6.487,6.5031,6.4901,6.5137,6.591,6.6598,6.7049,6.7301,6.8005,6.882,6.9666,7.1417,7.2559,7.2597,7.4354,7.4775,7.3017,7.061,6.954,7.0763,7.0981,7.1593,7.2855,7.3208,7.333,7.3556,7.4166,7.4731,7.479,7.5793,7.6556,7.6625,7.7089,7.7741,7.8192,7.8348,7.8647,7.9385,7.9756,7.9854,7.9872,7.9872,7.9872,7.9834,7.9717,7.96,7.96,7.9834,7.995,7.9911,7.995,8.0067,8.0028,7.995,7.9911,7.9989,7.9989,8.0081,8.003,8.0046,8.0156,8.0378,8.0835,8.1195,8.1311,8.1708,8.2059,7.2245,7.1757,7.232,7.2658,7.2432,7.2583,7.3033,7.3596,7.2996,7.2416,7.1874,7.0177,6.962,6.9816,6.9963,7.0179,7.0386,7.0386,7.0419,7.0419,7.0419,7.0419,7.0419,7.0419,7.0419,7.0419,7.0419,7.0381,7.0266,6.8699,6.81,6.841,6.8482,6.9205,7.0425,7.0489,7.0124,6.9542,6.9181,6.8978,6.8978,6.9355,6.9057,6.8107,6.8662,6.845,6.7474,6.7458,6.7553,6.7553,6.7553,6.7591,6.7744,6.7782,6.8203,6.8973,6.9769,7.1489,7.4316,7.5004,7.5004,7.5157,7.5348,7.4927,7.3361,7.2788,7.2559,7.2826,7.2826,7.3204,7.3968,7.4159,7.4542,7.5268,7.6293,7.7189,7.7271,7.8396,7.9142,7.9142,7.8935,7.9213,7.9148,7.923,7.9562,8.0339,8.0999,8.1349,8.1387,8.1387,8.1387,8.1387,8.0999,8.0533,8.0533,8.1154,8.1349,8.1504,8.1621,8.1465,8.1387,8.1426,8.1621,8.1154,8.1465,8.1424,8.1515,8.1758,8.1647,8.1527,8.1802,8.2054,8.2124,8.2215,8.2176,7.2695,7.247,7.277,7.262,7.2282,7.2695,7.3108,7.3371,7.3071,7.283,7.2633,7.1587,7.0725,7.0001,7.0073,7.0213,7.0419,7.0419,7.0419,7.0419,7.0419,7.0419,7.0419,7.0419,7.0419,7.0419,7.0419,7.0151,6.9578,6.847,6.8359,6.9191,6.9278,6.9808,7.0774,7.0556,7.0157,6.9662,6.9336,6.9246,6.9378,6.9661,6.9664,6.9436,6.9718,6.9737,6.9327,6.9355,6.9616,7.0113,7.0648,7.1145,7.1603,7.21,7.2291,7.2215,7.199,7.2559,7.3896,7.4469,7.4927,7.5462,7.6418,7.6647,7.6074,7.6418,7.6532,7.5921,7.508,7.4966,7.6185,7.645,7.6637,7.705,7.7737,7.827,7.8437,7.9057,7.9493,7.9481,7.9428,7.9625,8.0025,8.0533,8.096,8.1349,8.1737,8.1892,8.1892,8.1892,8.1892,8.1854,8.1582,8.1387,8.1387,8.1621,8.1892,8.1892,8.1892,8.1892,8.1892,8.1892,8.1892,8.1892,8.1892,8.1911,8.1813,8.1926,8.1959,8.2116,8.2249,8.2273,8.2293,8.2293,8.2293,7.3258,7.3258,7.3258,7.2921,7.247,7.2996,7.3258,7.3258,7.3258,7.3326,7.3322,7.2844,7.2016,7.0979,7.0636,7.0705,7.1068,7.0877,7.0877,7.1068,7.0877,7.0763,7.0724,7.0495,7.0419,7.0381,7.019,6.954,6.8585,6.7897,6.8215,6.9282,6.9432,6.9987,7.0888,7.0584,7.0228,6.9778,6.9378,6.9407,6.9884,7.008,7.0156,7.0147,7.0281,7.0419,7.0419,7.0648,7.103,7.1642,7.252,7.3246,7.3858,7.4469,7.4622,7.424,7.39,7.39,7.4316,7.5119,7.5844,7.6532,7.7717,7.8252,7.8175,7.8596,7.8748,7.8328,7.7258,7.7067,7.7753,7.8018,7.8014,7.8156,7.8632,7.9155,7.935,7.9812,8.0273,8.0182,8.0323,8.0287,8.0919,8.1426,8.1815,8.1854,8.1892,8.1892,8.1892,8.1892,8.1892,8.1892,8.1892,8.1892,8.1892,8.1892,8.1892,8.1892,8.1892,8.1892,8.1892,8.1892,8.1892,8.1892,8.1892,8.1892,8.1911,8.1929,8.1959,8.2104,8.2201,8.2287,8.2293,8.2293,8.2332,7.416,7.4122,7.4122,7.4047,7.4085,7.4085,7.4122,7.4047,7.4122,7.3942,7.3639,7.3566,7.3307,7.2792,7.2028,7.2062,7.2635,7.1947,7.1985,7.252,7.1947,7.1642,7.1565,7.0801,7.0457,7.0572,6.9922,6.8699,6.7133,6.6904,6.7372,6.8559,6.8776,6.9509,7.0786,7.07,7.0228,7.0005,6.9608,6.983,7.0837,7.1029,7.0763,7.0337,7.0358,7.0533,7.0572,7.1221,7.168,7.1718,7.2597,7.3055,7.3132,7.3208,7.3628,7.424,7.4934,7.6041,7.7411,7.825,7.8787,7.8978,7.8978,7.8901,7.8328,7.8366,7.8672,7.913,7.9054,7.8748,7.8252,7.829,7.8247,7.8382,7.9288,7.9951,8.0262,8.1165,8.1858,8.1858,8.1686,8.1593,8.1794,8.1854,8.1892,8.1892,8.1892,8.1892,8.1892,8.1892,8.1892,8.1892,8.1892,8.1892,8.1892,8.1892,8.1892,8.1892,8.1892,8.1931,8.1892,8.1892,8.1931,8.1931,8.1892,8.1892,8.1911,8.1943,8.2051,8.2151,8.2218,8.2287,8.2567,8.2411,8.2528,7.4197,7.4197,7.4197,7.4197,7.4197,7.4197,7.4197,7.4197,7.4197,7.4281,7.4399,7.4364,7.4448,7.4545,7.3705,7.2864,7.2253,7.2406,7.2406,7.2253,7.2406,7.252,7.252,7.2176,7.2062,7.1947,7.1183,6.9922,6.847,6.8279,6.8637,6.9321,6.9871,7.0681,7.1557,7.143,7.1259,7.1332,7.1127,7.1316,7.1824,7.2054,7.205,7.196,7.2028,7.2062,7.2062,7.2367,7.275,7.3246,7.359,7.4049,7.4507,7.4584,7.4966,7.573,7.6076,7.6764,7.7829,7.829,7.871,7.9245,7.9283,7.9436,7.9589,7.9589,7.9742,7.9971,8.0047,7.9856,7.9704,7.9589,7.973,8.0046,8.0531,8.1053,8.1384,8.1831,8.2151,8.2104,8.2007,8.1929,8.1989,8.1931,8.1892,8.1892,8.1931,8.1931,8.1892,8.1892,8.197,8.1931,8.1892,8.1892,8.1892,8.1892,8.1892,8.1892,8.1931,8.1931,8.1931,8.2009,8.2009,8.2242,8.2203,8.224,8.2353,8.2372,8.2416,8.2406,8.2507,8.2833,8.2957,8.3074,8.3386,7.4197,7.4197,7.4197,7.4197,7.4197,7.4197,7.4197,7.4197,7.4289,7.4476,7.4778,7.4899,7.5171,7.5351,7.4889,7.3858,7.2635,7.2864,7.2941,7.2902,7.2979,7.3132,7.3323,7.3132,7.2979,7.2864,7.21,7.0839,6.9387,6.9196,6.9587,7.0218,7.0797,7.1607,7.2444,7.2313,7.2248,7.2358,7.2157,7.223,7.2737,7.3003,7.3339,7.3709,7.3781,7.3514,7.3055,7.3246,7.3628,7.4163,7.4698,7.5386,7.6188,7.6303,7.6532,7.7067,7.7375,7.7793,7.8364,7.8634,7.9092,7.9589,7.9704,7.9971,8.043,8.0506,8.0506,8.0506,8.0506,8.0506,8.0506,8.0468,8.0761,8.135,8.1677,8.21,8.2663,8.2931,8.3009,8.2974,8.2893,8.2649,8.2359,8.232,8.2203,8.197,8.2087,8.2281,8.2281,8.2281,8.2281,8.2242,8.2048,8.197,8.1892,8.1892,8.1931,8.1931,8.2009,8.2009,8.2281,8.2281,8.2398,8.2592,8.2707,8.2742,8.2808,8.2857,8.2892,8.2942,8.3288,8.3738,8.3816,8.3894,8.4206,7.4197,7.4197,7.4197,7.4197,7.4197,7.4197,7.4197,7.4243,7.4387,7.453,7.4667,7.498,7.5055,7.5274,7.508,7.4775,7.3896,7.3246,7.3667,7.4698,7.3667,7.3437,7.3934,7.3284,7.2902,7.2826,7.21,7.0839,6.9387,6.9381,6.9932,7.0902,7.1169,7.2032,7.3549,7.3159,7.2887,7.2774,7.25,7.2768,7.3725,7.3914,7.4368,7.5233,7.531,7.4622,7.3208,7.3896,7.4316,7.4469,7.5806,7.7067,7.7678,7.7755,7.7944,7.8099,7.875,7.9245,7.9435,8.0046,8.0391,8.0468,8.0468,8.0391,8.0468,8.0506,8.0506,8.0506,8.0506,8.0506,8.0506,8.0506,8.0956,8.207,8.2396,8.2997,8.3961,8.4506,8.4607,8.4319,8.4181,8.397,8.3369,8.3097,8.2903,8.2514,8.2747,8.3116,8.3116,8.3136,8.3136,8.2903,8.2514,8.2203,8.2048,8.1931,8.1931,8.197,8.2126,8.2242,8.2903,8.3136,8.333,8.3524,8.3675,8.3726,8.3819,8.3878,8.4025,8.4138,8.4434,8.4558,8.4714,8.4831,8.4948,7.4197,7.4197,7.4197,7.4197,7.4197,7.4197,7.4197,7.4197,7.4387,7.4308,7.4061,7.4182,7.4139,7.3823,7.3781,7.3628,7.3361,7.3132,7.3284,7.3743,7.3781,7.3667,7.3399,7.3132,7.2673,7.2138,7.1833,7.1145,7.0228,7.0037,7.0669,7.1711,7.1916,7.2714,7.4109,7.3944,7.3892,7.4105,7.3982,7.4252,7.479,7.4938,7.5198,7.5462,7.5501,7.5195,7.4813,7.5501,7.5653,7.5157,7.6685,7.7717,7.7946,7.8022,7.829,7.8901,7.9666,8.043,8.0964,8.1193,8.1308,8.1269,8.0849,8.0544,8.0506,8.0544,8.0544,8.0506,8.0506,8.0506,8.0506,8.0506,8.1176,8.2361,8.2631,8.3273,8.4506,8.4701,8.4585,8.4498,8.4435,8.4262,8.4068,8.399,8.3854,8.3582,8.3796,8.3971,8.3971,8.399,8.3679,8.3213,8.2825,8.2475,8.2242,8.2164,8.2203,8.2398,8.2592,8.298,8.3602,8.4029,8.4223,8.4513,8.4643,8.4777,8.4813,8.4902,8.5075,8.4973,8.4902,8.5182,8.5573,8.5768,8.5846,7.4197,7.4197,7.4197,7.4197,7.4197,7.4197,7.4197,7.4243,7.4519,7.4241,7.3759,7.3915,7.3639,7.3132,7.2979,7.2979,7.2979,7.2979,7.2979,7.3132,7.3819,7.4049,7.3819,7.3552,7.3017,7.2329,7.2176,7.1718,7.0916,7.0948,7.136,7.2174,7.261,7.3304,7.4437,7.4643,7.4775,7.4903,7.4821,7.4977,7.5246,7.543,7.5501,7.5539,7.5768,7.5921,7.6036,7.7029,7.7144,7.6456,7.7564,7.8557,7.8863,7.8978,7.9207,7.9704,8.0163,8.0736,8.1232,8.1194,8.1308,8.1231,8.0773,8.0506,8.0582,8.0735,8.0964,8.1003,8.1308,8.1422,8.1461,8.1423,8.2054,8.3343,8.3328,8.3953,8.5169,8.5597,8.557,8.5555,8.5466,8.5233,8.4962,8.4884,8.4728,8.4553,8.469,8.4864,8.4864,8.4884,8.4456,8.3913,8.3369,8.298,8.2475,8.2398,8.2475,8.2825,8.3233,8.3835,8.4495,8.4806,8.5039,8.5633,8.593,8.6053,8.6102,8.6042,8.6059,8.5761,8.5612,8.6119,8.6588,8.6588,8.6666,7.4197,7.4197,7.4197,7.4197,7.4197,7.4197,7.4197,7.4243,7.4611,7.4323,7.3799,7.3873,7.3628,7.3017,7.2635,7.2559,7.2826,7.2826,7.2902,7.3208,7.3934,7.4545,7.466,7.3972,7.3246,7.2788,7.2635,7.2291,7.1565,7.1478,7.1927,7.2508,7.3214,7.3947,7.4639,7.5219,7.5455,7.5285,7.5165,7.5322,7.5656,7.5768,7.5768,7.5806,7.6418,7.6761,7.6991,7.8175,7.8443,7.7373,7.8481,7.9474,8.0238,8.0468,8.0353,8.0391,8.0506,8.0659,8.0659,8.1003,8.1003,8.1003,8.0964,8.0659,8.0964,8.1499,8.1843,8.1881,8.2378,8.2836,8.2837,8.2835,8.3504,8.4638,8.4591,8.5253,8.6792,8.7053,8.6841,8.6825,8.6904,8.6671,8.5855,8.5777,8.5428,8.5117,8.5389,8.57,8.5777,8.5777,8.5738,8.5117,8.4223,8.3757,8.333,8.3097,8.3252,8.3913,8.4262,8.4728,8.5311,8.5622,8.5855,8.6483,8.6845,8.7036,8.7126,8.687,8.6847,8.6776,8.69,8.7329,8.7329,8.7173,8.7134,7.4197,7.4197,7.4197,7.4197,7.4197,7.4197,7.4197,7.4243,7.4611,7.4323,7.3685,7.3377,7.2902,7.2024,7.1412,7.1107,7.1412,7.1871,7.2444,7.317,7.4507,7.4431,7.3628,7.2826,7.2367,7.21,7.1718,7.1298,7.1636,7.1375,7.1842,7.3266,7.3682,7.4308,7.5134,7.5961,7.615,7.6004,7.6414,7.65,7.6461,7.6991,7.7335,7.7373,7.7564,7.7678,7.7717,7.871,7.9474,7.9513,7.9245,7.9665,8.0391,8.0506,8.0506,8.0582,8.1116,8.1422,8.1499,8.1958,8.2264,8.234,8.2149,8.234,8.234,8.2531,8.2684,8.2722,8.2951,8.3066,8.3066,8.3278,8.401,8.5173,8.5814,8.6412,8.6942,8.7167,8.7152,8.704,8.702,8.6826,8.6671,8.6554,8.6477,8.6282,8.636,8.6593,8.6477,8.6477,8.636,8.5855,8.5156,8.469,8.4301,8.399,8.4185,8.5,8.5389,8.5661,8.6166,8.6515,8.669,8.7011,8.7025,8.7181,8.7263,8.7182,8.7354,8.7407,8.7407,8.7407,8.7407,8.7329,8.729,7.4197,7.4197,7.4197,7.4197,7.4197,7.4197,7.4197,7.4243,7.4525,7.4282,7.357,7.3076,7.2414,7.168,7.1183,7.1183,7.1565,7.1985,7.2902,7.4163,7.5386,7.5424,7.4584,7.3705,7.3093,7.2673,7.1871,7.1871,7.2166,7.1896,7.2514,7.3575,7.4502,7.5131,7.5424,7.6722,7.7138,7.6802,7.7176,7.7379,7.7299,7.7717,7.7946,7.8099,7.8328,7.8634,7.9054,7.9551,7.9933,7.9971,7.9856,8.0009,8.043,8.0506,8.0506,8.0544,8.1346,8.1805,8.1957,8.2531,8.2951,8.299,8.299,8.299,8.3028,8.3257,8.3524,8.3563,8.383,8.4098,8.4246,8.4535,8.5113,8.5878,8.6722,8.7167,8.7105,8.7167,8.7137,8.7058,8.702,8.702,8.702,8.702,8.702,8.6943,8.6826,8.6943,8.6943,8.6982,8.6865,8.636,8.5894,8.535,8.4962,8.4651,8.4728,8.5544,8.6088,8.6399,8.6632,8.702,8.704,8.7072,8.7152,8.7234,8.7292,8.7338,8.7393,8.7407,8.7407,8.7407,8.7407,8.7407,8.7407,7.4197,7.4197,7.4197,7.4197,7.4197,7.4197,7.4197,7.4289,7.4476,7.4275,7.3837,7.3193,7.2841,7.1985,7.2367,7.252,7.3093,7.3284,7.424,7.5348,7.6265,7.6494,7.6494,7.5462,7.4775,7.4125,7.3437,7.2941,7.2849,7.3001,7.3273,7.387,7.5299,7.5903,7.6125,7.747,7.7973,7.764,7.7982,7.818,7.8139,7.8252,7.8404,7.8672,7.9092,7.9665,8.0124,8.0391,8.02,7.9474,8.0124,8.0391,8.0506,8.0544,8.0697,8.0888,8.1576,8.2034,8.2111,8.2798,8.3219,8.3257,8.3333,8.3257,8.3563,8.4059,8.4403,8.4403,8.5091,8.536,8.5714,8.623,8.6378,8.6599,8.6977,8.7137,8.7121,8.7152,8.7152,8.7021,8.702,8.702,8.702,8.702,8.702,8.702,8.702,8.702,8.702,8.6982,8.6982,8.6865,8.6399,8.5933,8.5622,8.5311,8.5505,8.5894,8.6438,8.6787,8.6787,8.7001,8.704,8.7072,8.7152,8.7234,8.7292,8.733,8.7401,8.7407,8.7407,8.7407,8.7407,8.7407,8.7407,7.4197,7.4197,7.4197,7.4197,7.4197,7.4197,7.4252,7.4432,7.4653,7.4783,7.4829,7.4824,7.4358,7.3705,7.4201,7.4469,7.4201,7.4698,7.5539,7.6341,7.657,7.7105,7.722,7.6227,7.5462,7.4889,7.3705,7.3093,7.3041,7.3005,7.2945,7.3832,7.521,7.5972,7.667,7.8276,7.8965,7.859,7.9125,7.9247,7.8941,7.8939,7.9207,7.9742,8.0086,8.0277,8.043,8.0506,8.043,8.0315,8.0391,8.0506,8.0582,8.1117,8.1423,8.1652,8.2225,8.2722,8.2875,8.3486,8.4021,8.4059,8.448,8.4976,8.4976,8.5015,8.5206,8.5244,8.5397,8.5739,8.6122,8.6455,8.6708,8.6881,8.7019,8.7089,8.7076,8.7121,8.7121,8.704,8.702,8.702,8.702,8.702,8.702,8.702,8.702,8.702,8.702,8.702,8.702,8.702,8.6826,8.6399,8.6321,8.6049,8.6127,8.6243,8.6671,8.6982,8.6982,8.7001,8.704,8.7072,8.7152,8.7234,8.7292,8.7377,8.7407,8.7407,8.7407,8.7407,8.7407,8.7407,8.7407,7.4197,7.416,7.3784,7.3822,7.4085,7.3921,7.4048,7.4444,7.4695,7.5167,7.559,7.5512,7.5354,7.5386,7.5844,7.5959,7.6112,7.6418,7.6647,7.6761,7.6685,7.6953,7.7144,7.6609,7.6036,7.5806,7.4813,7.4201,7.403,7.3755,7.4012,7.4797,7.5992,7.69,7.7508,7.9254,7.9574,7.8859,7.932,7.9591,7.936,7.9283,7.9665,8.0315,8.0506,8.0506,8.0506,8.0506,8.0735,8.0888,8.0735,8.0506,8.0659,8.1347,8.1767,8.1958,8.2989,8.3524,8.3792,8.4327,8.4862,8.4862,8.5282,8.5475,8.5628,8.5704,8.5777,8.5815,8.5817,8.5854,8.625,8.6645,8.686,8.6923,8.7076,8.7094,8.704,8.7072,8.7105,8.7021,8.702,8.702,8.702,8.702,8.702,8.702,8.702,8.702,8.702,8.702,8.702,8.702,8.702,8.6904,8.6904,8.6826,8.6749,8.6787,8.6865,8.6982,8.6982,8.7001,8.7021,8.7072,8.7167,8.7234,8.7292,8.7338,8.7407,8.7407,8.7407,8.7407,8.7407,8.7407,8.7407,7.4197,7.416,7.3409,7.3446,7.3951,7.3678,7.3883,7.4346,7.474,7.5436,7.6275,7.578,7.6271,7.6802,7.7296,7.7755,7.8137,7.8061,7.7793,7.7105,7.6761,7.6647,7.6532,7.6379,7.6265,7.6418,7.5653,7.5348,7.5217,7.5101,7.4938,7.6044,7.7077,7.7519,7.8254,7.9708,8.0208,7.9122,7.9437,7.9704,7.9513,7.9436,7.9665,8.0047,8.043,8.0506,8.0506,8.0544,8.0812,8.1499,8.0888,8.0582,8.0735,8.1423,8.1996,8.2073,8.3562,8.4364,8.4556,8.5053,8.5435,8.5511,8.5511,8.5628,8.5775,8.5919,8.5983,8.6126,8.6132,8.6073,8.6315,8.666,8.6941,8.7001,8.7019,8.7058,8.7021,8.7058,8.7058,8.7021,8.702,8.702,8.702,8.702,8.702,8.702,8.702,8.702,8.702,8.702,8.702,8.702,8.702,8.702,8.702,8.702,8.702,8.7001,8.7001,8.6982,8.6982,8.7001,8.7021,8.7105,8.7181,8.7247,8.7292,8.7386,8.7401,8.7407,8.7407,8.7407,8.7407,8.7407,8.7368,7.4197,7.4197,7.4047,7.3763,7.3489,7.4029,7.409,7.4105,7.479,7.5703,7.6651,7.726,7.749,7.8099,7.9321,7.9895,7.9704,7.9245,7.8481,7.764,7.7067,7.6456,7.5883,7.5844,7.5768,7.5653,7.5501,7.5501,7.5408,7.5101,7.5285,7.6044,7.669,7.7195,7.8083,7.9323,8.001,7.9353,7.9743,8.0047,7.9933,7.9704,7.9474,7.9818,8.0238,8.0468,8.0506,8.0506,8.0582,8.0659,8.0582,8.0544,8.085,8.192,8.2569,8.3028,8.4174,8.5015,8.5206,8.5358,8.5511,8.5511,8.5474,8.5552,8.5734,8.5839,8.5774,8.6045,8.624,8.6394,8.6313,8.6674,8.6941,8.7001,8.6924,8.6904,8.6924,8.6924,8.6904,8.6826,8.6865,8.702,8.702,8.702,8.702,8.702,8.702,8.702,8.702,8.702,8.702,8.702,8.702,8.702,8.702,8.702,8.6982,8.7001,8.7001,8.7001,8.7001,8.6982,8.704,8.7121,8.7195,8.7259,8.7312,8.7393,8.7401,8.7407,8.7407,8.7407,8.7407,8.7407,8.729,7.4197,7.416,7.3883,7.3521,7.3274,7.3449,7.3724,7.3991,7.4482,7.5699,7.7069,7.7831,7.8557,7.9321,8.0009,8.0506,8.0315,7.9665,7.8825,7.7984,7.7105,7.6265,7.5577,7.5501,7.5501,7.5501,7.5501,7.5501,7.5455,7.5014,7.5323,7.6005,7.6496,7.6969,7.7728,7.9066,7.9287,7.9133,7.9476,7.9933,7.9971,7.978,7.9933,8.0047,8.0238,8.0468,8.0506,8.0506,8.0735,8.1003,8.0735,8.0812,8.1232,8.1805,8.2569,8.3104,8.4174,8.5129,8.5397,8.5511,8.5358,8.4939,8.4978,8.4928,8.4856,8.482,8.5207,8.5319,8.586,8.6054,8.5784,8.6568,8.6941,8.6904,8.6671,8.6477,8.636,8.636,8.636,8.6438,8.6632,8.6787,8.702,8.702,8.702,8.702,8.702,8.702,8.702,8.702,8.702,8.702,8.702,8.702,8.702,8.702,8.6885,8.6846,8.6806,8.6845,8.6806,8.669,8.6917,8.7167,8.7234,8.6958,8.7321,8.7401,8.7407,8.7368,8.7329,8.729,8.7368,8.7368,8.7056,7.4197,7.4122,7.3753,7.3468,7.3288,7.308,7.3267,7.3684,7.4094,7.5424,7.7373,7.7908,7.8825,7.9971,8.0391,8.0506,8.043,7.9818,7.9169,7.8328,7.7449,7.657,7.5959,7.573,7.5692,7.5501,7.5806,7.5615,7.5489,7.5322,7.5555,7.603,7.6514,7.6841,7.7445,7.87,7.8519,7.8706,7.8942,7.9513,7.9704,8.0124,8.0506,8.0506,8.0506,8.0506,8.0506,8.0506,8.0773,8.1003,8.0926,8.0773,8.1385,8.1538,8.1996,8.2913,8.3677,8.448,8.5206,8.5244,8.5015,8.4824,8.4821,8.4637,8.4648,8.4971,8.4955,8.4785,8.5419,8.615,8.6307,8.6785,8.7233,8.7215,8.6749,8.6166,8.5933,8.5777,8.5661,8.5855,8.6282,8.6593,8.6787,8.702,8.702,8.702,8.702,8.702,8.702,8.702,8.702,8.702,8.702,8.702,8.702,8.702,8.6768,8.6515,8.6415,8.6372,8.6333,8.6238,8.6451,8.6442,8.6377,8.6228,8.6831,8.729,8.7212,8.7134,8.7134,8.69,8.6471,8.6353,8.6197,7.4197,7.4197,7.4319,7.4039,7.3604,7.3612,7.3453,7.3212,7.3785,7.4775,7.6112,7.7335,7.8481,7.9551,8.0277,8.0468,8.043,8.0315,7.978,7.8901,7.8175,7.7411,7.6647,7.657,7.6074,7.5768,7.615,7.6074,7.5714,7.5745,7.5902,7.6199,7.6488,7.6841,7.7203,7.815,7.8762,7.9079,7.9817,8.0277,8.0315,8.043,8.0506,8.0506,8.0506,8.0506,8.0506,8.0506,8.0659,8.0659,8.0621,8.0544,8.0659,8.0659,8.1538,8.2493,8.3257,8.383,8.5053,8.5053,8.4824,8.5054,8.5394,8.5714,8.5583,8.5769,8.5984,8.635,8.6566,8.6838,8.7126,8.7778,8.8088,8.7973,8.7623,8.6768,8.6146,8.57,8.5505,8.5272,8.57,8.6205,8.6593,8.6826,8.702,8.702,8.6982,8.6865,8.6749,8.6515,8.6477,8.6321,8.6282,8.6282,8.6243,8.636,8.6302,8.601,8.5905,8.5774,8.5701,8.5559,8.5221,8.5231,8.5242,8.5692,8.6371,8.6744,8.6822,8.6627,8.6314,8.5768,8.5143,8.5143,8.5377,7.4197,7.4243,7.4525,7.4282,7.3646,7.3495,7.3254,7.3017,7.2826,7.3819,7.5462,7.6685,7.8213,7.9742,8.0391,8.0506,8.0506,8.0506,8.0047,7.9436,7.8825,7.8252,7.7487,7.6953,7.6418,7.6227,7.5997,7.5806,7.5671,7.584,7.6121,7.6173,7.6433,7.6652,7.6939,7.7537,7.8113,7.882,7.9769,8.043,8.0506,8.0506,8.0506,8.0506,8.0506,8.0506,8.0506,8.0506,8.0506,8.0506,8.0506,8.0506,8.0506,8.0621,8.1232,8.2722,8.2531,8.3372,8.5053,8.5053,8.5015,8.4863,8.5155,8.5227,8.5332,8.5519,8.5641,8.5346,8.5892,8.6588,8.739,8.7968,8.8226,8.8282,8.803,8.7058,8.6184,8.5913,8.5583,8.5311,8.5117,8.5661,8.5972,8.5816,8.5855,8.5777,8.57,8.5583,8.5467,8.5272,8.5272,8.5311,8.5311,8.5311,8.5233,8.5233,8.5311,8.5116,8.5082,8.4974,8.4902,8.4737,8.4425,8.4522,8.4834,8.5331,8.5917,8.5924,8.5807,8.5573,8.5338,8.4909,8.4519,8.4753,8.4792,7.4289,7.4335,7.4653,7.444,7.3835,7.3263,7.3017,7.2902,7.2406,7.3132,7.4851,7.6418,7.8404,8.0086,8.0468,8.0506,8.0506,8.0506,8.0162,7.9704,7.9321,7.8901,7.8252,7.7564,7.6953,7.6685,7.6227,7.5806,7.5676,7.5848,7.6041,7.6121,7.6411,7.6555,7.6665,7.7189,7.7843,7.8788,7.9889,8.043,8.0506,8.0506,8.0506,8.0506,8.0506,8.0506,8.0506,8.0506,8.0506,8.0506,8.0506,8.0506,8.0506,8.085,8.1538,8.2684,8.276,8.3563,8.4824,8.5206,8.4976,8.49,8.4989,8.5457,8.5297,8.4999,8.5078,8.5447,8.5816,8.6574,8.7196,8.7992,8.8204,8.8179,8.7884,8.6894,8.6082,8.5951,8.5505,8.4962,8.4845,8.5,8.5156,8.4767,8.4612,8.4495,8.4418,8.4418,8.4456,8.4495,8.4573,8.4806,8.4806,8.4806,8.4728,8.4612,8.4495,8.4396,8.4358,8.4155,8.4083,8.3912,8.3678,8.3896,8.4386,8.4138,8.4206,8.4473,8.4707,8.4597,8.4441,8.4284,8.4128,8.4323,8.4362,7.4476,7.4519,7.4695,7.4781,7.4594,7.3453,7.2979,7.2979,7.2864,7.3055,7.4163,7.6379,7.8787,8.0162,8.0506,8.0506,8.0506,8.0506,8.0391,8.0124,7.9665,7.9245,7.871,7.8099,7.7335,7.6761,7.6303,7.5921,7.5723,7.5692,7.5928,7.6121,7.6343,7.6475,7.6725,7.7137,7.7877,7.8807,7.9893,8.0391,8.0468,8.0506,8.0506,8.0506,8.0506,8.0506,8.0506,8.0506,8.0506,8.0506,8.0506,8.0506,8.0582,8.1156,8.1996,8.2722,8.3563,8.4289,8.5129,8.5091,8.4939,8.536,8.5757,8.6075,8.615,8.6571,8.6749,8.6515,8.6554,8.7118,8.7779,8.8284,8.836,8.8256,8.7939,8.7293,8.6583,8.6107,8.5622,8.4806,8.469,8.5039,8.4923,8.469,8.4495,8.4418,8.4418,8.4418,8.4418,8.4456,8.4456,8.4534,8.4495,8.4495,8.4495,8.4398,8.4432,8.4287,8.4168,8.3644,8.317,8.3029,8.3575,8.3419,8.3795,8.3107,8.2879,8.3972,8.4519,8.3894,8.3621,8.3816,8.3816,8.3894,8.3933,7.4519,7.4563,7.4897,7.5056,7.4904,7.3563,7.2979,7.2902,7.2444,7.3476,7.5348,7.722,7.8939,8.0124,8.0506,8.0506,8.0506,8.0506,8.0506,8.0238,7.9742,7.936,7.8863,7.7984,7.6991,7.6647,7.6265,7.5883,7.5574,7.5599,7.581,7.6029,7.6234,7.6475,7.6785,7.7137,7.7808,7.8474,7.936,7.9933,8.0468,8.0506,8.0506,8.0506,8.0506,8.0506,8.0506,8.0506,8.0506,8.0506,8.0506,8.0506,8.0621,8.1347,8.2111,8.2951,8.3754,8.4632,8.5282,8.5207,8.536,8.5796,8.6177,8.6451,8.6708,8.6941,8.6982,8.6982,8.702,8.737,8.8089,8.8322,8.84,8.8395,8.8095,8.7487,8.7028,8.6475,8.6263,8.5661,8.5389,8.5389,8.5117,8.4767,8.4573,8.4418,8.4418,8.4418,8.4418,8.4418,8.4418,8.4418,8.4418,8.4398,8.4417,8.441,8.4412,8.4221,8.4065,8.3781,8.349,8.3926,8.4284,8.3894,8.3699,8.3777,8.3972,8.4401,8.4401,8.3933,8.3738,8.3738,8.366,8.3621,8.3894,7.4568,7.4611,7.5095,7.5247,7.5018,7.3636,7.2979,7.2902,7.2406,7.3972,7.7067,7.7831,7.8939,8.0124,8.0506,8.0506,8.0506,8.0468,8.0315,7.9971,7.9551,7.9169,7.8481,7.764,7.6761,7.6494,7.5959,7.5501,7.5501,7.5501,7.5692,7.5985,7.6248,7.6433,7.6769,7.7137,7.7578,7.8091,7.8863,7.9704,8.0391,8.0506,8.0506,8.0506,8.0506,8.0506,8.0506,8.0506,8.0506,8.0506,8.0506,8.0506,8.0812,8.1308,8.2034,8.2798,8.3639,8.4556,8.5015,8.5436,8.5666,8.5846,8.6215,8.6451,8.6723,8.692,8.702,8.702,8.702,8.7254,8.7973,8.7895,8.7906,8.7844,8.7811,8.7345,8.7222,8.6822,8.6845,8.6671,8.6399,8.6088,8.601,8.57,8.5156,8.4845,8.4418,8.4418,8.4418,8.4418,8.4418,8.4418,8.4418,8.4417,8.4414,8.4537,8.4624,8.4551,8.4425,8.4551,8.4505,8.4902,8.4909,8.448,8.4441,8.4714,8.4831,8.487,8.4519,8.4089,8.4167,8.4401,8.4206,8.4323,8.4714,7.4778,7.4859,7.5283,7.5394,7.5056,7.3636,7.3017,7.3017,7.3017,7.4813,7.764,7.8061,7.8978,8.0238,8.0506,8.0506,8.0506,8.0468,8.0162,7.9551,7.9169,7.8748,7.7946,7.7105,7.6418,7.6456,7.5921,7.5501,7.5501,7.5501,7.5666,7.5917,7.6237,7.656,7.6749,7.7171,7.7592,7.8091,7.8976,7.9665,8.0315,8.0506,8.0506,8.0506,8.0506,8.0506,8.0506,8.0506,8.0506,8.0506,8.0506,8.0506,8.0621,8.1347,8.1881,8.2149,8.3524,8.425,8.4441,8.5091,8.5513,8.5741,8.6082,8.6366,8.6451,8.6723,8.7001,8.7021,8.7021,8.704,8.7196,8.7293,8.7517,8.7663,8.7689,8.7815,8.7734,8.7677,8.772,8.7797,8.737,8.6982,8.6982,8.6749,8.601,8.5389,8.467,8.4515,8.4767,8.4923,8.5078,8.5136,8.5175,8.5192,8.5244,8.4947,8.4869,8.4794,8.5019,8.5364,8.552,8.5722,8.5534,8.5143,8.569,8.6471,8.5807,8.5065,8.5534,8.6041,8.5377,8.5299,8.5065,8.5338,8.6158,7.4819,7.4859,7.532,7.5465,7.5239,7.4243,7.3514,7.3132,7.3705,7.5386,7.7717,7.8557,7.9398,8.0238,8.0506,8.0506,8.0506,8.0468,8.0047,7.9283,7.8787,7.7946,7.7144,7.6456,7.5959,7.5844,7.5539,7.5501,7.5501,7.5501,7.5595,7.5887,7.6584,7.7179,7.7302,7.7562,7.7843,7.8832,7.9351,7.9665,8.0391,8.0506,8.0506,8.0506,8.0506,8.0506,8.0506,8.0506,8.0506,8.0506,8.0506,8.0506,8.0621,8.1308,8.192,8.2493,8.3754,8.4556,8.49,8.5435,8.559,8.5775,8.6049,8.6366,8.6494,8.6793,8.6962,8.7055,8.7055,8.7097,8.7157,8.7867,8.8183,8.8339,8.8461,8.8862,8.8961,8.8867,8.8846,8.8885,8.8652,8.8147,8.7953,8.7836,8.7215,8.6904,8.6379,8.6166,8.6282,8.6282,8.636,8.636,8.6379,8.6333,8.6241,8.626,8.6334,8.6527,8.6588,8.6698,8.6776,8.6861,8.7095,8.7212,8.7759,8.8227,8.7681,8.7368,8.8032,8.8266,8.7564,8.7329,8.7525,8.7954,8.8618,7.4673,7.4979,7.532,7.5501,7.5348,7.4545,7.3858,7.3552,7.4049,7.5615,7.7717,7.8634,7.9474,8.02,8.0506,8.0506,8.0506,8.0468,7.9704,7.8939,7.8328,7.7373,7.6456,7.5806,7.5653,7.5501,7.5501,7.5501,7.5501,7.5501,7.5633,7.6071,7.6996,7.7674,7.793,7.8155,7.8402,7.9166,7.9462,7.9665,8.0238,8.0506,8.0506,8.0506,8.0506,8.0506,8.0506,8.0506,8.0506,8.0506,8.0506,8.0506,8.0697,8.1041,8.1652,8.2225,8.3257,8.425,8.5129,8.5053,8.5207,8.5665,8.6049,8.6327,8.652,8.6793,8.6982,8.7037,8.716,8.7215,8.7433,8.8196,8.8701,8.8818,8.9235,8.9629,8.9696,8.9565,8.9488,8.9605,8.9507,8.9118,8.8885,8.8789,8.8517,8.8341,8.8186,8.8031,8.7759,8.7564,8.7468,8.7467,8.7465,8.74,8.7581,8.7962,8.8072,8.822,8.8149,8.8071,8.8383,8.8501,8.8891,8.9164,8.9203,8.932,8.9633,8.9828,8.975,8.9828,8.975,8.9711,9.0062,9.0101,9.0257,7.441,7.5209,7.543,7.5501,7.5348,7.466,7.4278,7.424,7.4278,7.573,7.8022,7.8137,7.913,8.0315,8.0506,8.0506,8.0506,8.0506,7.9474,7.8519,7.8061,7.6953,7.6074,7.5539,7.5501,7.5501,7.5501,7.5501,7.5501,7.5501,7.5633,7.6048,7.7109,7.7949,7.8525,7.8967,7.924,7.9761,7.973,7.997,8.0391,8.0506,8.0506,8.0506,8.0506,8.0506,8.0506,8.0506,8.0506,8.0506,8.0506,8.0506,8.0506,8.0506,8.0506,8.1079,8.234,8.3792,8.49,8.4671,8.4938,8.5514,8.6103,8.6254,8.6577,8.6994,8.7329,8.7543,8.7721,8.7612,8.7671,8.8365,8.9064,8.9428,8.9844,9.0028,9.0088,9.008,8.9993,8.9955,8.9838,8.9623,8.9623,8.9566,8.9605,8.9584,8.9546,8.974,8.9351,8.8497,8.842,8.8377,8.8412,8.8445,8.8754,8.9052,8.9106,8.9086,8.932,8.932,8.9711,8.9906,8.9984,9.0062,9.0101,9.0296,9.0726,9.0765,9.0648,9.0804,9.0999,9.0999,9.096,9.0726,9.0726,7.441,7.5209,7.5392,7.5501,7.5462,7.5233,7.5119,7.5119,7.5119,7.6265,7.8061,7.8672,7.936,8.0468,8.0506,8.0506,8.0506,8.0277,7.936,7.8596,7.8022,7.6876,7.6036,7.5539,7.5501,7.5501,7.5501,7.5501,7.5501,7.5501,7.5599,7.5972,7.7372,7.8387,7.9095,7.9932,8.0299,8.0469,8.0225,8.0274,8.0391,8.0506,8.0506,8.0506,8.0506,8.0506,8.0506,8.0506,8.0506,8.0506,8.0506,8.0506,8.0506,8.0544,8.0659,8.1499,8.2493,8.3486,8.4365,8.4403,8.4556,8.536,8.6233,8.6929,8.7224,8.7513,8.7985,8.8263,8.8539,8.8547,8.8813,8.9407,8.9891,9.0257,9.0724,9.1053,9.1119,9.1069,9.0963,9.0849,9.0693,9.046,9.046,9.0439,9.0478,9.0633,9.0789,9.0983,9.075,8.9818,8.9333,8.9307,8.9301,8.9372,8.9508,8.9779,8.9836,8.9906,9.0218,9.0374,9.0335,9.0492,9.0804,9.0999,9.1077,9.1428,9.1858,9.178,9.1467,9.178,9.2014,9.1936,9.1858,9.1546,9.1428,7.4025,7.4787,7.5313,7.5501,7.5501,7.5501,7.5501,7.5501,7.5501,7.6265,7.7526,7.8366,7.9245,7.9971,8.0315,8.0506,8.0506,8.043,7.978,7.8901,7.8137,7.7182,7.6303,7.5653,7.5501,7.5501,7.5501,7.5501,7.5501,7.5535,7.5599,7.5814,7.7592,7.8381,7.9065,8.001,8.0838,8.0837,8.0677,8.058,8.0506,8.0506,8.0506,8.0506,8.0506,8.0506,8.0506,8.0506,8.0506,8.0506,8.0506,8.0506,8.0506,8.0544,8.0888,8.1614,8.2149,8.2875,8.3524,8.341,8.3983,8.4863,8.5819,8.6684,8.7704,8.8312,8.8794,8.9158,8.9496,8.9833,9.0217,9.0625,9.089,9.1145,9.1691,9.2266,9.2276,9.2191,9.2109,9.1957,9.1743,9.1451,9.1353,9.1333,9.1371,9.141,9.1488,9.1643,9.1371,9.0672,9.0265,9.0174,9.0205,9.0259,9.0401,9.0625,9.0867,9.107,9.1272,9.135,9.1116,9.1194,9.1585,9.1858,9.2092,9.2248,9.2326,9.2365,9.2287,9.2482,9.2482,9.2326,9.2209,9.217,9.217,7.3399,7.4316,7.5157,7.5501,7.5501,7.5501,7.5501,7.5501,7.5501,7.5959,7.6838,7.7526,7.8443,7.9398,7.9971,8.0353,8.043,8.0468,8.0047,7.9245,7.8328,7.7411,7.657,7.5921,7.5577,7.5501,7.5501,7.5501,7.5501,7.5501,7.5535,7.5612,7.722,7.8177,7.86,7.9831,8.0607,8.0811,8.0646,8.0506,8.0506,8.0506,8.0506,8.0506,8.0506,8.0506,8.0506,8.0506,8.0506,8.0506,8.0506,8.0506,8.0506,8.0506,8.1003,8.127,8.1613,8.2111,8.2569,8.2493,8.3181,8.3868,8.4518,8.6312,8.777,8.8895,8.9449,9.0208,9.0586,9.0716,9.0986,9.1288,9.157,9.1718,9.2069,9.2344,9.2341,9.2254,9.2169,9.2113,9.2073,9.184,9.1841,9.1782,9.1721,9.1954,9.2032,9.211,9.1877,9.1294,9.1139,9.0984,9.1077,9.1119,9.133,9.1609,9.203,9.2272,9.2248,9.217,9.1858,9.2053,9.2443,9.2443,9.2365,9.2404,9.2482,9.2482,9.2482,9.2482,9.2482,9.2482,9.2482,9.2482,9.2482,7.2864,7.4278,7.5119,7.5501,7.5501,7.5501,7.5501,7.5501,7.5501,7.5921,7.6647,7.7029,7.7831,7.9016,7.9474,7.9895,8.0353,8.043,7.9971,7.9283,7.8443,7.764,7.6685,7.5959,7.5577,7.5501,7.5501,7.5501,7.5501,7.5501,7.5535,7.5612,7.692,7.7668,7.8321,7.9511,8.0164,8.0707,8.0576,8.0506,8.0506,8.0506,8.0506,8.0506,8.0506,8.0506,8.0506,8.0506,8.0506,8.0506,8.0506,8.0506,8.0506,8.0506,8.0582,8.0773,8.0926,8.1385,8.1767,8.2034,8.2722,8.4136,8.5321,8.6852,8.8179,8.9254,9.0196,9.104,9.152,9.1559,9.1676,9.1934,9.2131,9.2248,9.2326,9.2334,9.2327,9.2238,9.2151,9.2152,9.219,9.2191,9.219,9.2171,9.2131,9.211,9.211,9.211,9.211,9.1781,9.1762,9.1708,9.1871,9.2003,9.2169,9.2202,9.2397,9.2475,9.2404,9.2443,9.2482,9.2482,9.2482,9.2482,9.2482,9.2482,9.2482,9.2482,9.2482,9.2482,9.2482,9.2482,9.2482,9.2482,9.2482,7.2215,7.3208,7.4431,7.5157,7.5462,7.5501,7.5501,7.5501,7.5501,7.573,7.6188,7.657,7.7296,7.8404,7.8901,7.9436,8.0009,8.0353,8.0238,7.9665,7.8634,7.7908,7.6991,7.6112,7.5653,7.5501,7.5501,7.5501,7.5501,7.5501,7.5535,7.565,7.6509,7.7308,7.8152,7.9033,7.9838,8.0608,8.0542,8.0506,8.0506,8.0506,8.0506,8.0506,8.0506,8.0506,8.0506,8.0506,8.0506,8.0506,8.0506,8.0506,8.0506,8.0506,8.0506,8.0544,8.0621,8.0735,8.1194,8.1767,8.2416,8.3907,8.5779,8.716,8.8413,8.9523,9.0776,9.1583,9.191,9.2002,9.2078,9.2295,9.2319,9.2404,9.2436,9.2403,9.2327,9.2187,9.2169,9.2208,9.2208,9.2221,9.2238,9.2238,9.219,9.211,9.211,9.2131,9.211,9.2131,9.2169,9.2254,9.2299,9.2339,9.2381,9.2365,9.2443,9.2482,9.2482,9.2482,9.2482,9.2482,9.2482,9.2482,9.2482,9.2482,9.2482,9.2482,9.2482,9.2482,9.2482,9.2482,9.2482,9.2482,9.2482,7.168,7.2062,7.3552,7.4698,7.5424,7.5501,7.5501,7.5501,7.5501,7.5501,7.5615,7.6227,7.6532,7.7258,7.829,7.8863,7.9513,8.02,8.0353,8.0047,7.8901,7.8213,7.7411,7.6532,7.5921,7.5577,7.5501,7.5501,7.5501,7.5501,7.5539,7.5653,7.6227,7.7029,7.7946,7.871,7.9473,8.0274,8.0506,8.0506,8.0506,8.0506,8.0506,8.0506,8.0506,8.0506,8.0506,8.0506,8.0506,8.0506,8.0506,8.0506,8.0506,8.0506,8.0506,8.0506,8.0506,8.0544,8.0773,8.1423,8.2302,8.3601,8.5626,8.7274,8.857,8.9902,9.119,9.1773,9.207,9.2354,9.2412,9.2451,9.2475,9.2475,9.2468,9.2442,9.2327,9.2169,9.2169,9.2187,9.2238,9.2245,9.2269,9.2269,9.2243,9.2151,9.211,9.2092,9.2112,9.2132,9.219,9.2254,9.2313,9.2401,9.2475,9.2482,9.2482,9.2482,9.2482,9.2482,9.2482,9.2482,9.2482,9.2482,9.2482,9.2522,9.2522,9.2482,9.2482,9.2561,9.2482,9.2482,9.2482,9.2482,9.2482,7.1489,7.2826,7.3819,7.4698,7.5386,7.5501,7.5501,7.5501,7.5501,7.5501,7.5539,7.5653,7.6036,7.6761,7.7717,7.8481,7.9207,8.0009,8.043,8.0238,7.9207,7.8596,7.7793,7.6647,7.6112,7.573,7.5501,7.5501,7.5501,7.5501,7.5539,7.5615,7.5539,7.6494,7.7908,7.8557,7.9016,7.9971,8.0506,8.0506,8.0506,8.0506,8.0506,8.0506,8.0506,8.0506,8.0506,8.0506,8.0506,8.0506,8.0506,8.0506,8.0506,8.0506,8.0506,8.0506,8.0506,8.0506,8.0773,8.1499,8.2455,8.3713,8.5698,8.7498,8.8842,9.0333,9.1279,9.1688,9.2013,9.2339,9.2451,9.2468,9.2482,9.2468,9.2459,9.2412,9.2313,9.2221,9.2208,9.2226,9.226,9.2221,9.2204,9.2226,9.2267,9.2169,9.211,9.2092,9.2148,9.2187,9.2171,9.2254,9.2341,9.2401,9.2468,9.2482,9.2482,9.2482,9.2482,9.2482,9.2482,9.2482,9.2482,9.2482,9.2522,9.2561,9.2522,9.2756,9.2678,9.2717,9.2561,9.2482,9.2482,9.2482,9.2482]},{"header":{"parameterUnit":"m.s-1","parameterCategory":1,"la1":31.0,"la2":29.5877,"lo1":-88.7671,"lo2":-86.6584,"dy":0.0162,"dx":0.0185,"nx":115,"ny":88,"refTime":"2026-02-23T12:00:00:Z","depth":0,"parameterNumber":3,"parameterNumberName":"V-component_of_WINDS"},"data":[0.0,0.0,0.0,0.0,0.0,0.0,0.0,0.0,0.0,0.0,0.0,0.0,0.0,0.0,0.0,0.0,0.0,0.0,0.0,0.0,0.0,0.0,0.0,0.0,0.0,0.0,0.0,0.0,0.0,0.0,0.0,0.0,0.0,0.0,0.0,0.0,0.0,0.0,0.0,0.0,0.0,0.0,0.0,0.0,0.0,0.0,0.0,0.0,0.0,0.0,0.0,0.0,0.0,0.0,0.0,0.0,0.0,0.0,0.0,0.0,0.0,0.0,0.0,0.0,0.0,0.0,0.0,0.0,0.0,0.0,0.0,0.0,0.0,0.0,0.0,0.0,0.0,0.0,0.0,0.0,0.0,0.0,0.0,0.0,0.0,0.0,0.0,0.0,0.0,0.0,0.0,0.0,0.0,0.0,0.0,0.0,0.0,0.0,0.0,0.0,0.0,0.0,0.0,0.0,0.0,0.0,0.0,0.0,0.0,0.0,0.0,0.0,0.0,0.0,0.0,0.0,0.0,0.0,0.0,0.0,0.0,0.0,0.0,0.0,0.0,0.0,0.0,0.0,0.0,0.0,0.0,0.0,0.0,0.0,0.0,0.0,0.0,0.0,0.0,0.0,0.0,0.0,0.0,0.0,0.0,0.0,0.0,0.0,0.0,0.0,0.0,0.0,0.0,0.0,0.0,0.0,0.0,0.0,0.0,0.0,0.0,0.0,0.0,0.0,0.0,0.0,0.0,0.0,0.0,0.0,0.0,0.0,0.0,0.0,0.0,0.0,0.0,0.0,0.0,0.0,0.0,0.0,0.0,0.0,0.0,0.0,0.0,0.0,0.0,0.0,0.0,0.0,0.0,0.0,0.0,0.0,0.0,0.0,0.0,0.0,0.0,0.0,0.0,0.0,0.0,0.0,0.0,0.0,0.0,0.0,0.0,0.0,0.0,0.0,0.0,0.0,0.0,0.0,0.0,0.0,0.0,0.0,0.0,0.0,0.0,0.0,0.0,0.0,0.0,0.0,0.0,0.0,0.0,0.0,0.0,0.0,0.0,0.0,0.0,0.0,0.0,0.0,0.0,0.0,0.0,0.0,0.0,0.0,0.0,0.0,0.0,0.0,0.0,0.0,0.0,0.0,0.0,0.0,0.0,0.0,0.0,0.0,0.0,0.0,0.0,0.0,0.0,0.0,0.0,0.0,0.0,0.0,0.0,0.0,0.0,0.0,0.0,0.0,0.0,0.0,0.0,0.0,0.0,0.0,0.0,0.0,0.0,0.0,0.0,0.0,0.0,0.0,0.0,0.0,0.0,0.0,0.0,0.0,0.0,0.0,0.0,0.0,0.0,0.0,0.0,0.0,0.0,0.0,0.0,0.0,0.0,0.0,0.0,0.0,0.0,0.0,0.0,0.0,0.0,0.0,0.0,0.0,0.0,0.0,0.0,0.0,0.0,0.0,0.0,0.0,0.0,0.0,0.0,0.0,0.0,0.0,0.0,0.0,0.0,0.0,0.0,0.0,0.0,0.0,0.0,0.0,0.0,0.0,0.0,0.0,0.0,0.0,0.0,0.0,0.0,0.0,0.0,0.0,0.0,0.0,0.0,0.0,0.0,0.0,0.0,0.0,0.0,0.0,0.0,0.0,0.0,0.0,0.0,0.0,0.0,0.0,0.0,0.0,0.0,0.0,0.0,0.0,0.0,0.0,0.0,0.0,0.0,0.0,0.0,0.0,0.0,0.0,0.0,0.0,0.0,0.0,0.0,0.0,0.0,0.0,0.0,0.0,0.0,0.0,0.0,0.0,0.0,0.0,0.0,0.0,0.0,0.0,0.0,0.0,0.0,0.0,0.0,0.0,0.0,0.0,0.0,0.0,0.0,0.0,0.0,0.0,0.0,0.0,0.0,0.0,0.0,0.0,0.0,0.0,0.0,0.0,0.0,0.0,0.0,0.0,0.0,0.0,0.0,0.0,0.0,0.0,0.0,0.0,0.0,0.0,0.0,0.0,0.0,0.0,0.0,0.0,0.0,0.0,0.0,0.0,0.0,0.0,0.0,0.0,0.0,0.0,0.0,0.0,0.0,0.0,0.0,0.0,0.0,0.0,0.0,0.0,0.0,0.0,0.0,0.0,0.0,0.0,0.0,0.0,0.0,0.0,0.0,0.0,0.0,0.0,0.0,0.0,0.0,0.0,0.0,0.0,0.0,0.0,0.0,0.0,0.0,0.0,0.0,0.0,0.0,0.0,0.0,0.0,0.0,0.0,0.0,0.0,0.0,0.0,0.0,0.0,0.0,0.0,0.0,0.0,0.0,0.0,0.0,0.0,0.0,0.0,0.0,0.0,0.0,0.0,0.0,0.0,0.0,0.0,0.0,0.0,0.0,0.0,0.0,0.0,0.0,0.0,0.0,0.0,0.0,0.0,0.0,0.0,0.0,0.0,0.0,0.0,0.0,0.0,0.0,0.0,0.0,0.0,0.0,0.0,0.0,0.0,0.0,0.0,0.0,0.0,0.0,0.0,0.0,0.0,0.0,0.0,0.0,0.0,0.0,0.0,0.0,0.0,0.0,0.0,0.0,0.0,0.0,0.0,0.0,0.0,0.0,0.0,0.0,0.0,0.0,0.0,0.0,0.0,0.0,0.0,0.0,0.0,0.0,0.0,0.0,0.0,0.0,0.0,0.0,0.0,0.0,0.0,0.0,0.0,0.0,0.0,0.0,0.0,0.0,0.0,0.0,0.0,0.0,0.0,0.0,0.0,0.0,0.0,0.0,0.0,0.0,0.0,0.0,0.0,0.0,0.0,0.0,0.0,0.0,0.0,0.0,0.0,0.0,0.0,0.0,0.0,0.0,0.0,0.0,0.0,0.0,0.0,0.0,0.0,0.0,0.0,0.0,0.0,0.0,0.0,0.0,0.0,0.0,0.0,0.0,0.0,0.0,0.0,0.0,0.0,0.0,0.0,0.0,0.0,0.0,0.0,0.0,0.0,0.0,0.0,0.0,0.0,0.0,0.0,0.0,0.0,0.0,0.0,0.0,0.0,0.0,0.0,0.0,0.0,0.0,0.0,0.0,0.0,0.0,0.0,0.0,0.0,0.0,0.0,0.0,0.0,0.0,0.0,0.0,0.0,0.0,0.0,0.0,0.0,0.0,0.0,0.0,0.0,0.0,0.0,0.0,0.0,0.0,0.0,0.0,0.0,0.0,0.0,0.0,0.0,0.0,0.0,0.0,0.0,0.0,0.0,0.0,0.0,0.0,0.0,0.0,0.0,0.0,0.0,0.0,0.0,0.0,0.0,0.0,0.0,0.0,0.0,0.0,0.0,0.0,0.0,0.0,0.0,0.0,0.0,0.0,0.0,0.0,0.0,0.0,0.0,0.0,0.0,0.0,0.0,0.0,0.0,0.0,0.0,0.0,0.0,0.0,0.0,0.0,0.0,0.0,0.0,0.0,0.0,0.0,0.0,0.0,0.0,0.0,0.0,0.0,0.0,0.0,0.0,0.0,0.0,0.0,0.0,0.0,0.0,0.0,0.0,0.0,0.0,0.0,0.0,0.0,0.0,0.0,0.0,0.0,0.0,0.0,0.0,0.0,0.0,0.0,0.0,0.0,0.0,0.0,0.0,0.0,0.0,0.0,0.0,0.0,0.0,0.0,0.0,0.0,0.0,0.0,0.0,0.0,0.0,0.0,0.0,0.0,0.0,0.0,0.0,0.0,0.0,0.0,0.0,0.0,0.0,0.0,0.0,0.0,0.0,0.0,0.0,0.0,0.0,0.0,0.0,0.0,0.0,0.0,0.0,0.0,0.0,0.0,0.0,0.0,0.0,0.0,0.0,0.0,0.0,0.0,0.0,0.0,0.0,0.0,0.0,0.0,0.0,0.0,0.0,0.0,0.0,0.0,0.0,0.0,0.0,0.0,0.0,0.0,0.0,0.0,0.0,0.0,0.0,0.0,0.0,0.0,0.0,0.0,0.0,0.0,0.0,0.0,0.0,0.0,0.0,0.0,0.0,0.0,0.0,0.0,0.0,0.0,0.0,0.0,0.0,0.0,0.0,0.0,0.0,0.0,0.0,0.0,0.0,0.0,0.0,0.0,0.0,0.0,0.0,0.0,0.0,0.0,0.0,0.0,0.0,0.0,0.0,0.0,0.0,0.0,0.0,0.0,0.0,0.0,0.0,0.0,0.0,0.0,0.0,0.0,0.0,0.0,0.0,0.0,0.0,0.0,0.0,0.0,0.0,0.0,0.0,0.0,0.0,0.0,0.0,0.0,0.0,0.0,0.0,0.0,0.0,0.0,0.0,0.0,0.0,0.0,0.0,0.0,0.0,0.0,0.0,0.0,0.0,0.0,0.0,0.0,0.0,0.0,0.0,0.0,0.0,0.0,0.0,0.0,0.0,0.0,0.0,0.0,0.0,0.0,0.0,0.0,0.0,0.0,0.0,0.0,0.0,0.0,0.0,0.0,0.0,0.0,0.0,0.0,0.0,0.0,0.0,0.0,0.0,0.0,0.0,0.0,0.0,0.0,0.0,0.0,0.0,0.0,0.0,0.0,0.0,0.0,0.0,0.0,0.0,0.0,0.0,0.0,0.0,0.0,0.0,0.0,0.0,0.0,0.0,0.0,0.0,0.0,0.0,0.0,0.0,0.0,0.0,0.0,0.0,0.0,0.0,0.0,0.0,0.0,0.0,0.0,0.0,0.0,0.0,0.0,0.0,0.0,0.0,0.0,0.0,0.0,0.0,0.0,0.0,0.0,0.0,0.0,0.0,0.0,0.0,0.0,0.0,0.0,0.0,0.0,0.0,0.0,0.0,0.0,0.0,0.0,0.0,0.0,0.0,0.0,0.0,0.0,0.0,0.0,0.0,0.0,0.0,0.0,0.0,0.0,0.0,0.0,0.0,0.0,0.0,0.0,0.0,0.0,0.0,0.0,0.0,0.0,0.0,0.0,0.0,0.0,0.0,0.0,0.0,0.0,0.0,0.0,0.0,0.0,0.0,0.0,0.0,0.0,0.0,0.0,0.0,0.0,0.0,0.0,0.0,0.0,0.0,0.0,0.0,0.0,0.0,0.0,0.0,0.0,0.0,0.0,0.0,0.0,0.0,0.0,0.0,0.0,0.0,0.0,0.0,0.0,0.0,0.0,0.0,0.0,0.0,0.0,0.0,0.0,0.0,0.0,0.0,0.0,0.0,0.0,0.0,0.0,0.0,0.0,0.0,0.0,0.0,0.0,0.0,0.0,0.0,0.0,0.0,0.0,0.0,0.0,0.0,0.0,0.0,0.0,0.0046,0.0137,0.0,0.0,0.0,0.0,0.0,0.0,0.0,0.0,0.0,0.0,0.0,0.0,0.0,0.0,0.0,0.0,0.0,0.0,0.0,0.0,0.0,0.0,0.0,0.0,0.0,0.0,0.0,0.0,0.0,0.0,0.0,0.0,0.0,0.0,0.0,0.0,0.0,0.0,0.0,0.0,0.0,0.0,0.0,0.0,0.0,0.0,0.0,0.0,0.0,0.0,0.0,0.0,0.0,0.0,0.0,0.0,0.0,0.0,0.0,0.0,0.0,0.0,0.0,0.0,0.0,0.0,0.0,0.0,0.0,0.0,0.0,0.0,0.0,0.0,0.0,0.0,0.0,0.0,0.0,0.0,0.0,0.0,0.0,0.0,0.0,0.0,0.0,0.0,0.0,0.0,0.0,0.0,0.0,0.0,0.0,0.0,0.0,0.0,0.0,0.0,0.0,0.0,0.0,0.0,0.0,0.0,0.0,0.0,0.0,0.0,0.0,0.0,0.0,0.0,0.0573,0.0,0.0,0.0,0.0,0.0,0.0,0.0,0.0,0.0,0.0,0.0,0.0,0.0,0.0,0.0,0.0,0.0,0.0,0.0,0.0,0.0,0.0,0.0,0.0,0.0,0.0,0.0,0.0,0.0,0.0,0.0,0.0,0.0,0.0,0.0,0.0,0.0,0.0,0.0,0.0,0.0,0.0,0.0,0.0,0.0,0.0,0.0,0.0,0.0,0.0,0.0,0.0,0.0,0.0,0.0,0.0,0.0,0.0,0.0,0.0,0.0,0.0,0.0,0.0,0.0,0.0,0.0,0.0,0.0,0.0,0.0,0.0,0.0,0.0,0.0,0.0,0.0,0.0,0.0,0.0,0.0,0.0,0.0,0.0,0.0,0.0,0.0,0.0,0.0,0.0,0.0,0.0,0.0,0.0,0.0,0.0,0.0,0.0,0.0,0.0,0.0,0.0,0.0,0.0,0.0,0.0,0.0,0.0,0.0,0.0,0.0,0.0522,0.0522,0.0508,0.0,0.0,0.0,0.0,0.0,0.0,0.0,0.0,0.0,0.0,0.0,0.0,0.0,0.0,0.0,0.0,0.0,0.0,0.0,0.0,0.0,0.0,0.0,0.0,0.0,0.0,0.0,0.0,0.0,0.0,0.0,0.0,0.0,0.0,0.0,0.0,0.0,0.0,0.0,0.0,0.0,0.0,0.0,0.0,0.0,0.0,0.0,0.0,0.0,0.0,0.0,0.0,0.0,0.0,0.0,0.0,0.0,0.0,0.0,0.0,0.0,0.0,0.0,0.0,0.0,0.0,0.0,0.0,0.0,0.0,0.0,0.0,0.0,0.0,0.0,0.0,0.0,0.0,0.0,0.0,0.0,0.0,0.0,0.0,0.0,0.0,0.0,0.0,0.0,0.0,0.0,0.0,0.0,0.0,0.0,0.0,0.0,0.0,0.0,0.0,0.0,0.0,0.0,0.0,0.0,0.0,0.0,0.0,0.0,0.0,0.0304,0.0,0.0765,0.0868,0.0785,0.0535,0.0,0.0,0.0,0.0,0.0,0.0,0.0,0.0,0.0,0.0,0.0,0.0,0.0,0.0,0.0,0.0,0.0,0.0,0.0,0.0,0.0,0.0,0.0,0.0,0.0,0.0,0.0,0.0,0.0,0.0,0.0,0.0,0.0,0.0,0.0,0.0,0.0,0.0,0.0,0.0,0.0,0.0,0.0,0.0,0.0,0.0,0.0,0.0,0.0,0.0,0.0,0.0,0.0,0.0,0.0,0.0,0.0,0.0,0.0,0.0,0.0,0.0,0.0,0.0,0.0,0.0,0.0,0.0,0.0,0.0,0.0,0.0,0.0,0.0,0.0,0.0,0.0,0.0,0.0,0.0,0.0,0.0,0.0,0.0,0.0,0.0,0.0,0.0,0.0,0.0,0.0,0.0,0.0,0.0,0.0,0.0,0.0,0.0,0.0,0.0,0.0,0.0,0.0,0.0,0.0,0.0,0.0,0.0,0.0,0.1062,0.0879,0.0468,0.074,0.0867,0.0,0.0,0.0,0.0,0.0,0.0,0.0,0.0,0.0,0.0,0.0,0.0,0.0,0.0,0.0,0.0,0.0,0.0,0.0,0.0,0.0,0.0,0.0,0.0,0.0,0.0,0.0,0.0,0.0,0.0,0.0,0.0,0.0,0.0,0.0,0.0,0.0,0.0,0.0,0.0,0.0,0.0,0.0,0.0,0.0,0.0,0.0,0.0,0.0,0.0,0.0,0.0,0.0,0.0,0.0,0.0,0.0,0.0,0.0,0.0,0.0,0.0,0.0,0.0,0.0,0.0,0.0,0.0,0.0,0.0,0.0,0.0,0.0,0.0,0.0,0.0,0.0,0.0,0.0,0.0,0.0,0.0,0.0,0.0,0.0,0.0,0.0,0.0,0.0,0.0,0.0,0.0,0.0,0.0,0.0,0.0,0.0,0.0,0.0,0.0,0.0,0.0,0.0,0.0,0.0,0.0,0.0,0.0,0.0,0.0978,0.0989,0.1046,0.0968,0.104,0.1099,0.0,0.0,0.0,0.0,0.0,0.0,0.0,0.0,0.0,0.0,0.0,0.0,0.0,0.0,0.0,0.0,0.0,0.0,0.0,0.0,0.0,0.0,0.0,0.0,0.0,0.0,0.0,0.0,0.0,0.0,0.0,0.0,0.0,0.0,0.0,0.0,0.0,0.0,0.0,0.0,0.0,0.0,0.0,0.0,0.0,0.0,0.0,0.0,0.0,0.0,0.0,0.0,0.0,0.0,0.0,0.0,0.0,0.0,0.0,0.0,0.0,0.0,0.0,0.0,0.0,0.0,0.0,0.0,0.0,0.0,0.0,0.0,0.0,0.0,0.0,0.0,0.0,0.0,0.0,0.0,0.0,0.0,0.0,0.0,0.0,0.0,0.0,0.0,0.0,0.0,0.0,0.0,0.0,0.0,0.0,0.0,0.0,0.0,0.0,0.0,0.0,0.0,0.0,0.0,0.0,0.0,0.0,0.0,0.0,0.1063,0.0,0.1405,0.0,0.1392,0.1481,0.0,0.0,0.0,0.0,0.0,0.0,0.0,0.0,0.0,0.0,0.0,0.0,0.0,0.0,0.0,0.0,0.0,0.0,0.0,0.0,0.0,0.0,0.0,0.0,0.0,0.0,0.0,0.0,0.0,0.0,0.0,0.0,0.0,0.0,0.0,0.0,0.0,0.0,0.0,0.0,0.0,0.0,0.0,0.0,0.0,0.0,0.0,0.0,0.0,0.0,0.0,0.0,0.0,0.0,0.0,0.0,0.0,0.0,0.0,0.0,0.0,0.0,0.0,0.0,0.0,0.0,0.0,0.0,0.0,0.0,0.0,0.0,0.0,0.0,0.0,0.0,0.0,0.0,0.0,0.0,0.0,0.0,0.0,0.0,0.0,0.0,0.0,0.0,0.0,0.0,0.0,0.0,0.0,0.0,0.0,0.0,0.0,0.0,0.0,0.0,0.0,0.0,0.0,0.0,0.0,0.0,0.0,0.0,0.0,0.1409,0.1873,0.1967,0.1727,0.1916,0.1955,0.0,0.0,0.0,0.0,0.0,0.0,0.0,0.0,0.0,0.0,0.0,0.0,0.0,0.0,0.0,0.0,0.0,0.0,0.0,0.0,0.0,0.0,0.0,0.0,0.0,0.0,0.0,0.0,0.0,0.0,0.0,0.0,0.0,0.0,0.0,0.0,0.0,0.0,0.0,0.0,0.0,0.0,0.0,0.0,0.0,0.0,0.0,0.0,0.0,0.0,0.0,0.0,0.0,0.0,0.0,0.0,0.0,0.0,0.0,0.0,0.0,0.0,0.0,0.0,0.0,0.0,0.0,0.0,0.0,0.0,0.0,0.0,0.0,0.0,0.0,0.0,0.0,0.0,0.0,0.0,0.0,0.0,0.0,0.0,0.0,0.0,0.0,0.0,0.0,0.0,0.0,0.0,0.0,0.0,0.0,0.0,0.0,0.0,0.0,0.0,0.0,0.0,0.0,0.0,0.0,0.0,0.0,0.0,0.0,0.1943,0.2337,0.2716,0.2998,0.3024,0.3058,0.0,0.0,0.0,0.0,0.0,0.0,0.0,0.0,0.0,0.0,0.0,0.0,0.0,0.0,0.0,0.0,0.0,0.0,0.0,0.0,0.0,0.0,0.0,0.0,0.0,0.0,0.0,0.0,0.0,0.0,0.0,0.0,0.0,0.0,0.0,0.0,0.0,0.0,0.0,0.0,0.0,0.0,0.0,0.0,0.0,0.0,0.0,0.0,0.0,0.0,0.0,0.0,0.0,0.0,0.0,0.0,0.0,0.0,0.0,0.0,0.0,0.0,0.0,0.0,0.0,0.0,0.0,0.0,0.0,0.0,0.0,0.0,0.0,0.0,0.0,0.0,0.0,0.0,0.0,0.0,0.0,0.0,0.0,0.0,0.0,0.0,0.0,0.0,0.0,0.0,0.0,0.0,0.0,0.0,0.0,0.0,0.0,0.0,0.0,0.0,0.0,0.0,0.0,0.0,0.0,0.0,0.0,0.0,0.0,0.3313,0.3513,0.383,0.4276,0.4201,0.4094,0.3975,0.0,0.0,0.0,0.0,0.0,0.0,0.0,0.0,0.0,0.0,0.0,0.0,0.0,0.0,0.0,0.0,0.0,0.0,0.0,0.0,0.0,0.0,0.0,0.0,0.0,0.0,0.0,0.0,0.0,0.0,0.0,0.0,0.0,0.0,0.0,0.0,0.0,0.0,0.0,0.0,0.0,0.0,0.0,0.0,0.0,0.0,0.0,0.0,0.0,0.0,0.0,0.0,0.0,0.0,0.0,0.0,0.0,0.0,0.0,0.0,0.0,0.0,0.0,0.0,0.0,0.0,0.0,0.0,0.0,0.0,0.0,0.0,0.0,0.0,0.0,0.0,0.0,0.0,0.0,0.0,0.0,0.0,0.0,0.0,0.0,0.0,0.0,0.0,0.0,0.0,0.0,0.0,0.0,0.0,0.0,0.0,0.0,0.0,0.0,0.0,0.0,0.0,0.0,0.0,0.0,0.0,0.0,0.0,0.5291,0.5235,0.5323,0.562,0.551,0.5196,0.0,0.0,0.0,0.0,0.0,0.0,0.0,0.0,0.0,0.0,0.0,0.0,0.0,0.0,0.0,0.0,0.0,0.0,0.0,0.0,0.0,0.0,0.0,0.0,0.0,0.0,0.0,0.0,0.0,0.0,0.0,0.0,0.0,0.0,0.0,0.0,0.0,0.0,0.0,0.0,0.0,0.0,0.0,0.0,0.0,0.0,0.0,0.0,0.0,0.0,0.0,0.0,0.0,0.0,0.0,0.0,0.0,0.0,0.0,0.0,0.0,0.0,0.0,0.0,0.0,0.0,0.0,0.0,0.0,0.0,0.0,0.0,0.0,0.0,0.0,0.0,0.0,0.0,0.0,0.0,0.0,0.0,0.0,0.0,0.0,0.0,0.0,0.0,0.0,0.0,0.0,0.0,0.0,0.0,0.0,0.0,0.0,0.0,0.0,0.0,0.0,0.0,0.0,0.0,0.0,0.0,0.0,0.0,0.0,0.6567,0.7448,0.7645,0.7116,0.6905,0.6459,0.0,0.0,0.0,0.0,0.0,0.0,0.0,0.0,0.0,0.0,0.0,0.0,0.0,0.0,0.0,0.0,0.0,0.0,0.0,0.0,0.0,0.0,0.0,0.0,0.0,0.0,0.0,0.0,0.0,0.0,0.0,0.0,0.0,0.0,0.0,0.0,0.0,0.0,0.0,0.0,0.0,0.0,0.0,0.0,0.0,0.0,0.0,0.0,0.0,0.0,0.0,0.0,0.0,0.0,0.0,0.0,0.0,0.0,0.0,0.0,0.0,0.0,0.0,0.0,0.0,0.0,0.0,0.0,0.0,0.0,0.0,0.0,0.0,0.0,0.0,0.0,0.0,0.0,0.0,0.0,0.0,0.0,0.0,0.0,0.0,0.0,0.0,0.0,0.0,0.0,0.0,0.0,0.0,0.0,0.0,0.0,0.0,0.0,0.0,0.0,0.0,0.0,0.0,0.0,0.0,0.0,0.0,0.0,0.6027,0.7744,0.9242,0.9784,0.9139,0.8359,0.7533,0.0,0.0,0.0,0.0,0.0,0.0,0.0,0.0,0.0,0.0,0.0,0.0,0.0,0.0,0.0,0.0,0.0,0.0,0.0,0.0,0.0,0.0,0.0,0.0,0.0,0.0,0.0,0.0,0.0,0.0,0.0,0.0,0.0,0.0,0.0,0.0,0.0,0.0,0.0,0.0,0.0,0.0,0.0,0.0,0.0,0.0,0.0,0.0,0.0,0.0,0.0,0.0,0.0,0.0,0.0,0.0,0.0,0.0,0.0,0.0,0.0,0.0,0.0,0.0,0.0,0.0,0.0,0.0,0.0,0.0,0.0,0.0,0.0,0.0,0.0,0.0,0.0,0.0,0.0,0.0,0.0,0.0,0.0,0.0,0.0,0.0,0.0,0.0,0.0,0.0,0.0,0.0,0.0,0.0,0.0,0.0,0.0,0.0,0.0,0.0,0.0,0.0,0.0,0.0,0.0,0.0,0.0,0.0,0.7053,0.8844,1.0545,1.1386,1.1062,0.9705,0.8438,0.0,0.0,0.0,0.0,0.0,0.0,0.0,0.0,0.0,0.0,0.0,0.0,0.0,0.0,0.0,0.0,0.0,0.0,0.0,0.0,0.0,0.0,0.0,0.0,0.0,0.0,0.0,0.0,0.0,0.0,0.0,0.0,0.0,0.0,0.0,0.0,0.0,0.0,0.0,0.0,0.0,0.0,0.0,0.0,0.0,0.0,0.0,0.0,0.0,0.0,0.0,0.0,0.0,0.0,0.0,0.0,0.0,0.0,0.0,0.0,0.0,0.0,0.0,0.0,0.0,0.0,0.0,0.0,0.0,0.0,0.0,0.0,0.0,0.0,0.0,0.0,0.0,0.0,0.0,0.0,0.0,0.0,0.0,0.0,0.0,0.0,0.0,0.0,0.0,0.0,0.0,0.0,0.0,0.0,0.0,0.0,0.0,0.0,0.0,0.0,0.0,0.0,0.0,0.0,0.0,0.0,0.0,0.0,0.7923,0.9699,1.102,1.1744,1.1801,1.055,0.9234,0.0,0.0,0.0,0.0,0.0,0.0,0.0,0.0,0.0,0.0,0.0,0.0,0.0,0.0,0.0,0.0,0.0,0.0,0.0,0.0,0.0,0.0,0.0,0.0,0.0,0.0,0.0,0.0,0.0,0.0,0.0,0.0,0.0,0.0,0.0,0.0,0.0,0.0,0.0,0.0,0.0,0.0,0.0,0.0,0.0,0.0,0.0,0.0,-0.3157,0.0,0.0,0.0,0.0,0.0,0.0,0.0,0.0,0.0,0.0,0.0,0.0,0.0,0.0,0.0,0.0,0.0,0.0,0.0,0.0,0.0,0.0,0.0,0.0,0.0,0.0,0.0,0.0,0.0,0.0,0.0,0.0,0.0,0.0,0.0,0.0,0.0,0.0,0.0,0.0,0.0,0.0,0.0,0.0,0.0,0.0,0.0,0.0,0.0,0.0,0.0,0.0,0.0,0.0,0.0,0.0,0.0,0.0,0.0,0.8508,1.0593,1.1622,1.219,1.2247,1.1395,1.0128,0.0,0.0,0.0,0.0,0.0,0.0,0.0,0.0,0.0,0.0,0.0,0.0,0.0,0.0,0.0,0.0,0.0,0.0,0.0,0.0,0.0,0.0,0.0,0.0,0.0,0.0,0.0,0.0,0.0,0.0,0.0,0.0,0.0,0.0,0.0,0.0,0.0,0.0,0.0,0.0,0.0,0.0,0.0,0.0,0.0,0.0,0.0,0.0,0.0,0.0,0.0,0.0,0.0,0.0,0.0,0.0,0.0,0.0,0.0,0.0,0.0,0.0,0.0,0.0,0.0,0.0,0.0,0.0,0.0,0.0,0.0,0.0,0.0,0.0,0.0,0.0,0.0,0.0,0.0,0.0,0.0,0.0,0.0,0.0,0.0,0.0,0.0,0.0,0.0,0.0,0.0,0.0,0.0,0.0,0.0,0.0,0.0,0.0,0.0,0.0,0.0,0.0,0.0,0.0,0.0,0.0,0.0,0.7233,0.9159,1.1437,1.2218,1.2596,1.2556,1.2028,1.0858,0.0,0.0,0.0,0.0,0.0,0.0,0.0,0.0,0.0,0.0,0.0,0.0,0.0,0.0,0.0,0.0,0.0,0.0,0.0,0.0,0.0,0.0,0.0,0.0,0.0,0.0,0.0,0.0,0.0,0.0,0.0,0.0,0.0,0.0,0.0,0.0,0.0,0.0,0.0,-0.2731,-0.1866,0.0,0.0,0.0,0.0,0.0,0.0,0.0,0.0,-0.2715,0.0,0.0,0.0,0.0,0.0,0.0,0.0,0.0,0.0,0.0,0.0,0.0,0.0,0.0,0.0,0.0,0.0,0.0,0.0,0.0,0.0,0.0,0.0,0.0,0.0,0.0,0.0,0.0,0.0,0.0,0.0,0.0,0.0,0.0,0.0,0.0,0.0,0.0,0.0,0.0,0.0,0.0,0.0,0.0,0.0,0.0,0.0,0.0,0.0,0.0,0.0,0.0,0.0,0.0,0.0,0.0,0.6495,0.7909,0.9814,1.2057,1.2588,1.2718,1.2556,1.1906,1.0899,0.9551,0.0,0.0,0.0,0.0,0.0,0.0,0.0,0.0,0.0,0.0,0.0,0.0,0.0,0.0,0.0,0.0,0.0,0.0,0.0,0.0,0.0,0.0,0.0,0.0,0.0,0.0,0.0,0.0,0.0,0.0,0.0,0.0,0.0,0.0,0.0,0.0,0.0,0.0,0.0,-0.1014,0.0,0.0,0.0,0.0,0.0,0.0,0.0,0.0,0.0,-0.1546,0.0,0.0,0.0,0.0,0.0,0.0,0.0,0.0,0.0,0.0,0.0,0.0,0.0,0.0,0.0,0.0,0.0,0.0,0.0,0.0,0.0,0.0,0.0,0.0,0.0,0.0,0.0,0.0,0.0,0.0,0.0,0.0,0.0,0.0,0.0,0.0,0.0,0.0,0.0,0.0,0.0,0.0,0.0,0.0,0.0,0.0,0.0,0.0,0.0,0.0,0.0,0.0,0.0,0.0,0.0,0.6901,0.8804,1.0755,1.2548,1.284,1.2929,1.2824,1.1971,1.0956,0.0,0.0,0.0,0.0,0.0,0.0,0.0,0.0,0.0,0.0,0.0,0.0,0.0,0.0,0.0,0.0,0.0,0.0,0.0,0.0,0.0,0.0,0.0,0.0,0.0,0.0,0.0,0.0,0.0,0.0,0.0,0.0,0.0,0.0,0.0,0.0,0.0,0.0,0.0,0.0,-0.0509,0.107,0.0471,0.0,0.0,0.0,0.0,0.0,0.0,-0.0661,-0.0642,0.0,0.0,0.0,0.0,0.0,0.0,0.0,0.0,0.0,0.0,0.0,0.0,0.0,0.0,0.0,0.0,0.0,0.0,0.0,0.0,0.0,0.0,0.0,0.0,0.0,0.0,0.0,0.0,0.0,0.0,0.0,0.0,0.0,0.0,0.0,0.0,0.0,0.0,0.0,0.0,0.0,0.0,0.0,0.0,0.0,0.0,0.0,0.0,0.0,0.0,0.0,0.0,0.0,0.0,0.0,0.7235,0.9321,1.1245,1.2724,1.3059,1.3133,1.3076,1.2052,1.0972,0.0,0.0,0.0,0.0,0.0,0.0,0.0,0.0,0.0,0.0,0.0,0.0,0.0,0.0,0.0,0.0,0.0,0.0,0.0,0.0,0.0,0.0,0.0,0.0,0.0,0.0,0.0,0.0,0.0,0.0,0.0,0.0,0.0,0.0,0.0,0.0,0.0,0.0,0.0,0.0,0.0,0.1649,0.1538,0.0746,0.0,0.0,0.0,0.0,0.049,0.0248,0.0,0.0,0.0,0.0,0.0,0.0,0.0,0.0,0.0,0.0,0.0,0.0,0.0,0.0,0.0,0.0,0.0,0.0,0.0,0.0,0.0,0.0,0.0,0.0,0.0,0.0,0.0,0.0,0.0,0.0,0.0,0.0,0.0,0.0,0.0,0.0,0.0,0.0,0.0,0.0,0.0,0.0,0.0,0.0,0.0,0.0,0.0,0.0,0.0,0.0,0.0,0.0,0.0,0.0,0.0,0.0,0.7452,0.903,1.0804,1.2885,1.3238,1.3262,1.3092,1.206,1.0915,0.0,0.0,0.0,0.0,0.0,0.0,0.0,0.0,0.0,0.0,0.0,0.0,0.0,0.0,0.0,0.0,0.0,0.0,0.0,0.0,0.0,0.0,0.0,0.0,0.0,0.0,0.0,0.0,0.0,0.0,0.0,0.0,0.0,0.0,0.0,0.0,0.0,0.0,0.0,0.0,0.0,0.173,0.174,0.1256,0.0876,0.0,0.0,0.0,0.0926,0.1058,0.0,0.0,0.0,0.0,0.0,0.0,0.0,0.0,0.0,0.0,0.0,0.0,0.0,0.0,0.0,0.0,0.0,0.0,0.0,0.0,0.0,0.0,0.0,0.0,0.0,0.0,0.0,0.0,0.0,0.0,0.0,0.0,0.0,0.0,0.0,0.0,0.0,0.0,0.0,0.0,0.0,0.0,0.0,0.0,0.0,0.0,0.0,0.0,0.0,0.0,0.0,0.0,0.0,0.0,0.0,0.0,0.7437,0.9493,1.1475,1.323,1.3838,1.4122,1.379,1.2627,1.1475,0.0,0.0,0.0,0.0,0.0,0.0,0.0,0.0,0.0,0.0,0.0,0.0,0.0,0.0,0.0,0.0,0.0,0.0,0.0,0.0,0.0,0.0,0.0,0.0,0.0,0.0,0.0,0.0,0.0,0.0,0.0,0.0,0.0,0.0,0.0,0.0,0.0,0.0,0.0,0.0,0.0,0.0,0.1876,0.1615,0.0,0.0,0.0,0.1302,0.1116,0.0,0.0,0.0,0.0,0.0,0.0,0.0,0.0,0.0,0.0,0.0,0.0,0.0,0.0,0.0,0.0,0.0,0.0,0.0,0.0,0.0,0.0,0.0,0.0,0.0,0.0,0.0,0.0,0.0,0.0,0.0,0.0,0.0,0.0,0.0,0.0,0.0,0.0,0.0,0.0,0.0,0.0,0.0,0.0,0.0,0.0,0.0,0.0,0.0,0.0,0.0,0.0,0.0,0.0,0.0,0.0,0.0,0.7327,0.9781,1.1792,1.336,1.4423,1.4545,1.4095,1.3075,0.0,0.0,0.0,0.0,0.0,0.0,0.0,0.0,0.0,0.0,0.0,0.0,0.0,0.0,0.0,0.0,0.0,0.0,0.0,0.0,0.0,0.0,0.0,0.0,0.0,0.0,0.0,0.0,0.0,0.0,0.0,0.0,0.0,0.0,0.0,0.0,0.0,0.0,0.0,0.0,0.0,0.0,0.1822,0.2002,0.1883,0.1692,0.0,0.0,0.1683,0.1324,0.1585,0.1771,0.0,0.0,0.0,0.0,0.0,0.0,0.0,0.0,0.0,0.0,0.0,0.0,0.0,0.0,0.0,0.0,0.0,0.0,0.0,0.0,0.0,0.0,0.0,0.0,0.0,0.0,0.0,0.0,0.0,0.0,0.0,0.0,0.0,0.0,0.0,0.0,0.0,0.0,0.0,0.0,0.0,0.0,0.0,0.0,0.0,0.0,0.0,0.0,0.0,0.0,0.0,0.0,0.0,0.0,0.0,0.7475,0.9131,1.1114,1.3368,1.4403,1.4466,1.3251,1.313,1.2116,0.0,0.0,0.0,0.0,0.0,0.0,0.0,0.0,0.0,0.0,0.0,0.0,0.0,0.0,0.0,0.0,0.0,0.0,0.0,0.0,0.0,0.0,0.0,0.0,0.0,0.0,0.0,0.0,0.0,0.0,0.0,0.0,0.0,0.0,0.0,0.0,0.0,0.0,0.0,0.0,0.0,0.1899,0.2108,0.198,0.1919,0.0,0.0,0.1951,0.1921,0.2034,0.2,0.1626,0.0,0.0,0.0,0.0,0.0,0.0,0.0,0.0,0.0,0.0,0.0,0.0,0.0,0.0,0.0,0.0,0.0,0.0,0.0,0.0,0.0,0.0,0.0,0.0,0.0,0.0,0.0,0.0,0.0,0.0,0.0,0.0,0.0,0.0,0.0,0.0,0.0,0.0,0.0,0.0,0.0,0.0,0.0,0.0,0.0,0.0,0.0,0.0,0.0,0.0,0.0,0.0,0.0,0.481,0.7385,0.9026,1.1249,1.3891,1.488,1.5266,1.5297,1.4248,1.2906,0.0,0.0,0.0,0.0,0.0,0.0,0.0,0.0,0.0,0.0,0.0,0.0,0.0,0.0,0.0,0.0,0.0,0.0,0.0,0.0,0.0,0.0,0.0,0.0,0.0,0.0,0.0,0.0,0.0891,0.0899,0.0925,0.0,0.0,0.0,0.0,0.0,0.0,0.0,0.0,0.0,0.0,0.2489,0.2278,0.2552,0.0,0.0,0.2083,0.2222,0.253,0.2319,0.2129,0.2267,0.1805,0.0,0.0,0.0,0.0,0.0,0.0,0.0,0.0,0.0,0.0,0.0,0.0,0.0,0.0,0.0,0.0,0.0,0.0,0.0,0.0,0.0,0.0,0.0,0.0,0.0,0.0,0.0,0.0,0.0,0.0,0.0,0.0,0.0,0.0,0.0,0.0,0.0,0.0,0.0,0.0,0.0,0.0,0.0,0.0,0.0,0.0,0.0,0.0,0.0,0.0,0.0,0.0,0.4728,0.7271,0.8859,1.1185,1.4222,1.5165,1.5827,1.6017,1.4828,1.3489,0.0,0.0,0.0,0.0,0.0,0.0,0.0,0.0,0.0,0.0,0.0,0.0,0.0,0.0,0.0,0.0,0.0,0.0,0.0,0.0,0.0,0.0,0.0,0.0,0.0,0.0,0.0,0.0,0.1055,0.1046,0.0914,0.0,0.0,0.0,0.0,0.0,0.0,0.0,0.0,0.0,0.0,0.3215,0.3026,0.3218,0.3164,0.2254,0.2296,0.2571,0.2712,0.2581,0.2378,0.2455,0.0,0.0,0.0,0.0,0.0,0.0,0.0,0.0,0.0,0.0,0.0,0.0,0.0,0.0,0.0,0.0,0.0,0.0,0.0,0.0,0.0,0.0,0.0,0.0,0.0,0.0,0.0,0.0,0.0,0.0,0.0,0.0,0.0,0.0,0.0,0.0,0.0,0.0,0.0,0.0,0.0,0.0,0.0,0.0,0.0,0.0,0.0,0.0,0.0,0.0,0.0,0.0,0.0,0.0,0.7271,0.8775,1.103,1.404,1.5229,1.5555,1.4988,1.4852,1.3882,1.2069,0.0,0.0,0.0,0.0,0.0,0.0,0.0,0.0,0.0,0.0,0.0,0.0,0.0,0.0,0.0,0.0,0.0,0.0,0.0,0.0,0.0,0.0,0.0,0.0,0.0,0.0,0.0997,0.103,0.0952,0.0,0.0,0.0,0.0,0.0,0.0,0.0,0.0,0.0,0.0,0.2108,0.3799,0.4616,0.4014,0.3133,0.2252,0.2836,0.2967,0.2296,0.2714,0.2911,0.0,0.0,0.0,0.0,0.0,0.0,0.0,0.0,0.0,0.0,0.0,0.0,0.0,0.0,0.0,0.0,0.0,0.0,0.0,0.0,0.0,0.0,0.0,0.0,0.0,0.0,0.0,0.0,0.3574,0.0,0.0,0.0,0.0,0.0,0.0,0.0,0.0,0.0,0.0,0.0,0.726,0.7512,0.0,0.0,0.0,0.0,0.0,0.0,0.0,0.0,0.0,0.0,0.0,0.0,0.481,0.7292,0.8811,1.1329,1.4882,1.5306,1.5952,1.6676,1.6055,1.4411,1.1846,0.0,0.0,0.0,0.0,0.0,0.0,0.0,0.0,0.0,0.0,0.0,0.0,0.0,0.0,0.0,0.0,0.0,0.0,0.0,0.0,0.0,0.0,0.0,0.0,0.0,0.1087,0.0,0.0,0.0,0.0,0.0,0.0,0.0,0.0,0.0,0.0,0.0,0.1126,0.1074,0.2947,0.4422,0.4619,0.4365,0.3885,0.0,0.0,0.0,0.0,0.0,0.0,0.0,0.0,0.0,0.0,0.0,0.0,0.0,0.0,0.1322,0.0775,0.0572,0.0478,0.0,0.0,0.0,0.0,0.0,0.0,0.0,0.0,0.0,0.0,0.0,0.0,0.0,0.0,0.0,0.0,0.0,0.5761,0.0,0.0,0.0,0.0,0.0,0.0,0.0,0.0,0.776,0.8426,0.8788,0.9061,0.9145,0.0,0.8601,0.767,0.0,0.0,0.0,0.0,0.0,0.0,0.0,0.0,0.4916,0.7249,0.8711,1.1461,1.5278,1.5375,1.6047,1.7459,1.6347,1.445,1.1964,1.0272,0.895,0.0,0.0,0.0,0.0,0.0,0.0,0.0,0.0,0.0,0.0,0.0,0.0,0.0,0.0,0.0,0.0,0.0,0.0,0.0,0.0,0.0,0.0,0.0,0.1274,0.0,0.0,0.0,0.0,0.0,0.0,0.0,0.0,0.0,0.1431,0.148,0.1552,0.152,0.3865,0.5349,0.5232,0.0,0.0,0.0,0.0,0.0,0.0,0.0,0.4637,0.4658,0.3735,0.2858,0.2579,0.2273,0.1954,0.1974,0.0,0.0,0.13,0.1149,0.1033,0.0907,0.1057,0.1116,0.1021,0.1058,0.1095,0.0,0.0,0.0,0.0,0.0,0.0,0.0,0.0,0.6559,0.7038,0.0,0.7406,0.0,0.0,0.0,0.0,0.0,0.0,0.0,0.0,1.0166,1.0891,1.0745,1.0923,1.1013,0.0,1.0421,0.9746,0.8947,0.7224,0.0,0.0,0.0,0.0,0.0,0.0,0.4928,0.7165,0.8723,1.141,1.511,1.5567,1.6251,1.7278,1.5634,1.4042,1.2508,1.1549,1.0339,0.895,0.0,0.0,0.0,0.0,0.0,0.0,0.0,0.0,0.0,0.0,0.0,0.0,0.0,0.0,0.0,0.0,0.0,0.0,0.0,0.0,0.0,0.125,0.0,0.0,0.0,0.0,0.0,0.0,0.0,0.0,0.0,0.0,0.1739,0.1669,0.1593,0.1744,0.0,0.0,0.0,0.0,0.5494,0.4612,0.5096,0.5391,0.4657,0.5078,0.5338,0.4674,0.0,0.0,0.2288,0.2184,0.2209,0.2206,0.221,0.2027,0.1884,0.1728,0.1696,0.1731,0.1804,0.1877,0.1866,0.1802,0.1984,1.1002,0.0,0.0,0.0,0.0,0.7983,0.8437,0.8621,1.0138,1.0448,0.9931,1.0222,0.0,0.0,0.0,0.0,0.0,0.0,0.916,1.0007,1.0948,1.1451,1.1654,1.1963,1.2044,1.1914,1.1559,1.1216,1.0632,0.9809,0.7916,0.5058,0.0,0.0,0.0,0.0,0.5422,0.7863,0.9481,1.1987,1.5441,1.5903,1.6654,1.7873,1.5923,1.4761,1.4491,1.2768,1.1305,1.0396,0.9665,0.0,0.0,0.0,0.0,0.0,0.0,0.0,0.0,0.0,0.0,0.0,0.0,0.0,0.0,0.0,0.0,0.0,0.0,0.0,0.19,0.1501,0.1657,0.0,0.0,0.0,0.0,0.0,0.0,0.0,0.0,0.0,0.2009,0.2626,0.3052,0.0,0.0,0.6533,0.5658,0.5712,0.5831,0.5487,0.0,0.0,0.0,0.6295,0.6356,0.6032,0.5285,0.4512,0.4115,0.3732,0.3475,0.3331,0.3164,0.2972,0.2338,0.2067,0.1967,0.194,0.1992,0.2064,0.2117,0.2153,0.2187,1.431,1.2634,1.1175,1.0095,0.9422,1.0272,1.089,1.12,1.2487,1.2802,1.2631,1.2733,1.1971,1.0538,0.9402,0.0,0.0,0.0,1.0374,1.139,1.1792,1.2109,1.245,1.267,1.2718,1.2605,1.2361,1.2057,1.1705,1.0982,0.9476,0.0,0.0,0.0,0.4392,0.4646,0.5799,0.7796,1.0156,1.274,1.5672,1.6591,1.7339,1.7927,1.6251,1.5233,1.5252,1.35,1.2166,1.133,1.0729,0.9746,0.0,0.0,0.0,0.0,0.0,0.0,0.0,0.0,0.0,0.0,0.0,0.1443,0.0,0.0,0.0,0.0,0.1474,0.1951,0.2658,0.2388,0.0,0.0,0.0,0.0,0.0,0.0,0.0,0.1621,0.1771,0.2051,0.2617,0.3439,0.4147,0.4274,0.584,0.6692,0.5975,0.0,0.6421,0.6387,0.6413,0.6597,0.7088,0.7011,0.6941,0.6941,0.6443,0.5779,0.5075,0.5118,0.5141,0.4384,0.3911,0.3435,0.2963,0.2544,0.2165,0.2136,0.2184,0.2248,0.2292,0.2308,0.2333,1.6969,1.6519,1.3702,1.2312,1.1961,1.2302,1.3021,1.4091,1.3897,1.438,1.5277,1.4703,1.4013,1.2969,1.1693,0.0,0.0,1.1017,1.1463,1.2377,1.2548,1.28,1.3108,1.3133,1.3133,1.31,1.2767,1.2475,1.22,1.124,1.0443,0.9912,0.7403,0.5955,0.5617,0.5795,0.63,0.7296,1.0746,1.3678,1.6234,1.7433,1.8003,1.7766,1.6422,1.5564,1.5035,1.3975,1.2873,1.1914,1.1492,1.0729,0.9518,0.0,0.0,0.0,0.0,0.0,0.0,0.0,0.0,0.0,0.0,0.0,0.0,0.0,0.0,0.0,0.2339,0.0,0.3345,0.3635,0.0,0.0,0.0,0.3402,0.3565,0.2523,0.0,0.1806,0.0,0.0,0.0,0.0,0.4994,0.5522,0.6582,0.7217,0.714,0.7315,0.726,0.7178,0.7252,0.7317,0.7325,0.7313,0.7305,0.7313,0.7317,0.6713,0.5641,0.6409,0.6709,0.5343,0.4416,0.381,0.3807,0.304,0.2564,0.233,0.2368,0.241,0.239,0.2405,0.2428,1.7798,1.7701,1.6729,1.5413,1.4071,1.4881,1.5112,1.4846,1.5659,1.6,1.6006,1.5771,1.5105,1.4209,1.3495,1.2964,1.2716,1.2291,1.2483,1.2905,1.3092,1.3222,1.3311,1.3449,1.3441,1.3295,1.3076,1.297,1.2821,1.2087,1.1698,1.1592,0.9568,0.7906,0.6837,0.6788,0.7556,0.9098,1.1946,1.4602,1.7183,1.7994,1.8239,1.8013,1.6499,1.5621,1.5621,1.3931,1.2848,1.2588,1.2109,1.1386,1.042,0.9185,0.0,0.0,0.0,0.0,0.0,0.0,0.0,0.0,0.0,0.2804,0.2765,0.0,0.3015,0.0,0.3853,0.4305,0.0,0.4256,0.0,0.0,0.0,0.482,0.4256,0.3021,0.2195,0.1994,0.2106,0.2487,0.3435,0.4238,0.5107,0.577,0.6762,0.7223,0.7125,0.737,0.7533,0.7468,0.7615,0.7746,0.7672,0.7672,0.7664,0.7513,0.7509,0.7354,0.7027,0.7354,0.7354,0.6394,0.5915,0.5274,0.4152,0.3679,0.3349,0.2684,0.2474,0.2429,0.2444,0.2472,0.2499,1.825,1.8229,1.7992,1.736,1.6614,1.687,1.676,1.6532,1.6976,1.712,1.7087,1.684,1.6276,1.5539,1.4885,1.4355,1.3822,1.3269,1.3076,1.3344,1.3441,1.353,1.3604,1.3628,1.3595,1.349,1.3303,1.3222,1.3206,1.2618,1.2437,1.2531,1.0871,0.949,0.8253,0.8336,0.9281,1.1042,1.4196,1.64,1.7759,1.7962,1.7854,1.7938,1.6148,1.5236,1.5441,1.363,1.2564,1.2475,1.2036,1.1459,1.072,0.973,0.8779,0.0,0.0,0.0,0.0,0.0,0.0,0.0,0.0,0.0,0.0,0.0,0.4304,0.0,0.0,0.0,0.4386,0.5805,0.782,1.0339,0.8942,0.7266,0.5659,0.4243,0.3068,0.2315,0.2255,0.2768,0.4052,0.4723,0.5435,0.6571,0.719,0.7582,0.7468,0.7607,0.7705,0.7664,0.7778,0.786,0.7803,0.7799,0.7799,0.7799,0.7633,0.7633,0.7799,0.7799,0.7799,0.7151,0.6823,0.6178,0.5202,0.4555,0.3905,0.3566,0.2869,0.2515,0.2525,0.2541,0.256,1.853,1.8509,1.8315,1.8466,1.8778,1.8164,1.8013,1.8164,1.7884,1.7873,1.8035,1.7809,1.7318,1.6641,1.5827,1.5146,1.4455,1.3779,1.3465,1.3644,1.3644,1.3734,1.3896,1.375,1.3677,1.3669,1.349,1.3401,1.3409,1.3078,1.2795,1.2811,1.1964,1.0869,0.9637,1.0245,1.1319,1.2988,1.6392,1.8186,1.8142,1.7607,1.7493,1.7516,1.5779,1.4745,1.4754,1.3216,1.2307,1.1996,1.1679,1.1297,1.0842,1.0136,0.938,0.0,0.7793,0.0,0.0,0.0,0.0,0.0,0.0,0.0,0.0,0.546,0.5881,0.6282,0.7697,0.7749,0.5541,0.8055,1.0842,1.3172,1.225,1.0066,0.7314,0.5563,0.4144,0.2484,0.2523,0.3184,0.4834,0.5238,0.5947,0.7313,0.7705,0.7876,0.784,0.7815,0.7815,0.7815,0.7827,0.7864,0.7852,0.784,0.7844,0.8002,0.8011,0.7831,0.7844,0.8006,0.8002,0.784,0.7029,0.6537,0.6367,0.5229,0.4252,0.4091,0.3266,0.2605,0.2597,0.26,0.2607,1.9015,1.9015,1.8972,1.9004,1.9068,1.8939,1.8789,1.8616,1.8207,1.7938,1.7787,1.7744,1.7318,1.6641,1.5827,1.5137,1.4455,1.3642,1.3474,1.3644,1.3644,1.3734,1.3896,1.3872,1.3855,1.3847,1.3677,1.3595,1.3587,1.3158,1.3086,1.3223,1.295,1.1913,0.0,0.0,0.0,0.0,1.6167,1.7117,1.8229,1.809,1.7696,1.7169,0.0,0.0,1.4024,1.3277,1.2496,1.1833,1.1614,0.0,0.0,0.0,0.0,0.0,0.0,0.0,0.0,0.0,0.0,0.0,0.8941,0.8461,0.7958,0.8368,0.8903,0.953,1.0263,1.0834,1.1195,1.1293,1.2204,1.4431,1.4369,1.2431,0.7898,0.6205,0.4831,0.2708,0.3067,0.4048,0.5022,0.5753,0.6668,0.7561,0.7921,0.7958,0.8003,0.795,0.7909,0.7913,0.7958,0.8007,0.8011,0.8003,0.7995,0.8011,0.8011,0.8007,0.8003,0.8007,0.8007,0.8003,0.7346,0.6506,0.584,0.4843,0.3838,0.3176,0.2842,0.266,0.2613,0.2622,0.2638,1.9155,0.0,1.9155,0.0,0.0,0.0,1.9316,1.9284,1.8939,1.8713,1.8595,1.8476,1.8142,1.7721,1.6583,1.5877,1.5584,1.4457,1.3945,1.4034,1.4034,1.4075,1.4164,1.4164,1.4164,1.4156,1.4075,1.4034,1.4018,1.3758,1.3677,1.3766,1.3021,1.1938,1.0437,1.21,1.3928,1.6018,1.6545,1.7308,1.8293,1.7896,1.7451,1.6803,0.0,0.0,0.0,0.0,0.0,0.0,0.0,0.0,0.0,0.0,0.0,1.0358,1.045,1.0615,1.0932,1.0938,1.1091,1.1479,1.1633,1.1009,0.9774,1.0377,1.1034,1.1484,1.1751,1.2305,1.3189,1.2673,1.2989,1.471,1.3182,1.0733,0.8248,0.6412,0.4657,0.2962,0.332,0.4155,0.5112,0.5997,0.6895,0.76,0.7974,0.8015,0.8048,0.8027,0.7999,0.7999,0.8032,0.806,0.806,0.806,0.8064,0.806,0.806,0.806,0.806,0.806,0.806,0.806,0.7725,0.7056,0.6214,0.5041,0.4034,0.3703,0.3212,0.2706,0.2673,0.2669,0.2669,1.9316,1.9273,1.9316,1.9424,1.9564,1.9607,1.979,2.0016,0.0,0.0,0.0,1.923,1.8998,1.856,1.737,1.6636,1.6342,1.5015,1.4432,1.4432,1.4432,1.4432,1.4432,1.4432,1.4432,1.4432,1.4432,1.4432,1.4424,1.4261,1.418,1.4019,1.2865,1.1859,1.1263,1.1824,1.3529,1.6444,1.7146,1.7845,1.8421,1.7814,1.7177,1.6763,1.5287,1.4174,1.3655,1.3146,1.2499,1.1987,1.2056,1.2021,1.1459,1.1459,1.124,1.1059,1.1447,1.202,1.2419,1.2718,1.3019,1.3522,1.3693,1.3093,1.1359,1.1988,1.257,1.2854,1.3027,1.3396,1.3866,1.3412,1.3557,1.4843,1.1296,0.8674,0.8524,0.6427,0.4447,0.3207,0.3723,0.4404,0.5381,0.6256,0.7139,0.7655,0.8048,0.8097,0.8101,0.8081,0.8052,0.8056,0.8076,0.8093,0.8089,0.8113,0.8109,0.8125,0.8121,0.8109,0.8109,0.8109,0.8109,0.8125,0.8109,0.7443,0.6593,0.5248,0.4396,0.4229,0.3409,0.2746,0.2743,0.2727,0.271,1.993,1.9768,1.9973,1.9962,1.9822,2.0027,2.0361,2.0673,1.9865,1.9391,1.9198,1.9165,1.8414,1.7077,1.693,0.0,1.4728,1.4432,1.4432,0.0,1.4432,1.4432,1.4432,1.4432,1.4432,1.4432,1.4432,1.4432,1.4416,1.4261,1.418,1.4035,1.2976,1.2597,1.3178,1.2466,1.3932,1.7573,1.7865,1.8311,1.8902,1.8114,1.746,1.7197,1.5981,1.4773,1.3988,1.3611,1.302,1.2239,1.2307,1.2348,1.2369,1.2377,1.2242,1.2111,1.2584,1.3251,1.4064,1.385,1.388,1.4237,1.431,1.3914,1.3351,1.3601,1.3977,1.4026,1.4019,1.4211,1.4271,1.4294,1.446,1.5074,1.1513,0.8889,0.8988,0.6971,0.5218,0.3897,0.4586,0.5278,0.5946,0.6995,0.7905,0.7969,0.8166,0.8203,0.824,0.8158,0.8072,0.8072,0.813,0.8174,0.8187,0.8248,0.8272,0.8125,0.8113,0.8272,0.8272,0.8272,0.8272,0.8289,0.7757,0.6901,0.6043,0.5016,0.4144,0.3626,0.3118,0.295,0.2777,0.2773,0.277,2.0145,2.0059,2.0167,2.007,1.9865,2.0113,2.0328,2.049,2.0081,1.9898,1.9887,1.965,1.8926,1.7712,1.7264,1.6514,1.532,1.4867,1.4724,1.4716,1.4724,1.4716,1.4724,1.4716,1.4716,1.4724,1.4724,1.4724,1.47,1.4448,1.4318,1.4171,1.2388,1.1722,1.2306,1.2835,1.4533,1.7553,1.793,1.8404,1.9009,1.8166,1.7414,1.691,1.5858,1.4937,1.3976,1.4052,1.378,1.3035,1.3294,1.3511,1.3279,1.3384,1.3221,1.2943,1.3475,1.408,1.4633,1.4621,1.47,1.4862,1.5147,1.513,1.4692,1.444,1.4399,1.4586,1.4517,1.4517,1.4625,1.5055,1.5458,1.5714,1.2622,1.0238,0.8922,0.655,0.4614,0.411,0.4804,0.5516,0.6221,0.7267,0.817,0.8081,0.8272,0.8465,0.833,0.8268,0.8211,0.8215,0.8248,0.8268,0.8272,0.8305,0.833,0.8334,0.8334,0.8334,0.8334,0.8338,0.8338,0.8334,0.7992,0.7468,0.6602,0.6079,0.5212,0.3827,0.3671,0.3505,0.2984,0.2819,0.2826,2.0339,2.0296,2.035,2.0253,2.0102,2.0285,2.0404,2.0447,2.0404,2.028,2.0167,1.9743,1.9077,1.8319,1.7559,1.6644,1.588,1.5267,1.4968,1.4968,1.4968,1.4968,1.4968,1.4968,1.4968,1.4968,1.4968,1.4968,1.4927,1.4603,1.4136,1.3386,1.1593,1.0932,1.1396,1.2867,1.5072,1.7531,1.813,1.8707,1.9158,1.8265,1.7429,1.6933,1.5749,1.4933,1.4314,1.4449,1.4381,1.3823,1.424,1.4441,1.401,1.4156,1.4099,1.3846,1.43,1.4785,1.5126,1.5343,1.5423,1.5431,1.5804,1.5894,1.552,1.5009,1.4781,1.5041,1.4764,1.4891,1.5154,1.5561,1.5922,1.5803,1.3746,1.1335,0.9183,0.6298,0.4347,0.4519,0.5222,0.5948,0.6669,0.7544,0.8093,0.8169,0.8383,0.8569,0.8395,0.8395,0.8395,0.8391,0.8379,0.8366,0.8366,0.8391,0.8403,0.8399,0.8403,0.8415,0.8411,0.8403,0.8399,0.8407,0.8407,0.7887,0.7178,0.7003,0.6133,0.4564,0.406,0.39,0.3017,0.2853,0.2866,2.0716,2.0576,2.0737,2.0834,2.077,2.0813,2.0942,2.1103,2.0931,2.0253,1.9427,1.8968,1.8329,1.7407,1.6635,1.588,1.5122,1.5122,1.4968,1.4968,1.4968,1.4968,1.4968,1.4968,1.4968,1.4968,1.4968,1.496,1.4935,1.4603,1.3237,1.1294,1.0847,1.1271,1.2259,1.3223,1.5225,1.8471,1.9348,1.9779,1.9779,1.826,1.7699,1.809,1.5852,1.5018,1.5268,1.4801,1.4359,1.4359,1.4359,1.4367,1.4399,1.4408,1.4497,1.4818,1.483,1.5195,1.5796,1.5943,1.5943,1.5975,1.6016,1.5926,1.5593,1.5472,1.5423,1.548,1.548,1.5393,1.5554,1.5594,1.5674,1.5827,1.3624,1.1536,0.9488,0.7031,0.5534,0.5534,0.6212,0.7104,0.7795,0.8153,0.8362,0.8444,0.8513,0.855,0.8554,0.8554,0.8554,0.8554,0.8513,0.8464,0.8464,0.853,0.855,0.8566,0.8579,0.8562,0.8554,0.8558,0.8579,0.853,0.8562,0.8199,0.767,0.7153,0.6605,0.4986,0.4287,0.3941,0.3227,0.2871,0.287,2.0845,2.078,2.0867,2.0823,2.0727,2.0845,2.0963,2.1039,2.0953,2.0369,1.9462,1.868,1.7634,1.6644,1.6339,1.5727,1.4968,1.4968,1.4968,1.4968,1.4968,1.4968,1.4968,1.4968,1.4968,1.4968,1.4968,1.4911,1.4789,1.4554,1.3133,1.1114,1.0818,1.1213,1.1843,1.3077,1.5072,1.7854,1.9229,1.9693,1.9077,1.8016,1.7208,1.6991,1.5616,1.4982,1.5211,1.49,1.4797,1.4903,1.5017,1.5122,1.522,1.5325,1.5366,1.535,1.5466,1.5423,1.5707,1.5829,1.5926,1.604,1.6243,1.6292,1.617,1.6243,1.6267,1.6137,1.5959,1.5934,1.602,1.5902,1.5766,1.5501,1.2834,1.0304,0.9284,0.709,0.5559,0.5732,0.6425,0.7317,0.8058,0.8464,0.8509,0.855,0.8591,0.8607,0.8607,0.8607,0.8607,0.8603,0.8575,0.8554,0.8554,0.8579,0.8607,0.8607,0.8607,0.8607,0.8607,0.8607,0.8607,0.8607,0.8607,0.8429,0.8238,0.7889,0.7531,0.5562,0.3951,0.3412,0.2874,0.2874,0.2874,2.1007,2.1007,2.1007,2.091,2.078,2.0931,2.1007,2.1007,2.1007,2.0335,1.9304,1.85,1.729,1.6061,1.5983,1.5675,1.5106,1.5065,1.5065,1.5106,1.5065,1.5041,1.5033,1.4984,1.4968,1.496,1.4919,1.4781,1.4578,1.4432,1.326,1.1283,1.0842,1.1085,1.1386,1.2923,1.4927,1.7398,1.9077,1.9411,1.8399,1.7798,1.7005,1.6195,1.542,1.4968,1.4968,1.5017,1.5098,1.5228,1.5415,1.5569,1.5699,1.5829,1.5861,1.578,1.5876,1.5876,1.5796,1.5967,1.6121,1.6267,1.6519,1.6633,1.6617,1.6706,1.6738,1.6649,1.6422,1.6381,1.635,1.6228,1.605,1.5546,1.1927,0.9194,0.8865,0.6983,0.5613,0.5783,0.6498,0.7377,0.8148,0.8558,0.8599,0.8603,0.8607,0.8607,0.8607,0.8607,0.8607,0.8607,0.8607,0.8607,0.8607,0.8607,0.8607,0.8607,0.8607,0.8607,0.8607,0.8607,0.8607,0.8607,0.8607,0.8607,0.8429,0.825,0.7531,0.5741,0.4128,0.3053,0.2874,0.2874,0.2875,2.1265,2.1254,2.1254,2.1233,2.1243,2.1243,2.1254,2.1233,2.1254,2.0159,1.8702,1.8513,1.7262,1.5638,1.5474,1.5317,1.5439,1.5293,1.5301,1.5415,1.5293,1.5228,1.5212,1.5049,1.4976,1.5,1.4862,1.4603,1.427,1.4221,1.3096,1.0859,1.0739,1.0854,1.1528,1.2944,1.4927,1.7292,1.8977,1.9202,1.799,1.7709,1.7152,1.6239,1.5437,1.4992,1.5,1.5139,1.5236,1.5244,1.5431,1.5528,1.5545,1.5561,1.565,1.578,1.627,1.651,1.6454,1.6454,1.6747,1.6787,1.6787,1.6771,1.6649,1.6657,1.6722,1.682,1.6803,1.6738,1.6633,1.6641,1.6275,1.5413,1.1496,0.9109,0.879,0.6744,0.5904,0.5904,0.6608,0.7677,0.8417,0.8603,0.8607,0.8607,0.8607,0.8607,0.8607,0.8607,0.8607,0.8607,0.8607,0.8607,0.8607,0.8607,0.8607,0.8607,0.8607,0.8611,0.8607,0.8607,0.8611,0.8611,0.8607,0.8607,0.8429,0.771,0.6458,0.5025,0.3769,0.3053,0.2883,0.2878,0.2882,2.1276,2.1276,2.1276,2.1276,2.1276,2.1276,2.1276,2.1276,2.1276,2.0251,1.8722,1.8541,1.753,1.5845,1.5666,1.5488,1.5358,1.539,1.539,1.5358,1.539,1.5415,1.5415,1.5342,1.5317,1.5293,1.513,1.4862,1.4554,1.4513,1.3342,1.129,1.1066,1.1195,1.1654,1.3078,1.5147,1.762,1.8892,1.8942,1.7908,1.7299,1.6634,1.5789,1.5474,1.5317,1.5317,1.5382,1.5463,1.5569,1.5642,1.574,1.5837,1.5853,1.5934,1.6097,1.6344,1.6492,1.6366,1.6641,1.673,1.6844,1.6852,1.6885,1.6917,1.6917,1.695,1.6998,1.7015,1.6974,1.6942,1.6917,1.604,1.3934,1.0781,0.7983,0.6941,0.5722,0.5025,0.5741,0.6994,0.825,0.8437,0.8611,0.8607,0.8607,0.8611,0.8611,0.8607,0.8607,0.8615,0.8611,0.8607,0.8607,0.8607,0.8607,0.8607,0.8607,0.8611,0.8611,0.8611,0.8619,0.8619,0.8644,0.864,0.8281,0.793,0.6845,0.5763,0.4679,0.3422,0.3074,0.2897,0.2901,0.2912,2.1276,2.1276,2.1276,2.1276,2.1276,2.1276,2.1276,2.1276,2.0952,2.013,1.8818,1.8328,1.7355,1.6188,1.5918,1.5699,1.5439,1.5488,1.5504,1.5496,1.5512,1.5545,1.5585,1.5545,1.5512,1.5488,1.5325,1.5057,1.4749,1.4708,1.3369,1.1121,1.1213,1.1341,1.1798,1.3239,1.5192,1.7372,1.8661,1.8848,1.7799,1.7022,1.6427,1.5835,1.5683,1.5626,1.5528,1.5569,1.565,1.5764,1.5878,1.6024,1.6194,1.6219,1.6267,1.6381,1.6623,1.6535,1.6478,1.6714,1.6812,1.6917,1.6942,1.6998,1.7096,1.7112,1.7112,1.7112,1.7112,1.7112,1.7112,1.7104,1.6064,1.3249,0.9487,0.6822,0.6143,0.5072,0.5077,0.6166,0.7617,0.8505,0.8656,0.8652,0.864,0.8615,0.8628,0.8648,0.8648,0.8648,0.8648,0.8644,0.8624,0.8615,0.8607,0.8607,0.8611,0.8611,0.8619,0.8619,0.8648,0.8648,0.866,0.8681,0.8328,0.7967,0.7245,0.6157,0.507,0.4165,0.3454,0.2924,0.2927,0.293,0.2941,2.1276,2.1276,2.1276,2.1276,2.1276,2.1276,2.1276,2.1114,2.0455,1.9622,1.8617,1.7828,1.6983,1.6172,1.5959,1.5894,1.5707,1.5569,1.5658,1.5878,1.5658,1.561,1.5715,1.5577,1.5496,1.548,1.5325,1.5057,1.4749,1.4589,1.3435,1.1547,1.1113,1.1409,1.1814,1.3394,1.4995,1.6969,1.8581,1.8481,1.719,1.6895,1.6657,1.5991,1.6008,1.5861,1.5561,1.5707,1.5796,1.5829,1.6113,1.6381,1.6511,1.6527,1.639,1.66,1.6918,1.6844,1.6703,1.6832,1.7088,1.7104,1.7104,1.7088,1.7104,1.7112,1.7112,1.7112,1.7112,1.7112,1.7112,1.7112,1.6287,1.3918,0.8297,0.5258,0.6055,0.5539,0.5175,0.7006,0.8106,0.864,0.8762,0.8734,0.8713,0.8673,0.8697,0.8919,0.8919,0.8738,0.8738,0.8713,0.8673,0.864,0.8624,0.8611,0.8611,0.8615,0.8632,0.8644,0.8713,0.8738,0.8758,0.8779,0.8057,0.7509,0.5861,0.4947,0.4404,0.3674,0.3133,0.2953,0.2958,0.2962,0.2966,2.1276,2.1276,2.1276,2.1276,2.1276,2.1276,2.1276,2.1276,2.0455,1.9391,1.8465,1.7638,1.6606,1.586,1.5683,1.565,1.5593,1.5545,1.5577,1.5675,1.5683,1.5658,1.5601,1.5545,1.5447,1.5333,1.5268,1.5122,1.4927,1.4887,1.3737,1.1679,1.139,1.1842,1.2734,1.3872,1.5538,1.7791,1.8617,1.8341,1.7267,1.6613,1.6155,1.604,1.6048,1.5983,1.5902,1.6048,1.6081,1.5975,1.63,1.6519,1.6568,1.6584,1.6641,1.6771,1.7115,1.7279,1.7025,1.7073,1.7283,1.7089,1.7001,1.712,1.7112,1.712,1.712,1.7112,1.7112,1.7112,1.7112,1.7112,1.5779,1.2861,0.8685,0.5823,0.5539,0.5552,0.61,0.7207,0.8316,0.8856,0.8836,0.8828,0.8628,0.86,0.8807,0.9011,0.9011,0.8828,0.8795,0.8746,0.8705,0.8668,0.8644,0.8636,0.864,0.866,0.8681,0.8722,0.8787,0.8832,0.8852,0.8324,0.7778,0.6672,0.5002,0.4078,0.3714,0.3339,0.315,0.2975,0.2988,0.2995,0.2998,2.1276,2.1276,2.1276,2.1276,2.1276,2.1276,2.1276,2.1114,1.9967,1.9027,1.8219,1.7065,1.6157,1.5545,1.5512,1.5512,1.5512,1.5512,1.5512,1.5545,1.5691,1.574,1.5691,1.5634,1.552,1.5374,1.5342,1.5244,1.5074,1.4919,1.3871,1.1754,1.15,1.2103,1.3125,1.4171,1.5894,1.7983,1.8482,1.8174,1.7026,1.6377,1.6048,1.6056,1.6105,1.6137,1.6162,1.6373,1.6397,1.6251,1.6487,1.6698,1.6763,1.6787,1.6836,1.6942,1.7222,1.7345,1.7266,1.7258,1.7283,1.7081,1.7169,1.7112,1.7128,1.7161,1.721,1.7218,1.7097,1.7121,1.7315,1.7307,1.5764,1.2642,0.9494,0.716,0.5582,0.561,0.6547,0.7673,0.8606,0.8958,0.893,0.8922,0.8905,0.87,0.8901,0.9107,0.9107,0.8922,0.8877,0.882,0.8762,0.8722,0.8668,0.866,0.8668,0.8705,0.8932,0.8811,0.8881,0.8913,0.8938,0.768,0.6952,0.5829,0.4324,0.3945,0.3569,0.3182,0.299,0.3007,0.3024,0.3024,0.3026,2.1276,2.1276,2.1276,2.1276,2.1276,2.1276,2.1276,2.1114,1.9469,1.8703,1.8059,1.6546,1.565,1.552,1.5439,1.5423,1.548,1.548,1.5496,1.5561,1.5715,1.5845,1.5869,1.5723,1.5569,1.5472,1.5439,1.5366,1.5212,1.4867,1.3818,1.1646,1.1432,1.2043,1.3329,1.4281,1.5695,1.7554,1.8393,1.7909,1.6254,1.6105,1.6105,1.6113,1.6243,1.6316,1.6365,1.6617,1.6674,1.6446,1.6682,1.6893,1.7055,1.7104,1.708,1.7088,1.7112,1.7329,1.7329,1.7403,1.7218,1.7218,1.721,1.7145,1.721,1.7323,1.7396,1.7404,1.7322,1.723,1.7419,1.7041,1.5665,1.3216,0.9451,0.7084,0.645,0.6087,0.6835,0.836,0.9134,0.9109,0.9024,0.9016,0.8979,0.8946,0.8975,0.9007,0.9016,0.9016,0.9011,0.8946,0.8852,0.8803,0.8758,0.8734,0.875,0.882,0.8856,0.8905,0.8967,0.8999,0.8645,0.7376,0.6263,0.5133,0.4185,0.3793,0.3412,0.322,0.3035,0.305,0.305,0.3044,0.3043,2.1276,2.1276,2.1276,2.1276,2.1276,2.1276,2.1276,2.1114,1.9469,1.8703,1.8031,1.6435,1.5496,1.5309,1.5179,1.5114,1.5179,1.5277,1.5398,1.5553,1.5837,1.5821,1.565,1.548,1.5382,1.5325,1.5244,1.5155,1.5063,1.4197,1.2991,1.1604,1.0683,1.1769,1.4095,1.4765,1.6186,1.8247,1.8875,1.819,1.6601,1.6365,1.6438,1.6446,1.6487,1.6511,1.6519,1.673,1.6893,1.6901,1.6844,1.6933,1.7088,1.7112,1.7112,1.7128,1.7057,1.7121,1.7323,1.7421,1.7486,1.7314,1.7461,1.7502,1.7502,1.7543,1.7575,1.7583,1.7443,1.7467,1.7278,1.5811,1.3682,1.0835,0.8263,0.6801,0.7033,0.6669,0.6859,0.8573,0.9146,0.9126,0.9109,0.9097,0.9089,0.9069,0.9077,0.9101,0.9089,0.9089,0.9077,0.9024,0.895,0.8901,0.886,0.8828,0.8848,0.8934,0.8975,0.9003,0.9056,0.9093,0.8538,0.7612,0.6467,0.5332,0.4573,0.3806,0.3432,0.3052,0.3052,0.3052,0.3052,0.305,0.3048,2.1276,2.1276,2.1276,2.1276,2.1276,2.1276,2.1276,2.1114,1.9795,1.8865,1.8173,1.6703,1.5723,1.5236,1.513,1.513,1.5212,1.5301,1.5496,1.5764,1.6024,1.6032,1.5853,1.5666,1.5536,1.5447,1.5277,1.5277,1.5011,1.3975,1.2786,1.1653,1.0471,1.1564,1.4661,1.474,1.6045,1.8438,1.8885,1.7864,1.6607,1.6519,1.6568,1.66,1.6649,1.6714,1.6803,1.6909,1.699,1.6998,1.6974,1.7006,1.7096,1.7112,1.7112,1.712,1.7105,1.7202,1.7234,1.7543,1.7632,1.764,1.764,1.764,1.7648,1.7697,1.7754,1.7762,1.7819,1.7492,1.6567,1.4336,1.2151,1.0545,0.7778,0.6669,0.7429,0.6669,0.7049,0.8383,0.9146,0.9146,0.9146,0.9146,0.9146,0.9138,0.9126,0.9138,0.9138,0.9142,0.913,0.9077,0.9028,0.8971,0.893,0.8897,0.8905,0.8991,0.9048,0.9081,0.9105,0.9146,0.8573,0.7809,0.6859,0.5718,0.4766,0.3813,0.3434,0.3052,0.3052,0.3052,0.3052,0.3052,0.3052,2.1276,2.1276,2.1276,2.1276,2.1276,2.1276,2.1276,2.0952,2.013,1.9209,1.8068,1.7235,1.6148,1.5301,1.5382,1.5415,1.5536,1.5577,1.578,1.6016,1.6211,1.6259,1.6259,1.604,1.5894,1.5756,1.561,1.5504,1.4987,1.4025,1.2755,1.1535,1.0415,1.1683,1.4109,1.4358,1.5864,1.8461,1.8542,1.769,1.6787,1.6633,1.6665,1.6722,1.6812,1.6933,1.7031,1.7088,1.7047,1.6893,1.7031,1.7088,1.7112,1.712,1.7153,1.7193,1.7339,1.7437,1.7453,1.7599,1.7689,1.7697,1.7713,1.7697,1.7762,1.7867,1.794,1.794,1.8087,1.7173,1.5307,1.2887,1.1564,1.0441,0.7992,0.7049,0.7239,0.6859,0.6859,0.8763,0.9146,0.9146,0.9146,0.9146,0.9146,0.9146,0.9146,0.9146,0.9146,0.9142,0.9142,0.913,0.9081,0.9032,0.8999,0.8967,0.8987,0.9028,0.9085,0.9122,0.9122,0.8952,0.8573,0.7809,0.6859,0.5718,0.4766,0.4004,0.3243,0.3052,0.3052,0.3052,0.3052,0.3052,0.3052,2.1276,2.1276,2.1276,2.1276,2.1276,2.1276,2.0941,2.0292,1.9307,1.8472,1.7448,1.6588,1.5975,1.5666,1.5772,1.5829,1.5772,1.5878,1.6056,1.6227,1.6276,1.6389,1.6414,1.6202,1.604,1.5918,1.5666,1.5536,1.5026,1.3366,1.188,1.1529,0.9902,1.0677,1.4383,1.4508,1.5886,1.8687,1.8631,1.775,1.6959,1.6779,1.6836,1.695,1.7023,1.7063,1.7096,1.7112,1.7096,1.7071,1.7088,1.7112,1.7128,1.7242,1.7307,1.7356,1.7665,1.7772,1.7616,1.7746,1.7859,1.7867,1.7957,1.8062,1.8062,1.807,1.8111,1.8119,1.8152,1.6666,1.3833,1.215,1.0838,0.9707,0.8379,0.7619,0.8193,0.7239,0.7239,0.8573,0.9146,0.9146,0.9146,0.9146,0.9146,0.9146,0.9146,0.9146,0.9146,0.9146,0.9146,0.9146,0.9126,0.9081,0.9073,0.9044,0.9052,0.9065,0.9109,0.9142,0.9142,0.8952,0.8573,0.7809,0.6859,0.5718,0.4766,0.3815,0.3052,0.3052,0.3052,0.3052,0.3052,0.3052,0.3052,2.1276,2.1265,2.1157,2.1168,2.1243,2.0674,2.0362,1.9947,1.9144,1.822,1.7451,1.6913,1.6361,1.6024,1.6121,1.6146,1.6178,1.6243,1.6292,1.6316,1.63,1.6357,1.6397,1.6284,1.6162,1.6113,1.5902,1.5772,1.5062,1.3171,1.1888,1.1679,0.9331,1.0808,1.4365,1.4153,1.5828,1.8569,1.8312,1.7281,1.6868,1.6852,1.6933,1.7071,1.7112,1.7112,1.7112,1.7112,1.7161,1.7193,1.7161,1.7112,1.7145,1.7291,1.738,1.7421,1.7829,1.7944,1.7811,1.7924,1.8038,1.8038,1.8127,1.7779,1.7421,1.7048,1.6673,1.6681,1.6876,1.6688,1.3275,1.1023,0.9896,0.9328,0.8193,0.8003,0.8573,0.7809,0.7429,0.8763,0.9146,0.9146,0.9146,0.9146,0.9146,0.9146,0.9146,0.9146,0.9146,0.9146,0.9146,0.9146,0.9146,0.9134,0.9134,0.9126,0.9118,0.9122,0.913,0.9142,0.9142,0.8952,0.8763,0.7809,0.6669,0.5718,0.4766,0.3813,0.3052,0.3052,0.3052,0.3052,0.3052,0.3052,0.3052,2.1276,2.1265,2.105,2.106,2.0856,2.0087,1.9624,1.94,1.8808,1.7937,1.7434,1.7321,1.6734,1.65,1.643,1.6527,1.6609,1.6592,1.6535,1.6389,1.6316,1.6292,1.6267,1.6235,1.6211,1.6243,1.6081,1.6016,1.5303,1.3411,1.2037,1.1535,0.9464,1.0895,1.3974,1.4055,1.5228,1.8813,1.7975,1.6942,1.6901,1.6885,1.6933,1.7015,1.7096,1.7112,1.7112,1.712,1.7177,1.7323,1.7193,1.7128,1.7161,1.7307,1.7429,1.7445,1.7952,1.8125,1.7973,1.8079,1.816,1.8176,1.8176,1.7421,1.6479,1.5924,1.5355,1.4993,1.5187,1.5953,1.3864,1.1217,0.9522,0.8952,0.8379,0.8383,0.8763,0.8383,0.8383,0.8763,0.9146,0.9146,0.9146,0.9146,0.9146,0.9146,0.9146,0.9146,0.9146,0.9146,0.9146,0.9146,0.9146,0.9146,0.9146,0.9146,0.9146,0.8952,0.8952,0.9142,0.9142,0.8952,0.8763,0.7429,0.6479,0.5527,0.4766,0.3624,0.3243,0.3052,0.3052,0.3052,0.3052,0.3052,0.3051,2.1276,2.1276,2.1233,2.0803,2.0036,1.9836,1.8989,1.7791,1.7611,1.713,1.6643,1.6598,1.6648,1.66,1.686,1.6982,1.6942,1.6844,1.6682,1.6503,1.6381,1.6251,1.6129,1.6121,1.6105,1.6081,1.6048,1.6048,1.5342,1.3411,1.2092,1.1535,0.9416,1.0677,1.3593,1.3987,1.501,1.8685,1.7861,1.7015,1.699,1.6942,1.6893,1.6966,1.7055,1.7104,1.7112,1.7112,1.7128,1.7145,1.7128,1.712,1.7185,1.7413,1.7551,1.7648,1.7892,1.807,1.8111,1.8144,1.8176,1.8176,1.7973,1.7406,1.6277,1.5716,1.4739,1.3821,1.3081,1.3104,1.4831,1.1411,0.9522,0.8952,0.8944,0.8751,0.8944,0.8944,0.8751,0.9126,0.913,0.9146,0.9146,0.9146,0.9146,0.9146,0.9146,0.9146,0.9146,0.9146,0.9146,0.9146,0.9146,0.9146,0.9146,0.9146,0.9142,0.8952,0.8952,0.8952,0.8952,0.9142,0.8573,0.7239,0.6288,0.5337,0.4385,0.3434,0.3243,0.3052,0.3052,0.3052,0.3052,0.3052,0.3048,2.1276,2.1265,2.0663,2.0217,1.9634,1.8654,1.787,1.7082,1.6683,1.6609,1.6557,1.6544,1.6698,1.686,1.7006,1.7112,1.7071,1.6933,1.6755,1.6576,1.6389,1.6211,1.6064,1.6048,1.6048,1.6048,1.6048,1.6048,1.5695,1.3227,1.2099,1.1529,0.9392,1.0304,1.3356,1.3409,1.5053,1.7725,1.7619,1.699,1.6998,1.6958,1.699,1.7015,1.7055,1.7104,1.7112,1.7112,1.7161,1.7218,1.7161,1.7177,1.7266,1.7388,1.7551,1.7664,1.7892,1.8095,1.8152,1.8176,1.8144,1.7861,1.7482,1.6124,1.4772,1.3814,1.3115,1.2371,1.1304,1.1329,1.3971,1.1013,0.9522,0.9134,0.9109,0.9089,0.9077,0.9077,0.9077,0.9085,0.9105,0.9122,0.9146,0.9146,0.9146,0.9146,0.9146,0.9146,0.9146,0.9146,0.9146,0.9146,0.9146,0.9146,0.9146,0.9146,0.894,0.8936,0.855,0.8554,0.855,0.8538,0.7795,0.6669,0.5718,0.5128,0.4194,0.3243,0.3052,0.3051,0.305,0.3048,0.3051,0.3051,0.304,2.1276,2.1254,2.0107,1.9514,1.9124,1.7545,1.6747,1.6673,1.6087,1.6032,1.6446,1.656,1.6755,1.6998,1.7088,1.7112,1.7096,1.6966,1.6828,1.6649,1.6462,1.6276,1.6146,1.6097,1.6089,1.6048,1.6113,1.6073,1.553,1.3281,1.2136,1.1363,0.9564,0.9775,1.2439,1.2993,1.4907,1.6371,1.714,1.6901,1.6942,1.7031,1.7112,1.7112,1.7112,1.7112,1.7112,1.7112,1.7169,1.7218,1.7201,1.7169,1.7299,1.7331,1.7429,1.7624,1.7786,1.7957,1.8111,1.8119,1.807,1.803,1.668,1.5114,1.3407,1.232,1.0996,1.0786,1.011,1.0578,1.2899,1.0848,0.9361,0.9167,0.9118,0.9056,0.9032,0.9016,0.9003,0.9024,0.9069,0.9101,0.9122,0.9146,0.9146,0.9146,0.9146,0.9146,0.9146,0.9146,0.9146,0.9146,0.9146,0.9146,0.9146,0.9146,0.8928,0.8712,0.8131,0.7746,0.7743,0.7924,0.6804,0.5855,0.5661,0.4896,0.3791,0.3048,0.3046,0.3043,0.3043,0.3035,0.302,0.3016,0.301,2.1276,2.1276,2.0262,1.9493,1.8522,1.7503,1.6452,1.5729,1.5852,1.5894,1.6178,1.6438,1.6682,1.6909,1.7063,1.7104,1.7096,1.7071,1.6958,1.6771,1.6617,1.6454,1.6292,1.6276,1.617,1.6105,1.6186,1.617,1.5404,1.3356,1.2191,1.1558,1.007,0.9775,1.171,1.2728,1.4242,1.5909,1.6784,1.7063,1.7071,1.7096,1.7112,1.7112,1.7112,1.7112,1.7112,1.7112,1.7145,1.7145,1.7136,1.712,1.7145,1.7145,1.7331,1.7534,1.7697,1.7819,1.8079,1.8079,1.803,1.7691,1.6599,1.5307,1.2981,1.1101,0.9987,1.1177,1.0054,1.0086,1.1857,1.0778,0.9453,0.9052,0.9016,0.8928,0.8864,0.9007,0.8987,0.8962,0.9007,0.906,0.9101,0.9126,0.9146,0.9146,0.9142,0.913,0.9118,0.9093,0.9089,0.9073,0.9069,0.9069,0.9065,0.9077,0.888,0.8661,0.7705,0.6939,0.6369,0.617,0.5959,0.5213,0.5027,0.4678,0.3582,0.3029,0.3032,0.3025,0.3014,0.2995,0.2973,0.2973,0.2981,2.1276,2.1114,1.9795,1.8865,1.8191,1.6799,1.5905,1.552,1.548,1.5691,1.604,1.63,1.6625,1.695,1.7088,1.7112,1.7112,1.7112,1.7015,1.6885,1.6755,1.6633,1.647,1.6357,1.6243,1.6202,1.6154,1.6113,1.5224,1.3714,1.2056,1.1724,0.9893,0.9072,1.0813,1.2107,1.3422,1.4786,1.6048,1.7096,1.7112,1.7112,1.7112,1.7112,1.7112,1.7112,1.7112,1.7112,1.7112,1.7112,1.7112,1.7112,1.7112,1.7136,1.7266,1.7583,1.7543,1.7721,1.8079,1.8079,1.807,1.7459,1.5975,1.3499,1.1424,0.9933,0.919,0.9724,0.9407,0.9865,1.073,0.9828,0.8884,0.8306,0.8476,0.8383,0.8488,0.884,0.8995,0.8967,0.8946,0.9003,0.9036,0.902,0.9024,0.9016,0.9007,0.8995,0.8983,0.8962,0.8962,0.8967,0.8967,0.8967,0.8958,0.8958,0.8967,0.8571,0.7257,0.6128,0.4821,0.4256,0.424,0.4615,0.4632,0.4099,0.3188,0.3001,0.2996,0.2988,0.298,0.2965,0.2951,0.296,0.2961,2.0952,2.079,1.9307,1.856,1.8238,1.641,1.552,1.5496,1.539,1.5545,1.591,1.6243,1.6665,1.7023,1.7104,1.7112,1.7112,1.7112,1.7039,1.6942,1.686,1.6771,1.6633,1.6487,1.6357,1.63,1.6202,1.6113,1.5396,1.3887,1.2554,1.2056,1.006,0.923,0.9923,1.1536,1.3376,1.4958,1.6435,1.7096,1.7112,1.7112,1.7112,1.7112,1.7112,1.7112,1.7112,1.7112,1.7112,1.7112,1.7112,1.7112,1.7112,1.7185,1.7331,1.7575,1.7591,1.7762,1.803,1.8111,1.8062,1.708,1.5368,1.2772,1.0473,0.9309,0.8942,0.9169,0.902,0.8908,0.8972,0.9248,0.8299,0.7715,0.7496,0.7602,0.791,0.8465,0.8987,0.893,0.8918,0.8934,0.895,0.8909,0.8893,0.8881,0.8873,0.8873,0.8877,0.8881,0.8889,0.8913,0.8913,0.8913,0.8905,0.8893,0.8881,0.8312,0.701,0.5516,0.4039,0.348,0.3471,0.3846,0.4238,0.3674,0.2941,0.3134,0.3143,0.2954,0.2949,0.2943,0.2938,0.2945,0.2946,2.013,1.9967,1.9144,1.8645,1.8426,1.6452,1.5512,1.5512,1.5488,1.5528,1.5764,1.6235,1.6747,1.7039,1.7112,1.7112,1.7112,1.7112,1.7088,1.7031,1.6933,1.6844,1.673,1.66,1.6438,1.6316,1.6219,1.6137,1.575,1.4713,1.3217,1.2056,1.056,0.9559,0.9761,1.1356,1.4083,1.5676,1.68,1.7088,1.7104,1.7112,1.7112,1.7112,1.7112,1.7112,1.7112,1.7112,1.7112,1.7112,1.7112,1.7112,1.7128,1.725,1.7429,1.7583,1.7762,1.7916,1.8095,1.8087,1.7861,1.7173,1.5507,1.2864,1.0578,0.9672,0.9118,0.9093,0.9097,0.8964,0.9032,0.9084,0.8314,0.7721,0.7307,0.7062,0.7575,0.8481,0.8999,0.8913,0.8901,0.8938,0.8926,0.8901,0.8881,0.8873,0.8873,0.8873,0.8873,0.8877,0.8877,0.8885,0.8881,0.8881,0.8881,0.8684,0.7944,0.7374,0.6439,0.4933,0.345,0.3081,0.3101,0.3095,0.3475,0.3084,0.2894,0.2932,0.2951,0.293,0.292,0.2927,0.2927,0.293,0.2931,1.9967,1.9805,1.85,1.7846,1.781,1.614,1.5512,1.5496,1.5398,1.5618,1.6016,1.6414,1.6779,1.7031,1.7112,1.7112,1.7112,1.7112,1.7112,1.7055,1.695,1.6868,1.6763,1.6576,1.6365,1.6292,1.6211,1.6129,1.5891,1.5381,1.388,1.2382,1.1053,0.9559,0.9598,1.1356,1.4245,1.6144,1.6868,1.699,1.7104,1.7112,1.7112,1.7112,1.7112,1.7112,1.7112,1.7112,1.7112,1.7112,1.7112,1.7112,1.7136,1.7291,1.7453,1.7443,1.7802,1.7989,1.8127,1.7917,1.7367,1.5514,1.4228,1.2727,1.0838,0.9522,0.9142,0.9142,0.9146,0.9183,0.9064,0.9088,0.8707,0.7928,0.732,0.7077,0.7423,0.8327,0.8876,0.9003,0.8975,0.8975,0.8946,0.8909,0.8889,0.8873,0.8873,0.8873,0.8873,0.8873,0.8873,0.8873,0.8873,0.8684,0.85,0.7756,0.6829,0.6259,0.5694,0.4574,0.328,0.3114,0.2943,0.293,0.2923,0.2926,0.2932,0.2947,0.2947,0.2931,0.2924,0.2924,0.2921,0.292,0.293,1.9632,1.9469,1.7682,1.7199,1.7147,1.5988,1.5512,1.5496,1.539,1.5723,1.6381,1.6544,1.6779,1.7031,1.7112,1.7112,1.7112,1.7104,1.7071,1.6998,1.6909,1.6828,1.6682,1.6503,1.6316,1.6259,1.6146,1.6048,1.6048,1.6048,1.4713,1.2886,1.1225,0.9893,0.9086,1.1356,1.4203,1.6065,1.6763,1.6942,1.7088,1.7112,1.7112,1.7112,1.7112,1.7112,1.7112,1.7112,1.7112,1.7112,1.7112,1.7112,1.7177,1.7283,1.7437,1.7599,1.7778,1.7973,1.807,1.7965,1.7234,1.6104,1.4234,1.2727,1.1033,0.9711,0.9146,0.9146,0.9146,0.9171,0.9052,0.9044,0.7691,0.6528,0.7876,0.7834,0.7439,0.7978,0.8554,0.9109,0.9081,0.9048,0.904,0.9007,0.895,0.8918,0.8873,0.8873,0.8873,0.8873,0.8873,0.8873,0.8873,0.85,0.8128,0.721,0.6103,0.4801,0.424,0.4061,0.332,0.315,0.2965,0.295,0.2949,0.2958,0.2962,0.2964,0.2951,0.2936,0.2939,0.2947,0.2941,0.2945,0.2958,1.8818,1.8491,1.6862,1.6542,1.7156,1.5988,1.552,1.552,1.552,1.5902,1.6503,1.6592,1.6787,1.7055,1.7112,1.7112,1.7112,1.7104,1.7039,1.6909,1.6828,1.6738,1.6568,1.6389,1.6243,1.6251,1.6137,1.6048,1.6048,1.6048,1.5051,1.3728,1.2075,1.0419,0.8575,1.0846,1.3682,1.6065,1.6607,1.6933,1.7071,1.7112,1.7112,1.7112,1.7112,1.7112,1.7112,1.7112,1.7112,1.7112,1.7112,1.7112,1.7136,1.7291,1.7404,1.7461,1.7754,1.7908,1.7949,1.8087,1.7787,1.686,1.4792,1.3293,1.2727,1.1033,0.8952,0.8763,0.8763,0.8956,0.8972,0.879,0.6696,0.6322,0.7479,0.8262,0.7869,0.8056,0.8833,0.9228,0.9183,0.9142,0.9142,0.9118,0.904,0.8975,0.9086,0.9069,0.8909,0.8926,0.8942,0.876,0.8764,0.8203,0.7645,0.6499,0.5377,0.3888,0.3155,0.3354,0.336,0.3181,0.2987,0.2973,0.2992,0.302,0.2996,0.2971,0.2987,0.3005,0.2981,0.2979,0.2971,0.298,0.3009,1.8654,1.8491,1.6698,1.6213,1.6336,1.595,1.5626,1.5545,1.5666,1.6024,1.6519,1.6698,1.6877,1.7055,1.7112,1.7112,1.7112,1.7104,1.7015,1.6852,1.6747,1.6568,1.6397,1.6251,1.6146,1.6121,1.6056,1.6048,1.6048,1.6048,1.5208,1.3894,1.213,1.0504,1.0177,1.1419,1.3376,1.5145,1.6144,1.6933,1.7088,1.7112,1.7112,1.7112,1.7112,1.7112,1.7112,1.7112,1.7112,1.7112,1.7112,1.7112,1.7136,1.7283,1.7413,1.7346,1.7612,1.7973,1.8046,1.816,1.7608,1.6479,1.4979,1.3293,1.2156,1.0465,0.8948,0.7999,0.7999,0.8386,0.8968,0.7687,0.6166,0.6177,0.7156,0.797,0.8174,0.8753,0.9338,0.9342,0.9318,0.9265,0.9244,0.9232,0.9167,0.9134,0.9269,0.9056,0.9069,0.9069,0.9077,0.8696,0.8508,0.7743,0.6977,0.6221,0.5091,0.3589,0.3024,0.3217,0.322,0.3033,0.3041,0.3046,0.3065,0.3081,0.3062,0.3051,0.3074,0.3082,0.3058,0.305,0.3056,0.3071,0.3095,1.81,1.8001,1.6698,1.6048,1.6016,1.5845,1.5699,1.5634,1.574,1.6073,1.6519,1.6714,1.6893,1.7047,1.7112,1.7112,1.7112,1.7104,1.6942,1.6779,1.6649,1.6446,1.6251,1.6113,1.6081,1.6048,1.6048,1.6048,1.6048,1.6048,1.5216,1.3756,1.2023,1.0916,1.0779,1.168,1.312,1.4851,1.5986,1.6933,1.7055,1.7112,1.7112,1.7112,1.7112,1.7112,1.7112,1.7112,1.7112,1.7112,1.7112,1.7112,1.7153,1.7226,1.7169,1.729,1.7507,1.7908,1.8095,1.8079,1.7723,1.704,1.4979,1.3287,1.1967,1.0465,0.9142,0.8189,0.7242,0.7055,0.7265,0.5974,0.5425,0.5432,0.624,0.7251,0.7847,0.8427,0.9208,0.922,0.9408,0.9367,0.9342,0.9136,0.9108,0.9285,0.9269,0.9252,0.9224,0.9203,0.9,0.8615,0.8229,0.7647,0.6893,0.5958,0.4808,0.3273,0.3078,0.3076,0.3086,0.3091,0.3104,0.3114,0.3115,0.3119,0.313,0.3137,0.3134,0.3137,0.3134,0.3133,0.3145,0.3146,0.3152,1.7179,1.7191,1.6377,1.6048,1.6016,1.5869,1.5788,1.578,1.5788,1.6097,1.6584,1.6609,1.682,1.7071,1.7112,1.7112,1.7112,1.7112,1.6893,1.669,1.6592,1.6357,1.617,1.6056,1.6048,1.6048,1.6048,1.6048,1.6048,1.6048,1.5216,1.4095,1.2558,1.1476,1.1036,1.1802,1.3083,1.4423,1.604,1.6816,1.7088,1.7112,1.7112,1.7112,1.7112,1.7112,1.7112,1.7112,1.7112,1.7112,1.7112,1.7112,1.7112,1.7112,1.7112,1.7234,1.7502,1.7811,1.8046,1.7997,1.8054,1.7398,1.557,1.4241,1.2939,1.1067,0.9564,0.8237,0.7096,0.5934,0.4978,0.4438,0.3694,0.4296,0.5298,0.6098,0.6892,0.7485,0.8467,0.886,0.9244,0.942,0.942,0.9216,0.922,0.9416,0.9412,0.9432,0.9391,0.9301,0.8903,0.8121,0.7735,0.7349,0.6401,0.5447,0.4475,0.3111,0.3119,0.3119,0.3133,0.314,0.3142,0.3145,0.3146,0.3153,0.3168,0.317,0.3165,0.3171,0.3178,0.3178,0.3176,0.3168,0.3168,1.7179,1.7363,1.6369,1.6048,1.604,1.5991,1.5967,1.5967,1.5967,1.6211,1.6592,1.6722,1.6868,1.7104,1.7112,1.7112,1.7112,1.7063,1.6868,1.6706,1.6584,1.6341,1.6162,1.6056,1.6048,1.6048,1.6048,1.6048,1.6048,1.6048,1.5381,1.4081,1.3121,1.1715,1.1468,1.1946,1.2898,1.4008,1.5958,1.6697,1.7088,1.7112,1.7112,1.7112,1.7112,1.7112,1.7112,1.7112,1.7112,1.7112,1.7112,1.7112,1.7112,1.712,1.7145,1.7323,1.7534,1.7746,1.7932,1.794,1.7973,1.7949,1.6372,1.4937,1.362,1.191,1.0025,0.8499,0.7163,0.5998,0.4849,0.3904,0.3532,0.4138,0.4953,0.537,0.6172,0.7367,0.8158,0.8948,0.9332,0.9308,0.9308,0.9506,0.951,0.9526,0.9542,0.9563,0.9538,0.944,0.8799,0.7813,0.742,0.7034,0.5671,0.4312,0.3922,0.314,0.315,0.3156,0.3155,0.316,0.3171,0.3178,0.318,0.3193,0.3208,0.3205,0.3194,0.3205,0.3213,0.321,0.3208,0.3197,0.3193,1.658,1.6751,1.618,1.6048,1.6048,1.6048,1.6048,1.6048,1.6048,1.6211,1.6479,1.6657,1.6844,1.6998,1.7071,1.7112,1.7112,1.7096,1.6958,1.6771,1.6609,1.6405,1.6219,1.6081,1.6048,1.6048,1.6048,1.6048,1.6048,1.5883,1.5381,1.4908,1.3682,1.2765,1.2699,1.321,1.3709,1.4618,1.5682,1.6761,1.7112,1.7112,1.7112,1.7112,1.7112,1.7112,1.7112,1.7112,1.7112,1.7112,1.7112,1.7112,1.7112,1.712,1.7193,1.7348,1.7274,1.7616,1.7754,1.7729,1.7851,1.7845,1.7265,1.587,1.4087,1.2411,1.0509,0.8978,0.7437,0.6085,0.4925,0.3759,0.3968,0.4378,0.4404,0.4634,0.5846,0.7053,0.8058,0.8854,0.9036,0.9209,0.94,0.9599,0.9604,0.9608,0.9616,0.9632,0.9604,0.953,0.8493,0.7295,0.6901,0.6707,0.5133,0.3759,0.357,0.3379,0.3187,0.319,0.3182,0.3185,0.3198,0.3208,0.3216,0.3221,0.3224,0.3225,0.3223,0.323,0.323,0.3224,0.322,0.3219,0.3219,1.5601,1.5796,1.5975,1.6048,1.6048,1.6048,1.6048,1.6048,1.6048,1.6146,1.6332,1.6479,1.6674,1.6877,1.6998,1.708,1.7096,1.7104,1.7015,1.6844,1.6649,1.6454,1.6276,1.6137,1.6064,1.6048,1.6048,1.6048,1.6048,1.6048,1.5883,1.5899,1.4835,1.3961,1.4036,1.4256,1.4576,1.4977,1.6042,1.7112,1.7112,1.7112,1.7112,1.7112,1.7112,1.7112,1.7112,1.7112,1.7112,1.7112,1.7112,1.7112,1.7112,1.7112,1.7218,1.7274,1.7161,1.7453,1.7551,1.7534,1.7681,1.7827,1.7965,1.6582,1.4885,1.3285,1.1578,0.9083,0.7527,0.6343,0.5167,0.3786,0.3598,0.3804,0.3819,0.4638,0.6052,0.7261,0.8266,0.8869,0.9271,0.9248,0.8843,0.904,0.964,0.9665,0.9673,0.9681,0.9657,0.9595,0.8375,0.6961,0.6768,0.6172,0.4587,0.3599,0.3817,0.3625,0.3221,0.3219,0.3208,0.3215,0.3228,0.3228,0.3225,0.3227,0.323,0.323,0.323,0.323,0.323,0.323,0.323,0.323,0.323,1.5488,1.5788,1.5967,1.6048,1.6048,1.6048,1.6048,1.6048,1.6048,1.6137,1.6292,1.6373,1.6544,1.6795,1.6893,1.6982,1.708,1.7096,1.6998,1.6852,1.6674,1.6503,1.63,1.6146,1.6064,1.6048,1.6048,1.6048,1.6048,1.6048,1.5883,1.5899,1.4952,1.457,1.4693,1.4916,1.5038,1.5323,1.6393,1.7112,1.7112,1.7112,1.7112,1.7112,1.7112,1.7112,1.7112,1.7112,1.7112,1.7112,1.7112,1.7112,1.7112,1.7112,1.7128,1.7169,1.7201,1.7299,1.738,1.7437,1.7583,1.7884,1.7941,1.7079,1.5945,1.4536,1.2476,0.977,0.7605,0.6603,0.5406,0.4215,0.3217,0.3221,0.3224,0.4839,0.6254,0.7462,0.8467,0.8873,0.9283,0.8877,0.8471,0.8672,0.948,0.9681,0.9681,0.9681,0.9681,0.9444,0.8432,0.7218,0.6626,0.5829,0.4226,0.3421,0.3428,0.3431,0.3227,0.3228,0.323,0.323,0.323,0.323,0.323,0.323,0.323,0.323,0.323,0.323,0.323,0.323,0.323,0.323,0.323,1.535,1.5561,1.5821,1.5975,1.604,1.6048,1.6048,1.6048,1.6048,1.6097,1.6194,1.6276,1.643,1.6665,1.6771,1.6885,1.7006,1.708,1.7055,1.6933,1.6714,1.656,1.6365,1.6178,1.6081,1.6048,1.6048,1.6048,1.6048,1.6048,1.5883,1.5908,1.5219,1.5202,1.5368,1.5541,1.57,1.6034,1.6753,1.7112,1.7112,1.7112,1.7112,1.7112,1.7112,1.7112,1.7112,1.7112,1.7112,1.7112,1.7112,1.7112,1.7112,1.7112,1.7112,1.712,1.7136,1.7161,1.7258,1.738,1.7518,1.7835,1.8233,1.7535,1.6187,1.458,1.2556,0.9828,0.7637,0.6433,0.5229,0.403,0.3426,0.3227,0.343,0.4236,0.6254,0.8065,0.8266,0.827,0.827,0.7663,0.7462,0.7462,0.8471,0.9681,0.9681,0.948,0.9681,0.948,0.8266,0.7261,0.6657,0.5446,0.3832,0.3225,0.3228,0.323,0.323,0.323,0.323,0.323,0.323,0.323,0.323,0.323,0.323,0.323,0.323,0.323,0.323,0.323,0.323,0.323,0.323,1.5236,1.5317,1.5634,1.5878,1.6032,1.6048,1.6048,1.6048,1.6048,1.6048,1.6073,1.6202,1.6267,1.6422,1.6641,1.6763,1.6901,1.7047,1.708,1.7015,1.6771,1.6625,1.6454,1.6267,1.6137,1.6064,1.6048,1.6048,1.6048,1.6048,1.6056,1.6081,1.6202,1.6373,1.6568,1.673,1.6711,1.6697,1.7112,1.7112,1.7112,1.7112,1.7112,1.7112,1.7112,1.7112,1.7112,1.7112,1.7112,1.7112,1.7112,1.7112,1.7112,1.7112,1.7112,1.7112,1.7112,1.712,1.7169,1.7307,1.7494,1.777,1.82,1.7756,1.6415,1.444,1.241,1.0253,0.8055,0.5851,0.4843,0.4036,0.3431,0.3431,0.3633,0.4238,0.6254,0.8266,0.8266,0.8065,0.7462,0.6855,0.7059,0.7059,0.7867,0.9279,0.9681,0.9476,0.9275,0.9074,0.8471,0.7261,0.6455,0.5045,0.3431,0.323,0.323,0.323,0.323,0.323,0.323,0.323,0.323,0.323,0.323,0.3231,0.3231,0.323,0.323,0.3232,0.323,0.323,0.323,0.323,0.323,1.5195,1.548,1.5691,1.5878,1.6024,1.6048,1.6048,1.6048,1.6048,1.6048,1.6056,1.6081,1.6162,1.6316,1.6519,1.6682,1.6836,1.7006,1.7096,1.7055,1.6836,1.6706,1.6535,1.6292,1.6178,1.6097,1.6048,1.6048,1.6048,1.6048,1.6056,1.6073,1.6056,1.6259,1.656,1.6698,1.6795,1.6998,1.7112,1.7112,1.7112,1.7112,1.7112,1.7112,1.7112,1.7112,1.7112,1.7112,1.7112,1.7112,1.7112,1.7112,1.7112,1.7112,1.7112,1.7112,1.7112,1.7112,1.7169,1.7323,1.7526,1.8176,1.8607,1.8598,1.6867,1.4712,1.2625,1.0649,0.8252,0.5446,0.4036,0.3633,0.323,0.3633,0.3835,0.4843,0.6455,0.7663,0.827,0.8069,0.7666,0.7663,0.7864,0.8069,0.8478,0.9484,0.9681,0.9476,0.8062,0.8065,0.8672,0.7261,0.6052,0.5045,0.3633,0.323,0.323,0.323,0.323,0.323,0.323,0.323,0.323,0.323,0.3231,0.3232,0.3231,0.3239,0.3236,0.3238,0.3232,0.323,0.323,0.323,0.323]}]]